     2              OBSERVATION DATA    GPS                 RINEX VERSION / TYPE
teqc 1997Jul24 19970814                                     PGM / RUN BY / DATE
                                                            COMMENT
Original Marker Name: 0705                                  COMMENT
Campaign Name: HPGN 1991                                    COMMENT
4-Character Station Name: 0705                              COMMENT
6-Character Antenna Code: TRMSST                            COMMENT
Vertical Measurement Point: TGP                             COMMENT
Vertical Offset to Rinex Ref. Point: 0.0629                 COMMENT
Radial Measurement Point: OGP                               COMMENT
Radial Offset to Rinex Ref. Point: 0.2413                   COMMENT
Antenna Height from Field Measurement: 1.6620 m             COMMENT
Original XYZ: -2451914.0684 -4657348.2286 3592212.4904      COMMENT
New XYZ position is based on association with SCEC monument COMMENT
E1F2B4Q8+0011. Position of that monument is believed to be  COMMENT
valid to within 1 m horizontally; vertical accuracy         COMMENT
should be no worse than 3-times this value.                 COMMENT
                                                            COMMENT
Revised Rinex header created by UCSD GPS archive for        COMMENT
GSAC on 19-Apr-1999 (1999:109) 05:07:39 GMT                 COMMENT
For assistance contact dagnew@ucsd.edu or hjohnson@ucsd.edu COMMENT
                                                            COMMENT
HPGN-CALIF STA 07-05 1991                                   MARKER NAME
unknown NATIONAL GEODETIC SURVEY                            OBSERVER / AGENCY
482 TRIMBLE 4000 SST NP 4.30 / SP 4.20                      REC # / TYPE / VERS
20 TR 4000SST L1/L2 GEO                                     ANT # / TYPE
 -2451918.0000 -4657354.0000  3592210.0000                  APPROX POSITION XYZ
        1.5815        0.0000        0.0000                  ANTENNA: DELTA H/E/N
     1     1     0                                          WAVELENGTH FACT L1/2
     3    C1    L1    L2                                    # / TYPES OF OBSERV
     0                                                      INTERVAL
  1991     4    22    19    59   45.000000                  TIME OF FIRST OBS
  1991     4    23     2     1   60.000000                  TIME OF LAST OBS
     0                                                      # OF SATELLITES
                                                            END OF HEADER
 91  4 22 19 59 45.0000000  0  4G18G 2G11G19
  20538858.8444         -0.60558        -0.47073
  23685217.7274         -0.67255        -0.36071
  23579191.8524         -0.70456        -0.05271
  20763958.0394         -0.37157        -0.44473
 91  4 22 20  0  0.0000000  0  4G18G 2G11G19
  20540946.1724      10967.67348      8546.20263
  23674983.4614     -53780.33645    -41906.40461
  23571948.281      -38068.728 6    -29663.33321
  20762048.4774     -10029.71247     -7815.50463
 91  4 22 20  0 15.0000000  0  4G18G 2G11G19
  20543055.422       22052.045 8     17183.33223
  23664757.7664    -107510.21245    -83773.68461
  23564723.9694     -76036.38346    -59248.41461
  20760152.438      -20012.673 7    -15594.42723
 91  4 22 20  0 30.0000000  0  4G18G 2G11G19
  20545186.813       33250.739 8     25909.54523
  23654543.2194    -161191.90545   -125603.43861
  23557515.5474    -113904.91345    -88756.25661
  20758257.8364     -29950.89447    -23338.48363
 91  4 22 20  0 45.0000000  0  4G18G 2G11G19
  20547340.688       44566.286 8     34726.80923
  23644337.2664    -214822.41245   -167393.28261
  23550330.445     -151671.182 6   -118184.39721
  20756377.8984     -39841.55947    -31045.48763
 91  4 22 20  1  0.0000000  0  4G18G 2G11G19
  20549516.766       56008.098 8     43642.46523
  23634142.4844    -268391.91545   -209135.56361
  23543165.3204    -189325.37846   -147525.21561
  20754504.3914     -49675.27747    -38708.11863
 91  4 22 20  1 15.0000000  0  4G18G 2G11G19
  20551717.2894      67573.31048     52654.27563
  23623962.2194    -321903.26145   -250832.54161
  23536020.0554    -226870.21246   -176780.79961
  20752646.2344     -59455.00547    -46328.68363
 91  4 22 20  1 30.0000000  0  4G18G 2G11G19
  20553941.656       79259.065 8     61760.01323
  23613788.6174    -375358.87645   -292486.09761
  23528895.867     -264307.886 6   -205952.91021
  20750793.4694     -69183.34447    -53909.20363
 91  4 22 20  1 45.0000000  0  4G18G 2G11G19
  20556188.453       91067.774 8     70961.56423
  23603626.3204    -428756.34845   -334094.36161
  23521793.2274    -301635.83746   -235039.49361
  20748953.5314     -78858.06947    -61447.94562
 91  4 22 20  2  0.0000000  0  4G18G 2G11G19
  20558459.844      103004.886 8     80263.16123
  23593480.0164    -482090.07945   -375652.93161
  23514710.703     -338848.105 6   -264035.94821
  20747124.6644     -88473.64347    -68940.59262
 91  4 22 20  2 15.0000000  0  4G18G 2G11G19
  20560757.0394     115074.31848     89667.88163
  23583339.7974    -535356.12945   -417158.76661
  23507652.0864    -375940.47646   -292938.98261
  20745306.3984     -98026.36847    -76384.26962
 91  4 22 20  2 30.0000000  0  4G18G 2G11G19
  20563082.5784     127292.64148     99188.61063
  23573220.695     -588537.594 5   -458598.67621
  23500620.766     -412895.997 6   -321735.38421
  20743501.7194    -107499.47447    -83765.90962
 91  4 22 20  2 45.0000000  0  4G18G 2G11G19
  20565433.227      139648.929 8    108816.84123
  23563116.055     -641645.208 5   -499981.07521
  23493614.297     -449725.125 6   -350433.27321
  20741713.9304    -116903.85347    -91093.98662
 91  4 22 20  3  0.0000000  0  4G18G 2G11G19
  20567808.875      152127.888 8    118540.66223
  23553019.7424    -694694.28445   -541317.83761
  23486625.227     -486442.982 6   -379044.48021
  20739932.0944    -126255.07247    -98380.65563
 91  4 22 20  3 15.0000000  0  4G18G 2G11G19
  20570209.4694     164743.83248    128371.23363
  23542937.242     -747669.851 5   -582597.30621
  23479661.3444    -523034.39646   -407557.14861
  20738167.7664    -135538.25747   -105614.30262
 91  4 22 20  3 30.0000000  0  4G18G 2G11G19
  20572632.7734     177481.17248    138296.38863
  23532868.797     -800587.666 5   -623831.77221
  23472719.8204    -559514.86246   -435983.37761
  20736407.4924    -144769.29447   -112807.31762
 91  4 22 20  3 45.0000000  0  4G18G 2G11G19
  20575079.5234     190340.81648    148316.85163
  23522811.047     -853446.466 6   -665020.24821
  23465800.0084    -595883.00746   -464322.06861
  20734664.8984    -153947.31747   -119959.02162
 91  4 22 20  4  0.0000000  0  4G18G 2G11G19
  20577549.8754     203318.42848    158429.23463
  23512761.1724    -906250.31846   -706165.92961
  23458901.0234    -632142.82046   -492576.33161
  20732927.3524    -163076.57047   -127072.71462
 91  4 22 20  4 15.0000000  0  4G18G 2G11G19
  20580043.156      216418.525 8    168637.06023
  23502723.7734    -958994.50145   -747265.11161
  23452019.578     -668289.389 6   -520742.37521
  20731200.4924    -172152.48947   -134144.86162
 91  4 22 20  4 30.0000000  0  4G18G 2G11G19
  20582558.5234     229639.44348    178939.03363
  23492698.109    -1011680.596 6   -788318.99821
  23445162.359     -704324.122 6   -548821.27521
  20729480.4064    -181176.67547   -141176.69062
 91  4 22 20  4 45.0000000  0  4G18G 2G11G19
  20585096.352      242975.248 8    189330.52923
  23482683.2274   -1064314.50346   -829332.24061
  23438325.3754    -740252.58846   -576817.35961
  20727774.7664    -190155.04247   -148172.82262
 91  4 22 20  5  0.0000000  0  4G18G 2G11G19
  20587656.875      256427.331 8    199812.62423
  23472677.383    -1116894.462 6   -870303.46921
  23431508.102     -776072.883 6   -604729.15321
  20726072.5084    -199086.08247   -155132.07463
 91  4 22 20  5 15.0000000  0  4G18G 2G11G19
  20590237.0944     269990.57648    210381.34763
  23462680.8204   -1169425.11746   -911236.26561
  23424714.219     -811789.414 6   -632560.09721
  20724384.3524    -207974.75947   -162058.31563
 91  4 22 20  5 30.0000000  0  4G18G 2G11G19
  20592841.023      283673.021 8    221042.94923
  23452693.2894   -1221898.51945   -952124.42561
  23417938.3054    -847394.06446   -660303.86561
  20722701.2114    -216813.31247   -168945.49662
 91  4 22 20  5 45.0000000  0  4G18G 2G11G19
  20595466.2734     297470.69848    231794.34563
  23442720.9454   -1274318.12945   -992970.67761
  23411181.7274    -882890.08646   -687963.00061
  20721027.9384    -225605.41747   -175796.48262
 91  4 22 20  6  0.0000000  0  4G18G 2G11G19
  20598109.977      311361.855 8    242618.57623
  23432751.359    -1326705.805 6  -1033792.04721
  23404444.6884    -918299.00246   -715554.23861
  20719360.5634    -234372.99647   -182628.36162
 91  4 22 20  6 15.0000000  0  4G18G 2G11G19
  20600777.102      325374.645 8    253537.59023
  23422791.8204   -1379033.36346  -1074566.57161
  23397728.9774    -953592.58146   -743055.63361
  20717701.6644    -243087.98147   -189419.25962
 91  4 22 20  6 30.0000000  0  4G18G 2G11G19
  20603465.766      339503.289 8    264546.88423
  23412845.328    -1431306.010 6  -1115298.29721
  23391032.9924    -988775.87446   -770471.06361
  20716048.2034    -251755.77747   -196173.38562
 91  4 22 20  6 44.9990000  0  4G18G 2G11G19
  20606175.7224     353748.19448    275646.76463
  23402908.534    -1483518.716 6  -1155983.31621
  23384359.847    -1023844.900 6   -797797.47021
  20714411.9954    -260374.43147   -202889.22662
 91  4 22 20  6 59.9990000  0  4G18G 2G11G19
  20608909.956      368115.288 8    286841.85523
  23392985.339    -1535674.478 6  -1196623.94621
  23377707.011    -1058799.909 6   -825035.03621
  20712782.1594    -268940.98047   -209564.45862
 91  4 22 20  7 14.9990000  0  4G18G 2G11G19
  20611666.253      382598.347 8    298127.31623
  23383071.245    -1587774.556 6  -1237221.21321
  23371077.972    -1093643.222 6   -852185.56321
  20711161.0584    -277459.96547   -216202.62763
 91  4 22 20  7 29.9990000  0  4G18G 2G11G19
  20614446.2144     397207.47548    309511.00363
  23373168.448    -1639808.501 6  -1277766.94221
  23364472.253    -1128364.420 6   -879240.93721
  20709548.5344    -285921.35347   -222795.91463
 91  4 22 20  7 44.9990000  0  4G18G 2G11G19
  20617248.956      411934.616 8    320986.65424
  23363275.6594   -1691784.35845  -1318267.39761
  23357883.362    -1162971.313 6   -906207.24421
  20707950.6284    -294333.34047   -229350.70663
 91  4 22 20  7 59.9990000  0  4G18G 2G11G19
  20620074.894      426783.129 8    332556.87923
  23353396.933    -1743698.847 5  -1358720.04821
  23351319.3624   -1197460.31746   -933081.69861
  20706357.8004    -302692.61047   -235864.42163
 91  4 22 20  8 14.9990000  0  4G18G 2G11G19
  20622924.331      441755.967 8    344223.98023
  23343530.808    -1795548.300 5  -1399122.03021
  23344780.948    -1231827.602 6   -959861.29621
  20704779.7924    -310995.64447   -242334.31662
 91  4 22 20  8 29.9990000  0  4G18G 2G11G19
  20625797.097      456849.460 8    355985.09523
  23333675.8084   -1847336.63045  -1439476.39161
  23338262.5424   -1266076.81746   -986548.89061
  20703206.7844    -319246.42847   -248763.49862
 91  4 22 20  8 44.9990000  0  4G18G 2G11G19
  20628690.636      472058.706 8    367836.41123
  23323832.300    -1899068.435 6  -1479786.69921
  23331766.651    -1300212.502 6  -1013148.04121
  20701647.7924    -327449.85747   -255155.78162
 91  4 22 20  8 59.9990000  0  4G18G 2G11G19
  20631607.737      487396.943 8    379788.23923
  23314001.5584   -1950730.21046  -1520042.43761
  23325296.6984   -1334221.00746  -1039648.07261
  20700098.4564    -335592.63247   -261500.79563
 91  4 22 20  9 14.9990000  0  4G18G 2G11G19
  20634549.980      502852.205 8    391831.25823
  23304180.198    -2002333.678 6  -1560252.73921
  23318846.9874   -1368113.71146  -1066057.87861
  20698559.3474    -343686.42447   -267807.64962
 91  4 22 20  9 29.9990000  0  4G18G 2G11G19
  20637513.378      518423.669 8    403964.81323
  23294373.222    -2053879.475 6  -1600418.10021
  23312419.0654   -1401891.19246  -1092377.90961
  20697025.4564    -351732.14947   -274077.04262
 91  4 22 20  9 44.9990000  0  4G18G 2G11G19
  20640500.2454     534119.57548    416195.34563
  23284575.3784   -2105359.07546  -1640531.87861
  23306015.2764   -1435544.58046  -1118601.23361
  20695508.3624    -359721.42447   -280302.45063
 91  4 22 20  9 59.9990000  0  4G18G 2G11G19
  20643509.690      549934.798 8    428518.84723
  23274791.394    -2156777.419 6  -1680597.92121
  23299634.5734   -1469078.66146  -1144731.58661
  20693996.0504    -367659.31347   -286487.81762
 91  4 22 20 10 14.9990000  0  4G18G 2G11G19
  20646541.948      565866.948 8    440933.46923
  23265017.1984   -2208136.70446  -1720617.95761
  23293273.894    -1502495.442 6  -1170770.56521
  20692494.5584    -375548.17847   -292634.98162
 91  4 22 20 10 29.9990000  0  4G18G 2G11G19
  20649594.675      581910.713 8    453435.05623
  23255252.4484   -2259442.14746  -1760596.03661
  23286938.2694   -1535800.08746  -1196722.14861
  20691000.5034    -383393.39647   -298748.13962
 91  4 22 20 10 44.9990000  0  4G18G 2G11G19
  20652669.714      598071.489 8    466027.82523
  23245502.253    -2310687.894 6  -1800527.59421
  23280621.8234   -1568986.82546  -1222581.84861
  20689519.0654    -391189.41347   -304822.95562
 91  4 22 20 10 59.9990000  0  4G18G 2G11G19
  20655768.175      614351.440 8    478713.44524
  23235762.7304   -2361871.76746  -1840410.94961
  23274327.401    -1602052.945 6  -1248347.57621
  20688043.1444    -398934.02847   -310857.72562
 91  4 22 20 11 14.9990000  0  4G18G 2G11G19
  20658888.823      630754.087 8    491494.68524
  23226035.6594   -2412989.84646  -1880243.06961
  23268060.245    -1634994.308 6  -1274016.08321
  20686581.6124    -406623.46147   -316849.49062
 91  4 22 20 11 29.9990000  0  4G18G 2G11G19
  20662033.144      647276.026 8    504368.87424
  23216319.5114   -2464045.32746  -1920026.37561
  23261814.980    -1667814.053 6  -1299589.82421
  20685127.3944    -414261.08447   -322800.88762
 91  4 22 20 11 44.9990000  0  4G18G 2G11G19
  20665199.683      663914.540 8    517333.90124
  23206615.7694   -2515040.96646  -1959763.05261
  23255591.355    -1700514.805 6  -1325070.85321
  20683685.0734    -421849.85147   -328714.21362
 91  4 22 20 11 59.9990000  0  4G18G 2G11G19
  20668388.128      680668.705 8    530389.04824
  23196920.901    -2565977.305 6  -1999453.53721
  23249391.542    -1733096.821 6  -1350459.34121
  20682246.7374    -429390.33847   -334589.91462
 91  4 22 20 12 14.9990000  0  4G18G 2G11G19
  20671599.394      697542.393 8    543537.33224
  23187241.597    -2616850.186 6  -2039094.57021
  23243214.7374   -1765555.85346  -1375752.00961
  20680824.6754    -436878.73347   -340425.02662
 91  4 22 20 12 29.9990000  0  4G18G 2G11G19
  20674833.105      714535.249 8    556778.46424
  23177570.862    -2667659.662 6  -2078686.19621
  23237061.300    -1797891.695 6  -1400948.69321
  20679407.7694    -444315.05847   -346219.56362
 91  4 22 20 12 44.9990000  0  4G18G 2G11G19
  20678089.480      731651.151 8    570115.48324
  23167917.097    -2718401.737 6  -2118225.30521
  23230934.050    -1830100.304 6  -1426046.22321
  20678006.1444    -451695.52347   -351970.57162
 91  4 22 20 12 59.9990000  0  4G18G 2G11G19
  20681369.933      748887.461 8    583546.32624
  23158271.581    -2769078.974 6  -2157713.89321
  23224827.2144   -1862184.02946  -1451046.44961
  20676608.5424    -459022.91447   -357680.22262
 91  4 22 20 13 14.9990000  0  4G18G 2G11G19
  20684672.394      766242.632 8    597069.78624
  23148642.4014   -2819692.34046  -2197152.70261
  23218744.073    -1894143.793 6  -1475950.09021
  20675226.6204    -466298.45947   -363349.47862
 91  4 22 20 13 29.9990000  0  4G18G 2G11G19
  20687997.769      783715.879 8    610685.24624
  23139020.784    -2870242.491 6  -2236542.27221
  23212684.800    -1925980.064 6  -1500757.49121
  20673850.4404    -473522.75947   -368978.80262
 91  4 22 20 13 44.9990000  0  4G18G 2G11G19
  20691345.722      801311.315 8    624395.92624
  23129415.1514   -2920725.08346  -2275879.18361
  23206653.636    -1957688.137 6  -1525465.01021
  20672487.7224    -480691.65347   -374564.95662
 91  4 22 20 13 59.9990000  0  4G18G 2G11G19
  20694716.073      819019.448 8    638194.42624
  23119816.815    -2971149.705 6  -2315170.93621
  23200641.9094   -1989277.35546  -1550079.88661
  20671129.4484    -487814.79947   -380115.45762
 91  4 22 20 14 14.9990000  0  4G18G 2G11G19
  20698108.198      836846.283 8    652085.40824
  23110236.378    -3021509.883 6  -2354412.47121
  23194654.925    -2020741.280 6  -1574597.16121
  20669786.3944    -494885.98047   -385625.46562
 91  4 22 20 14 29.9990000  0  5G18G 2G11G16G19
  20701523.550      854790.947 8    666068.20724
  23100664.511    -3071806.398 6  -2393604.37821
  23188690.6514   -2052080.39646  -1599017.18461
  24108025.4724     -33083.55345
  20668451.7614    -501906.02447   -391095.63262
 91  4 22 20 14 44.9990000  0  5G18G 2G11G16G19
  20704960.823      872855.720 8    680144.60124
  23091106.597    -3122036.585 6  -2432744.63321
  23182752.5654   -2083291.88446  -1623337.73361
  24101755.3234     -66037.56545
  20667124.8704    -508872.40347   -396523.97362
 91  4 22 20 14 59.9990000  0  5G18G 2G11G16G19
  20708420.2924     891037.45548    694312.12764
  23081559.214    -3172203.689 6  -2471835.71221
  23176836.394    -2114378.786 6  -1647561.20921
  24095506.1754     -98865.60545
  20665806.9484    -515788.37647   -401913.04762
 91  4 22 20 15 14.9990000  0  5G18G 2G11G16G19
  20711903.409      909338.318 8    708572.48724
  23072025.190    -3222305.002 6  -2510875.52321
  23170944.4094   -2145338.36146  -1671685.50361
  24089285.855     -131565.060 5
  20664502.3154    -522651.63747   -407261.03062
 91  4 22 20 15 29.9990000  0  5G18G 2G11G16G19
  20715408.3474     927761.12848    722927.87264
  23062504.089    -3272337.335 6  -2549861.58921
  23165079.7304   -2176167.22946  -1695707.90461
  24083087.5814    -164132.91845
  20663205.4804    -529458.94547   -412565.42862
 91  4 22 20 15 44.9990000  0  5G18G 2G11G16G19
  20718937.7144     946303.94348    737376.75964
  23052995.2304   -3322302.36846  -2588795.21761
  23159236.9404   -2206866.80446  -1719629.57961
  24076914.284     -196570.786 5        -0.11731
  20661922.0734    -536211.99547   -417827.54662
 91  4 22 20 15 59.9990000  0  5G18G 2G11G16G19
  20722488.042      964962.360 8    751915.72624
  23043500.1674   -3372204.75246  -2627680.03661
  23153415.894    -2237441.457 6  -1743453.90521
  24070765.4564    -228883.27645    -25178.65161
  20660644.6754    -542915.60247   -423051.13362
 91  4 22 20 16 14.9990000  0  5G18G 2G11G16G19
  20726061.433      983737.058 8    766545.31024
  23034014.526    -3422043.739 6  -2666515.43921
  23147622.245    -2267890.314 6  -1767180.21421
  24064640.4174    -261069.22945    -50258.60061
  20659381.0584    -549569.23947   -428235.78862
 91  4 22 20 16 29.9990000  0  5G18G 2G11G16G19
  20729657.355     1002633.210 8    781269.52324
  23024545.9404   -3471813.52846  -2705296.94361
  23141853.065    -2298207.491 6  -1790803.91321
  24058541.370     -293122.997 5    -75235.53821
  20658125.4644    -556167.32447   -433377.14962
 91  4 22 20 16 44.9990000  0  5G18G 2G11G16G19
  20733274.339     1021644.939 8    796083.80224
  23015086.1124   -3521519.72446  -2744028.89061
  23136109.7144   -2328398.53246  -1814329.32761
  24052466.269     -325050.073 5   -100113.75121
  20656878.7844    -562715.62147   -438479.72362
 91  4 22 20 16 59.9990000  0  5G18G 2G11G16G19
  20736914.831     1040775.535 8    810990.70924
  23005639.495    -3571158.827 6  -2782708.55121
  23130388.362    -2358459.824 6  -1837753.62421
  24046414.105     -356847.174 5   -124890.69121
  20655640.6904    -569210.84147   -443540.93562
 91  4 22 20 17 14.9990000  0  5G18G 2G11G16G19
  20740577.808     1060022.885 8    825988.58324
  22996206.394    -3620732.616 6  -2821337.30621
  23124692.7764   -2388392.85946  -1861078.00961
  24040389.4094    -388516.14245   -149567.78761
  20654416.4644    -575654.67147   -448562.09862
 91  4 22 20 17 29.9990000  0  5G18G 2G11G16G19
  20744262.8084    1079388.89548    841078.91764
  22986785.581    -3670238.987 6  -2859913.53921
  23119019.495    -2418195.479 6  -1884300.76221
  24034386.6204    -420054.83545   -174143.38361
  20653198.4334    -582045.26247   -453541.78162
 91  4 22 20 17 44.9990000  0  5G18G 2G11G16G19
  20747969.753     1098870.048 8    856258.97724
  22977376.081    -3719681.314 6  -2898439.85621
  23113373.8784   -2447870.82946  -1907424.33861
  24028409.6674    -451466.38345   -198619.89661
  20651994.0034    -588386.03347   -458482.64462
 91  4 22 20 17 59.9990000  0  5G18G 2G11G16G19
  20751700.3784    1118471.32348    871532.64364
  22967981.370    -3769054.466 6  -2936912.26521
  23107751.105    -2477413.591 6  -1930444.59521
  24022459.0894    -482745.77245   -222993.43661
  20650798.6054    -594672.08547   -463380.86862
 91  4 22 20 18 14.9990000  0  5G18G 2G11G16G19
  20755454.323     1138195.206 8    886901.84424
  22958599.3314   -3818355.68346  -2975328.65061
  23102153.8554   -2506820.92646  -1953359.32861
  24016532.245     -513889.897 5   -247261.57021
  20649612.8004    -600900.81747   -468234.43462
 91  4 22 20 18 29.9990000  0  5G18G 2G11G16G19
  20759229.3944    1158036.99348    902362.91164
  22949230.2374   -3867589.41546  -3013692.44361
  23096585.292    -2536097.085 6  -1976171.84621
  24010626.9954    -544903.17245   -271427.73861
  20648437.7064    -607076.63047   -473046.75762
 91  4 22 20 18 44.9990000  0  5G18G 2G11G16G19
  20763027.6204    1177995.57248    917914.99064
  22939873.2534   -3916756.53546  -3052004.32461
  23091038.120    -2565242.626 6  -1998882.58121
  24004752.433     -575786.797 5   -295492.88921
  20647271.2694    -613200.47947   -477818.59162
 91  4 22 20 18 59.9990000  0  5G18G 2G11G16G19
  20766847.167     1198072.530 8    933559.32524
  22930529.2924   -3965855.24446  -3090262.89261
  23085517.026    -2594255.636 6  -2021490.04721
  23998901.0654    -606538.81245   -319455.47361
  20646113.9484    -619270.69747   -482548.64262
 91  4 22 20 19 14.9990000  0  5G18G 2G11G16G19
  20770691.144     1218267.648 8    949295.71524
  22921199.4174   -4014885.36646  -3128468.03761
  23080022.339    -2623135.872 6  -2043994.03521
  23993071.4954    -637158.97145   -343315.33461
  20644972.1834    -625287.38547   -487236.97063
 91  4 22 20 19 29.9990000  0  5G18G 2G11G16G19
  20774557.3554    1238585.49548    965127.75164
  22911884.4254   -4063842.16346  -3166616.04261
  23074552.7304   -2651878.41846  -2066390.74861
  23987271.823     -667642.534 5   -367068.74721
  20643837.8394    -631245.98647   -491880.03662
 91  4 22 20 19 44.9990000  0  5G18G 2G11G16G19
  20778447.0584    1259022.21648    981052.39964
  22902580.5264   -4112729.44346  -3204709.88761
  23069107.5734   -2680486.99646  -2088683.05161
  23981494.7844    -697993.28645   -390718.66061
  20642714.8554    -637150.37547   -496480.86562
 91  4 22 20 19 59.9990000  0  5G18G 2G11G16G19
  20782357.6364    1279575.42948    997067.83264
  22893290.5344   -4161549.04446  -3242750.97461
  23063688.7304   -2708963.27746  -2110872.28161
  23975745.2064    -728212.85245   -414266.38161
  20641599.2614    -643002.45647   -501040.93162
 91  4 22 20 20 14.9990000  0  5G18G 2G11G16G19
  20786292.1054    1300251.86848   1013179.27664
  22884015.5424   -4210294.19146  -3280734.06061
  23058293.839    -2737300.305 6  -2132953.00321
  23970022.4564    -758294.51945   -437706.63961
  20640498.7534    -648795.53547   -505555.02162
 91  4 22 20 20 29.9990000  0  5G18G 2G11G16G19
  20790249.0114    1321044.08848   1029380.94163
  22874751.886    -4258972.159 6  -3318664.77521
  23052929.683    -2765505.071 6  -2154930.65821
  23964321.7764    -788245.69045   -461045.21361
  20639403.7224    -654536.99447   -510028.88962
 91  4 22 20 20 44.9990000  0  5G18G 2G11G16G19
  20794228.4174    1341953.99348   1045674.31563
  22865501.9254   -4307580.81546  -3356541.49961
  23047587.542    -2793575.368 6  -2176803.52921
  23958648.0194    -818064.20445   -484280.38461
  20638323.1674    -660224.78447   -514460.93962
 91  4 22 20 20 59.9990000  0  5G18G 2G11G16G19
  20798229.5264    1362978.22348   1062056.76564
  22856264.003    -4356123.424 6  -3394366.73821
  23042271.519    -2821514.416 6  -2198574.13521
  23952997.8154    -847753.18745   -507414.63461
  20637249.3944    -665862.28247   -518853.80362
 91  4 22 20 21 14.9990000  0  5G18G 2G11G16G19
  20802253.1124    1384123.89748   1078533.84763
  22847041.206    -4404592.366 6  -3432134.57721
  23036981.4014   -2849314.42746  -2220236.40261
  23947374.0734    -877305.09945   -530442.07461
  20636189.1514    -671441.95147   -523201.59462
 91  4 22 20 21 29.9990000  0  5G18G 2G11G16G19
  20806299.5034    1405388.14248   1095103.32964
  22837831.7534   -4452990.27846  -3469847.09961
  23031716.870    -2876977.718 6  -2241792.14321
  23941777.565     -906722.299 5   -553364.55321
  20635137.5584    -676966.54147   -527506.47162
 91  4 22 20 21 44.9990000  0  5G18G 2G11G16G19
  20810368.4724    1426771.29348   1111765.45963
  22828633.9254   -4501316.35846  -3507503.62961
  23026477.753    -2904503.480 6  -2263240.71321
  23936206.1284    -936004.05245   -576181.47361
  20634097.4404    -682435.52747   -531768.02262
 91  4 22 20 21 59.9990000  0  5G18G 2G11G16G19
  20814461.6444    1448276.02748   1128522.33263
  22819452.6124   -4549567.81746  -3545102.01161
  23021266.972    -2931888.901 6  -2284579.92221
  23930660.800     -965147.784 5   -598890.85221
  20633065.5974    -687846.45247   -535984.33062
 91  4 22 20 22 14.9990000  0  5G18G 2G11G16G19
  20818574.714     1469894.478 8   1145367.82223
  22810282.651    -4597752.585 6  -3582648.44221
  23016081.5814   -2959141.58946  -2305815.70461
  23925137.9404    -994161.31945   -621498.78861
  20632047.6284    -693207.02447   -540161.40162
 91  4 22 20 22 29.9990000  0  5G18G 2G11G16G19
  20822710.5344    1491624.10548   1162299.93863
  22801125.948    -4645872.759 6  -3620144.54321
  23010920.706    -2986263.406 6  -2326949.51821
  23919636.4404   -1023046.57644   -644006.78561
  20631034.620     -698519.518 7   -544301.01622
 91  4 22 20 22 44.9990000  0  5G18G 2G11G16G19
  20826867.0034    1513468.38748   1179321.39163
  22791981.511    -4693924.790 6  -3657587.52921
  23005784.1984   -3013250.80246  -2347978.58661
  23914166.1444   -1051800.20144   -666412.20861
  20630035.8864    -703780.51347   -548400.49762
 91  4 22 20 22 59.9990000  0  5G18G 2G11G16G19
  20831046.8004    1535431.27648   1196435.25963
  22782851.394    -4741904.142 6  -3694973.89021
  23000675.5114   -3040099.08346  -2368899.24761
  23908722.714    -1080417.492 4   -688711.37321
  20629041.7534    -708985.53547   -552456.35962
 91  4 22 20 23 14.9990000  0  5G18G 2G11G16G19
  20835247.1284    1557505.30148   1213635.74163
  22773734.480    -4789818.390 6  -3732309.53321
  22995592.3004   -3066815.55246  -2389717.20861
  23903301.7534   -1108906.14745   -710910.34561
  20628062.5584    -714142.18047   -556474.52962
 91  4 22 20 23 29.9990000  0  5G18G 2G11G16G19
  20839469.6514    1579694.37748   1230925.86663
  22764628.3394   -4837663.20346  -3769591.03961
  22990534.183    -3093395.841 6  -2410429.04121
  23897906.5114   -1137261.71745   -733005.58261
  20627088.7844    -719246.31347   -560451.77762
 91  4 22 20 23 44.9990000  0  5G18G 2G11G16G19
  20843713.3004    1601998.79148   1248305.86663
  22755536.9484   -4885438.06246  -3806818.05561
  22985500.198    -3119839.274 6  -2431034.23621
  23892535.5504   -1165483.60245   -754996.64561
  20626131.2224    -724297.67347   -564387.90762
 91  4 22 20 23 59.9990000  0  5G18G 2G11G16G19
  20847981.0974    1624420.73248   1265777.44163
  22746458.3474   -4933140.52246  -3843988.66261
  22980494.8234   -3146143.35746  -2451530.85161
  23887190.722    -1193569.351 5   -776881.64021
  20625176.8084    -729293.80247   -568280.99862
 91  4 22 20 24 14.9990000  0  5G18G 2G11G16G19
  20852268.7304    1646958.77148   1283339.48663
  22737395.511    -4980771.813 6  -3881103.78121
  22975517.0974   -3172309.09346  -2471919.66761
  23881869.6364   -1221520.23245   -798661.53761
  20624239.8474    -734235.92147   -572132.00662
 91  4 22 20 24 29.9990000  0  5G18G 2G11G16G19
  20856580.0504    1669611.41648   1300990.82763
  22728344.9254   -5028333.00646  -3918164.30561
  22970564.784    -3198337.356 6  -2492201.35221
  23876578.683    -1249337.248 5   -820337.10121
  20623307.0894    -739125.35447   -575941.96062
 91  4 22 20 24 44.9990000  0  5G18G 2G11G16G19
  20860913.1594    1692383.61748   1318735.33663
  22719310.4174   -5075819.28246  -3955166.44661
  22965635.5504   -3224223.25046  -2512372.12461
  23871311.4254   -1277015.50445   -841904.55461
  20622390.1984    -743957.31747   -579707.12662
 91  4 22 20 24 59.9990000  0  5G18G 2G11G16G19
  20865269.0424    1715272.46648   1336570.73863
  22710285.8084   -5123233.06646  -3992112.09961
  22960736.2454   -3249969.08046  -2532433.74161
  23866071.9484   -1304557.59645   -863365.88961
  20621478.0894    -748734.59547   -583429.68662
 91  4 22 20 25 14.9990000  0  5G18G 2G11G16G19
  20869646.0814    1738275.70248   1354495.27263
  22701273.8314   -5170576.16146  -4029002.66861
  22955865.2534   -3275576.71046  -2552387.67361
  23860857.800    -1331965.709 5   -884722.84621
  20620581.2064    -753458.97047   -587111.02262
 91  4 22 20 25 29.9990000  0  5G18G 2G11G16G19
  20874045.5894    1761394.87548   1372510.14963
  22692282.183    -5217846.816 6  -4065836.80221
  22951019.1754   -3301044.05646  -2572232.29761
  23855665.7614   -1359237.64145   -905973.65461
  20619690.9014    -758128.75247   -590749.81862
 91  4 22 20 25 44.9990000  0  5G18G 2G11G16G19
  20878467.8314    1784633.30348   1390617.94663
  22683301.2454   -5265041.77946  -4102611.95161
  22946200.5424   -3326367.69846  -2591964.93761
  23850500.7764   -1386369.78945   -927115.57561
  20618816.2534    -762740.61447   -594343.48562
 91  4 22 20 25 59.9990000  0  5G18G 2G11G16G19
  20882913.5344    1807990.68648   1408818.44063
  22674333.4874   -5312161.07546  -4139328.13161
  22941408.9094   -3351547.47146  -2611585.47561
  23845364.6204   -1413362.32945   -948148.71461
  20617946.0654    -767294.72747   -597892.14863
 91  4 22 20 26 14.9990000  0  5G18G 2G11G16G19
  20887380.2454    1831465.37348   1427110.33764
  22665382.5584   -5359206.05646  -4175986.41861
  22936644.1754   -3376584.76046  -2631094.98761
  23840256.620    -1440216.915 5   -969074.35021
  20617093.0424    -771792.59947   -601396.98662
 91  4 22 20 26 29.9990000  0  5G18G 2G11G16G19
  20891869.011     1855054.504 8   1445491.40423
  22656442.284    -5406179.258 6  -4212588.73821
  22931905.5264   -3401481.76146  -2650495.18661
  23835175.6514   -1466935.79445   -989894.24661
  20616245.0344    -776236.70947   -604859.93563
 91  4 22 20 26 44.9990000  0  5G18G 2G11G16G19
  20896378.3704    1878751.43648   1463956.47763
  22647516.198    -5453087.226 6  -4249140.25821
  22927193.7534   -3426244.89146  -2669791.08561
  23830111.7374   -1493525.77645  -1010613.71361
  20615411.0974    -780633.79547   -608286.23962
 91  4 22 20 26 59.9990000  0  5G18G 2G11G16G19
  20900908.7064    1902561.41648   1482509.63963
  22638603.8394   -5499924.37046  -4285636.58961
  22922508.855    -3450868.605 6  -2688978.32821
  23825074.7064   -1519981.06945  -1031228.21861
  20614582.9874    -784978.38247   -611671.63562
 91  4 22 20 27 14.9990000  0  5G18G 2G11G16G19
  20905463.3234    1926490.52948   1501155.63163
  22629706.0734   -5546684.27746  -4322072.72661
  22917849.6674   -3475346.41346  -2708051.88461
  23820071.9014   -1546295.27045  -1051732.80861
  20613767.6594    -789264.24447   -615011.27262
 91  4 22 20 27 29.9990000  0  5G18G 2G11G16G19
  20910038.4014    1950535.25047   1519891.71564
  22620822.144    -5593370.270 6  -4358451.28021
  22913218.964    -3499681.348 6  -2727014.11821
  23815090.3474   -1572471.81945  -1072130.12061
  20612961.409     -793494.843 7   -618307.85922
 91  4 22 20 27 44.9990000  0  5G18G 2G11G16G19
  20914636.542     1974695.882 8   1538718.11024
  22611951.4404   -5639981.78046  -4394771.79161
  22908614.597    -3523872.818 6  -2745864.57221
  23810135.1754   -1598510.09545  -1092419.67961
  20612169.2614    -797669.58347   -621560.90963
 91  4 22 20 27 59.9990000  0  5G18G 2G11G16G19
  20919255.4334    1998968.39948   1557631.69363
  22603095.1124   -5686522.43146  -4431037.08161
  22904037.776    -3547924.370 6  -2764605.97921
  23805205.0894   -1624413.71745  -1112604.32061
  20611382.2844    -801792.32847   -624773.44363
 91  4 22 20 28 14.9990000  0  5G18G 2G11G16G19
  20923896.120     2023354.038 7   1576633.41824
  22594251.933    -5732991.002 6  -4467246.21921
  22899489.456    -3571834.526 6  -2783237.21221
  23800301.355    -1650181.492 5  -1132683.11421
  20610609.3474    -805861.81247   -627944.47662
 91  4 22 20 28 29.9990000  0  5G18G 2G11G16G19
  20928557.8784    2047851.78048   1595722.49663
  22585422.972    -5779388.269 6  -4503399.80021
  22894966.0974   -3595603.87746  -2801758.72161
  23795421.5894   -1675813.98545  -1152656.48061
  20609841.9484    -809878.76547   -631074.57863
 91  4 22 20 28 44.9990000  0  5G18G 2G11G16G19
  20933239.8154    2072461.49547   1614898.83063
  22576608.237    -5825714.002 6  -4539497.60621
  22890468.011    -3619232.052 6  -2820170.23521
  23790572.6754   -1701310.90845  -1172524.21661
  20609091.1444    -813843.10547   -634163.67962
 91  4 22 20 28 59.9990000  0  5G18G 2G11G16G19
  20937945.940     2097184.935 7   1634163.77523
  22567806.620    -5871966.172 6  -4575538.12721
  22885999.308    -3642717.034 6  -2838470.16921
  23785747.2304   -1726670.38045  -1192284.84961
  20608347.2924    -817753.04147   -637210.38962
 91  4 22 20 29 14.9990000  0  5G18G 2G11G16G19
  20942670.4254    2122017.42647   1653513.69764
  22559017.1514   -5918149.11046  -4611524.66961
  22881557.1754   -3666063.10146  -2856661.86461
  23780946.0344   -1751896.91745  -1211941.87761
  20607612.089     -821612.961 7   -640218.13122
 91  4 22 20 29 29.9990000  0  5G18G 2G11G16G19
  20947418.5344    2146962.98347   1672951.72663
  22550243.4874   -5964258.68646  -4647454.05761
  22877141.714    -3689265.888 6  -2874741.90121
  23776173.6594   -1776986.29645  -1231492.04161
  20606885.050     -825418.900 7   -643183.81522
 91  4 22 20 29 44.9990000  0  6G18G 2G11G16G19G 6
  20952185.683     2172020.454 7   1692476.95623
  22541482.159    -6010295.718 6  -4683326.92421
  22872754.636    -3712326.178 6  -2892710.91521
  23771422.6204   -1801939.51745  -1250936.09861
  20606174.4954    -829171.70047   -646108.08462
  24180544.4404         -0.38853
 91  4 22 20 29 59.9990000  0  6G18G 2G11G16G19G 6
  20956976.8554    2197191.85147   1712090.96864
  22532735.573    -6056257.923 6  -4719141.49621
  22868394.964    -3735241.540 6  -2910566.99221
  23766701.3944   -1826754.04445  -1270272.07961
  20605467.3864    -832869.09047   -648989.17362
  24173030.3004     -39494.64443
 91  4 22 20 30 14.9990000  0  6G18G 2G11G16G19G 6
  20961788.269     2222474.853 8   1731791.92923
  22524003.1284   -6102147.39946  -4754899.37161
  22864057.831    -3758013.887 6  -2928311.63121
  23762004.183    -1851432.207 5  -1289501.79621
  20604777.8704    -836513.25947   -651828.78562
  24165518.901      -78969.257 3        -0.31731
 91  4 22 20 30 29.9990000  0  6G18G 2G11G16G19G 6
  20966620.261     2247871.557 7   1751581.49423
  22515285.1594   -6147961.60846  -4790598.63061
  22859753.058    -3780640.747 6  -2945942.89321
  23757335.401    -1875971.453 5  -1308623.29821
  20604093.3944    -840101.94747   -654625.17862
  24158010.9094    -118421.95944    -30742.48361
 91  4 22 20 30 44.9990000  0  6G18G 2G11G16G19G 6
  20971475.0114    2273380.50248   1771458.52963
  22506579.831    -6193702.148 6  -4826240.47521
  22855476.573    -3803123.316 6  -2963461.73121
  23752688.7694   -1900373.11545  -1327637.56561
  20603421.9564    -843636.76347   -657379.59062
  24150505.909     -157854.243 3    -61468.75921
 91  4 22 20 30 59.9990000  0  6G18G 2G11G16G19G 6
  20976350.870     2299003.650 8   1791424.54523
  22497889.5504   -6239366.57246  -4861823.00461
  22851226.839    -3825459.102 6  -2980866.18421
  23748077.3154   -1924634.65245  -1346542.64461
  20602759.9564    -847115.17247   -660090.04862
  24143004.4724    -197263.76243    -92177.30461
 91  4 22 20 31 14.9990000  0  6G18G 2G11G16G19G 6
  20981247.995     2324738.694 7   1811477.74923
  22489215.214    -6284957.080 6  -4897347.94821
  22847002.6284   -3847650.12146  -2998157.84061
  23743485.2454   -1948758.54945  -1365340.49061
  20602108.8704    -850539.44447   -662758.32262
  24135510.5584    -236652.93843   -122869.95161
 91  4 22 20 31 29.9990000  0  6G18G 2G11G16G19G 6
  20986168.0814    2350585.93648   1831618.38263
  22480554.167    -6330473.143 6  -4932814.87021
  22842806.472    -3869695.793 6  -3015336.24021
  23738920.1754   -1972744.16445  -1384030.56761
  20601463.784     -853909.348 7   -665384.22922
  24128017.339     -276021.493 3   -153546.59821
 91  4 22 20 31 44.9990000  0  6G18G 2G11G16G19G 6
  20991107.1204    2376550.15847   1851850.17663
  22471906.7064   -6375909.73946  -4968219.89161
  22838640.003    -3891590.848 6  -3032397.27621
  23734382.2304   -1996586.43345  -1402608.95961
  20600837.2144    -857219.61347   -667963.66962
  24120529.4404    -315364.40143   -184203.19861
 91  4 22 20 31 59.9990000  0  6G18G 2G11G16G19G 6
  20996069.7064    2402625.00547   1872168.16263
  22463275.339    -6421272.996 6  -5003567.73621
  22834500.456    -3913341.543 6  -3049345.81821
  23729871.6284   -2020291.69446  -1421080.59061
  20600217.464     -860476.541 7   -670501.54822
  24113049.144     -354688.200 4   -214844.94421
 91  4 22 20 32 14.9990000  0  6G18G 2G11G16G19G 6
  21001053.042     2428808.585 7   1892570.88223
  22454655.081    -6466564.527 6  -5038859.71121
  22830389.5814   -3934949.33246  -3066183.00361
  23725384.878    -2043861.532 6  -1439446.69021
  20599608.761     -863682.109 7   -672999.40322
  24105568.206     -393994.640 4   -245473.15121
 91  4 22 20 32 29.9990000  0  6G18G 2G11G16G19G 6
  21006056.276     2455106.028 7   1913062.31623
  22446053.308    -6511778.814 6  -5074091.48221
  22826306.761    -3956408.629 6  -3082904.49021
  23720928.1754   -2067290.22446  -1457702.82361
  20599005.839     -866830.588 7   -675452.77122
  24098099.2694    -433278.29744   -276083.60661
 91  4 22 20 32 44.9990000  0  6G18G 2G11G16G19G 6
  21011082.534     2481513.869 7   1933639.77723
  22437461.3624   -6556918.97546  -5109265.50961
  22822250.261    -3977722.394 6  -3099512.57421
  23716496.151    -2090581.081 6  -1475851.55021
  20598418.878     -869925.265 7   -677864.22122
  24090626.3234    -472542.56044   -306678.98861
 91  4 22 20 32 59.9990000  0  6G18G 2G11G16G19G 6
  21016128.144     2508034.148 7   1954304.85323
  22428886.909    -6601982.768 6  -5144380.02021
  22818222.183    -3998888.210 6  -3116005.37721
  23712090.2694   -2113731.71545  -1493891.00461
  20597838.409     -872964.026 7   -680232.09622
  24083154.7534    -511785.08744   -337257.38661
 91  4 22 20 33 14.9990000  0  6G18G 2G11G16G19G 6
  21021195.605     2534663.829 7   1975055.17923
  22420325.0734   -6646973.12746  -5179437.32061
  22814223.1514   -4019908.84546  -3132385.05861
  23707710.4804   -2136745.30045  -1511823.67961
  20597273.355     -875949.733 7   -682558.63322
  24075690.683     -551009.137 5   -367821.39921
 91  4 22 20 33 29.9990000  0  6G18G 2G11G16G19G 6
  21026283.784     2561403.369 7   1995891.09923
  22411777.698    -6691889.484 6  -5214436.94821
  22810251.003    -4040783.600 6  -3148651.05221
  23703358.0654   -2159620.84045  -1529648.78261
  20596712.589     -878881.794 7   -684843.36722
  24068231.542     -590214.115 5   -398370.52921
 91  4 22 20 33 44.9990000  0  6G18G 2G11G16G19G 6
  21031393.964     2588250.754 7   2016811.06823
  22403244.3554   -6736733.23646  -5249380.01161
  22806305.034    -4061513.878 6  -3164804.47021
  23699034.558    -2182360.307 5  -1547367.86221
  20596167.401     -881762.077 7   -687087.75522
  24060772.4094    -629401.80445   -428906.25161
 91  4 22 20 33 59.9990000  0  6G18G 2G11G16G19G 6
  21036522.730     2615204.887 7   2037814.20123
  22394723.3864   -6781505.16446  -5284267.10261
  22802388.503    -4082100.347 6  -3180845.83521
  23694728.7924   -2204964.24245  -1564981.33261
  20595627.987     -884591.357 7   -689292.40022
  24053320.222     -668573.053 5   -459429.10921
 91  4 22 20 34 14.9990000  0  6G18G 2G11G16G19G 6
  21041672.7694    2642272.08547   2058905.45463
  22386218.823    -6826198.841 6  -5319093.23521
  22798498.698    -4102536.506 6  -3196770.06721
  23690454.230    -2227426.400 5  -1582484.32321
  20595101.284     -887363.190 7   -691452.28722
  24045871.2764    -707721.69045   -489934.37161
 91  4 22 20 34 29.9990000  0  6G18G 2G11G16G19G 6
  21046845.026     2669447.933 7   2080081.36023
  22377727.503    -6870818.493 6  -5353861.67321
  22794637.776    -4122826.495 6  -3212580.40721
  23686207.2224   -2249750.92745  -1599880.07161
  20594580.2224    -890081.74547   -693570.64762
  24038421.1364    -746852.08145   -520425.42261
 91  4 22 20 34 44.9990000  0  6G18G 2G11G16G19G 6
  21052036.784     2696733.307 7   2101342.61624
  22369252.433    -6915362.729 6  -5388571.35221
  22790804.245    -4142968.949 6  -3228275.78321
  23681985.6364   -2271936.65745  -1617167.64361
  20594077.7224    -892745.95347   -695646.65662
  24030979.737     -785963.158 5   -550901.39721
 91  4 22 20 34 59.9990000  0  6G18G 2G11G16G19G 6
  21057250.7534    2724130.23047   2122690.78163
  22360788.9644   -6959829.41346  -5423220.59061
  22786999.4804   -4162961.45246  -3243854.31761
  23677788.4174   -2293981.51645  -1634345.45861
  20593578.7614    -895353.70247   -697678.67362
  24023538.855     -825052.660 5   -581360.62121
 91  4 22 20 35 14.9990000  0  6G18G 2G11G16G19G 6
  21062485.3864    2751637.82447   2144125.19863
  22352342.5814   -7004219.37546  -5457810.05261
  22783223.3394   -4182804.69146  -3259316.53361
  23673622.8394   -2315885.88445  -1651413.78961
  20593095.300     -897905.665 7   -699667.22522
  24016107.5344    -864121.46945   -611803.66661
 91  4 22 20 35 29.9990000  0  6G18G 2G11G16G19G 6
  21067739.8234    2779251.80247   2165642.50063
  22343910.2064   -7048536.48746  -5492342.75161
  22779475.909    -4202502.487 6  -3274665.42721
  23669479.878    -2337653.520 6  -1668375.58321
  20592617.0264    -900405.95247   -701615.50362
  24008676.3154    -903173.83345   -642233.91061
 91  4 22 20 35 44.9990000  0  6G18G 2G11G16G19G 6
  21073014.737     2806977.105 7   2187246.56023
  22335490.401    -7092775.577 6  -5526814.64521
  22775756.730    -4222049.396 6  -3289896.73521
  23665363.761    -2359279.635 6  -1685227.10421
  20592154.339     -902849.245 7   -703519.38722
  24001247.034     -942204.666 5   -672647.38521
 91  4 22 20 35 59.9990000  0  6G18G 2G11G16G19G 6
  21078313.315     2834810.859 7   2208935.11023
  22327086.4014   -7136938.94846  -5561227.55061
  22772064.003    -4241447.919 6  -3305012.42821
  23661277.0264   -2380766.59846  -1701970.18961
  20591696.3864    -905238.12047   -705380.84762
  23993824.1124    -981216.43745   -703046.03361
 91  4 22 20 36 14.9990000  0  6G18G 2G11G16G19G 6
  21083630.222     2862754.436 7   2230709.25523
  22318697.1674   -7181025.26746  -5595580.40361
  22768401.058    -4260696.557 6  -3320011.32721
  23657213.589    -2402113.079 6  -1718603.83121
  20591254.9334    -907571.20847   -707198.84662
  23986402.167    -1020208.165 5   -733429.02021
 91  4 22 20 36 29.9990000  0  6G18G 2G11G16G19G 6
  21088968.042     2890803.474 7   2252565.56223
  22310320.503    -7225038.841 6  -5629876.56921
  22764766.050    -4279799.414 6  -3334896.62621
  23653178.5344   -2423323.33846  -1735131.31361
  20590818.6204    -909852.87347   -708976.77362
  23978987.6364   -1059183.99645   -763799.64661
 91  4 22 20 36 44.9990000  0  6G18G 2G11G16G19G 6
  21094326.237     2918960.429 7   2274505.96523
  22301960.089    -7268976.660 6  -5664113.71121
  22761159.636    -4298753.503 6  -3349666.00721
  23649168.605    -2444394.583 6  -1751550.47421
  20590397.2064    -912080.40347   -710712.51562
  23971573.7064   -1098141.01445   -794155.58461
 91  4 22 20 36 59.9990000  0  6G18G 2G11G16G19G 6
  21099703.612     2947224.304 7   2296529.69823
  22293613.2454   -7312839.38846  -5698292.35361
  22757581.7304   -4317559.50946  -3364319.99861
  23645183.2064   -2465327.37445  -1767861.77061
  20589981.3944    -914254.44947   -712406.58562
  23964163.0504   -1137080.43145   -824497.82061
 91  4 22 20 37 14.9990000  0  6G18G 2G11G16G19G 6
  21105104.0344    2975594.89347   2318636.54863
  22285280.706    -7356627.317 6  -5732412.69221
  22754030.987    -4336217.322 6  -3378858.50321
  23641228.6204   -2486121.97345  -1784065.38861
  20589580.1754    -916375.14547   -714059.08362
  23956756.253    -1176002.372 5   -854826.42421
 91  4 22 20 37 29.9990000  0  6G18G 2G11G16G19G 6
  21110521.323     3004074.932 7   2340828.71723
  22276963.065    -7400337.296 6  -5766472.32421
  22750509.331    -4354723.804 6  -3393279.09821
  23637296.8234   -2506775.33545  -1800158.93261
  20589185.3314    -918439.62947   -715667.77762
  23949351.0424   -1214903.74345   -885139.05061
 91  4 22 20 37 44.9990000  0  6G18G 2G11G16G19G 6
  21115963.730     3032660.344 7   2363102.97123
  22268659.1514   -7443972.94346  -5800474.00161
  22747015.7924   -4373082.49746  -3407584.53661
  23633390.753    -2527290.856 5  -1816145.08721
  20588805.6054    -920451.36947   -717235.37262
  23941951.378    -1253788.600 5   -915438.75121
 91  4 22 20 37 59.9990000  0  6G18G 2G11G16G19G 6
  21121422.480     3061355.410 7   2385462.68923
  22260369.925    -7487529.810 6  -5834414.31021
  22743549.2374   -4391288.93546  -3421771.32961
  23629516.323    -2547664.338 5  -1832020.54821
  20588430.2064    -922406.02847   -718758.49362
  23934559.2614   -1292652.53545   -945722.17861
 91  4 22 20 38 14.9990000  0  6G18G 2G11G16G19G 6
  21126904.065     3090156.230 7   2407904.80223
  22252096.495    -7531011.547 7  -5868296.07422
  22740114.6594   -4409346.70746  -3435842.28661
  23625665.386    -2567899.546 5  -1847788.28521
  20588070.4174    -924307.36647   -720240.06062
  23927164.534    -1331499.364 5   -975992.26321
 91  4 22 20 38 29.9990000  0  6G18G 2G11G16G19G 6
  21132404.4644    3119063.83047   2430430.11163
  22243836.1284   -7574416.86346  -5902118.28561
  22736706.597    -4427254.284 6  -3449796.20121
  23621842.0344   -2587995.38745  -1863447.39461
  20587717.4874    -926154.09847   -721679.07562
  23919775.5814   -1370327.72345  -1006247.93961
 91  4 22 20 38 44.9990000  0  6G18G 2G11G16G19G 6
  21137924.089     3148073.272 7   2453034.79923
  22235589.901    -7617750.172 7  -5935884.38922
  22733327.925    -4445016.195 6  -3463636.60921
  23618042.831    -2607955.858 5  -1879001.01221
  20587377.2224    -927950.86647   -723079.15962
  23912388.0734   -1409142.45245  -1036493.03361
 91  4 22 20 38 59.9990000  0  6G18G 2G11G16G19G 6
  21143466.2764    3177189.80747   2475722.91563
  22227359.3004   -7661006.51147  -5969590.50962
  22729975.2694   -4462627.15946  -3477359.39761
  23614273.011    -2627776.206 6  -1894445.45821
  20587044.6054    -929692.61947   -724436.37462
  23905005.7614   -1447938.63745  -1066723.68961
 91  4 22 20 39 14.9990000  0  6G18G 2G11G16G19G 6
  21149025.4014    3206413.58847   2498494.62063
  22219142.706    -7704185.261 7  -6003236.16922
  22726652.1674   -4480086.64746  -3490964.15161
  23610527.2304   -2647455.83246  -1909780.22561
  20586726.3084    -931378.81747   -725750.30062
  23897629.901    -1486715.679 5  -1096939.36521
 91  4 22 20 39 29.9990000  0  6G18G 2G11G16G19G 6
  21154608.534     3235738.773 7   2521345.31523
  22210938.8474   -7747291.80346  -6036825.57562
  22723359.347    -4497399.892 6  -3504454.95321
  23606807.4014   -2667000.12046  -1925009.54061
  20586413.5734    -933014.76347   -727025.06762
  23890251.8004   -1525479.29845  -1127144.62961
 91  4 22 20 39 44.9990000  0  6G18G 2G11G16G19G 6
  21160207.9094    3265171.38347   2544279.74463
  22202750.5114   -7790319.93746  -6070353.85462
  22720092.5654   -4514560.71846  -3517826.98661
  23603116.1204   -2686402.98246  -1940128.65561
  20586113.5034    -934594.42747   -728255.98262
  23882879.690    -1564223.326 5  -1157334.63221
 91  4 22 20 39 59.9990000  0  6G18G 2G11G16G19G 6
  21165830.769     3294711.228 7   2567297.71523
  22194577.8554   -7833269.63746  -6103821.06162
  22716856.5344   -4531568.97446  -3531080.13861
  23599449.5894   -2705664.43546  -1955137.58461
  20585820.2844    -936117.86447   -729443.08062
  23875509.6984   -1602947.84445  -1187509.40961
 91  4 22 20 40 14.9990000  0  6G18G 2G11G16G19G 6
  21171470.9254    3324357.50847   2590398.61963
  22186419.3784   -7876141.44947  -6137227.54662
  22713647.2844   -4548425.09746  -3544214.74361
  23595810.5194   -2724785.15146  -1970036.85261
  20585545.1754    -937585.67747   -730586.83662
  23868142.995    -1641653.699 5  -1217669.65321
 91  4 22 20 40 29.9990000  0  6G18G 2G11G16G19G 6
  21177132.042     3354103.999 7   2613577.63023
  22178274.519    -7918941.403 6  -6170578.05522
  22710468.0584   -4565134.99746  -3557235.40961
  23592198.4804   -2743771.02446  -1984831.04161
  20585272.3234    -939003.83947   -731691.90262
  23860781.3084   -1680346.81645  -1247819.97961
 91  4 22 20 40 44.9990000  0  6G18G 2G11G16G19G 6
  21182812.9404    3383958.05447   2636840.43763
  22170144.9404   -7961661.84347  -6203866.59562
  22707317.9954   -4581691.02546  -3570136.17761
  23588615.151    -2762614.591 6  -1999514.35421
  20585014.1904    -940364.76147   -732752.35962
  23853420.972    -1719019.776 5  -1277954.61421
 91  4 22 20 40 59.9990000  0  6G18G 2G11G16G19G 6
  21188515.026     3413919.390 7   2660186.84823
  22162030.933    -8004302.814 6  -6237093.21021
  22704198.4874   -4598093.00246  -3582916.90761
  23585052.706    -2781315.832 5  -2014086.76021
  20584763.3154    -941668.65847   -733768.38862
  23846065.683    -1757672.845 5  -1308073.72721
 91  4 22 20 41 14.9990000  0  6G18G 2G11G16G19G 6
  21194236.9014    3443985.18547   2683614.65363
  22153931.4564   -8046866.65847  -6270259.74462
  22701104.4174   -4614343.26846  -3595579.41361
  23581522.0194   -2799877.11645  -2028550.10461
  20584530.1594    -942917.89847   -734741.82562
  23838715.8474   -1796308.44945  -1338179.23761
 91  4 22 20 41 29.9990000  0  6G18G 2G11G16G19G 6
  21199976.4804    3474156.07447   2707124.35063
  22145846.0814   -8089352.79147  -6303365.70962
  22698042.0814   -4630441.06946  -3608123.12061
  23578016.042    -2818297.629 5  -2042903.77321
  20584303.3474    -944111.80847   -735672.15062
  23831366.4644   -1834925.93345  -1368270.63461
 91  4 22 20 41 44.9990000  0  6G18G 2G11G16G19G 6
  21205739.292     3504432.132 7   2730715.99823
  22137777.4564   -8131760.37447  -6336410.47361
  22695005.9564   -4646385.64846  -3620547.43961
  23574539.8864   -2836577.04245  -2057147.50461
  20584086.4254    -945249.63047   -736558.77362
  23824020.206    -1873524.913 5  -1398347.60921
 91  4 22 20 41 59.9990000  0  6G18G 2G11G16G19G 6
  21211519.0344    3534810.36547   2754387.25563
  22129719.6284   -8174092.70647  -6369396.60262
  22692001.1124   -4662180.17946  -3632854.82861
  23571085.737    -2854718.326 5  -2071283.58121
  20583875.7534    -946334.80047   -737404.35862
  23816678.2064   -1912108.65445  -1428412.71361
 91  4 22 20 42 14.9990000  0  6G18G 2G11G16G19G 6
  21217320.2614    3565293.80747   2778140.50163
  22121681.753    -8216346.222 7  -6402321.28822
  22689025.5584   -4677821.04846  -3645042.48561
  23567661.0114   -2872718.12145  -2085309.42061
  20583683.2144    -947363.83947   -738206.20762
  23809339.6674   -1950673.72145  -1458463.24961
 91  4 22 20 42 29.9990000  0  6G18G 2G11G16G19G 6
  21223140.7614    3595881.11747   2801974.67863
  22113653.839    -8258521.931 7  -6435185.38522
  22686078.5034   -4693309.16046  -3657111.11061
  23564261.1904   -2890577.39945  -2099225.76861
  20583495.2144    -948337.68847   -738965.05762
  23802003.9174   -1989221.32245  -1488500.19961
 91  4 22 20 42 44.9990000  0  6G18G 2G11G16G19G 6
  21228982.9174    3626572.75547   2825890.14463
  22105642.878    -8300619.220 7  -6467988.34622
  22683157.8864   -4708643.78846  -3669060.13961
  23560891.1754   -2908295.78645  -2113032.32861
  20583323.0194    -949255.81747   -739680.47862
  23794671.628    -2027750.971 5  -1518523.13821
 91  4 22 20 42 59.9990000  0  6G18G 2G11G16G19G 6
  21234841.4874    3657368.47147   2849886.72963
  22097648.081    -8342637.806 7  -6500730.00222
  22680269.9564   -4723824.74546  -3680889.42561
  23557545.886    -2925873.243 5  -2126729.05921
  20583159.8084    -950118.08447   -740352.37462
  23787341.6444   -2066262.72945  -1548532.15661
 91  4 22 20 43 14.9990000  0  6G18G 2G11G16G19G 6
  21240722.5114    3688271.10047   2873966.58863
  22089666.792    -8384574.817 6  -6533408.09322
  22677410.2694   -4738848.96446  -3692596.57161
  23554228.417    -2943306.784 5  -2140313.65021
  20583006.3154    -950921.42947   -740978.36362
  23780018.6834   -2104753.47045  -1578524.79261
 91  4 22 20 43 29.9990000  0  6G18G 2G11G16G19G 6
  21246622.1904    3719275.84647   2898126.05063
  22081701.339    -8426434.813 7  -6566026.15222
  22674582.0424   -4753720.84946  -3704185.02461
  23550937.1594   -2960600.92645  -2153789.63561
  20582863.2374    -951670.48047   -741562.03862
  23772697.331    -2143227.947 5  -1608504.73521
 91  4 22 20 43 44.9990000  0  6G18G 2G11G16G19G 6
  21252542.5654    3750381.57147   2922364.16863
  22073748.7064   -8468218.64146  -6598584.90062
  22671780.3624   -4768441.32846  -3715655.50061
  23547672.5194   -2977756.43845  -2167157.57361
  20582730.9014    -952366.20347   -742104.16262
  23765377.886    -2181687.241 5  -1638472.87821
 91  4 22 20 43 59.9990000  0  6G18G 2G11G16G19G 6
  21258480.6284    3781588.61647   2946681.27463
  22065813.198    -8509925.690 6  -6631083.76922
  22669008.0424   -4783009.71846  -3727007.45761
  23544436.901    -2994772.818 5  -2180417.10121
  20582605.5194    -953007.98247   -742604.25262
  23758060.331    -2220130.923 5  -1668428.84021
 91  4 22 20 44 14.9990000  0  6G18G 2G11G16G19G 6
  21264439.0894    3812898.61047   2971078.57163
  22057890.753    -8551554.140 6  -6663521.45622
  22666265.0504   -4797424.12946  -3738239.43561
  23541222.8784   -3011648.21446  -2193566.76761
  20582497.5424    -953594.13247   -743061.00062
  23750747.3154   -2258557.24845  -1698371.26861
 91  4 22 20 44 29.9990000  0  6G18G 2G11G16G19G 6
  21270416.4094    3844309.23747   2995554.28863
  22049985.0264   -8593105.92047  -6695899.32362
  22663552.4404   -4811686.43746  -3749352.88561
  23538038.9174   -3028384.56645  -2206608.08761
  20582397.4334    -954126.52347   -743475.85362
  23743440.292    -2296968.174 5  -1728301.71121
 91  4 22 20 44 44.9990000  0  6G18G 2G11G16G19G 6
  21276413.331     3875823.518 7   3020110.78923
  22042091.4484   -8634577.80946  -6728215.00662
  22660866.5584   -4825793.35646  -3760345.26161
  23534881.6904   -3044978.96846  -2219538.79061
  20582305.9334    -954601.96847   -743846.32662
  23736134.339    -2335360.713 5  -1758217.80321
 91  4 22 20 44 59.9990000  0  6G18G 2G11G16G19G 6
  21282429.620     3907437.438 7   3044744.90123
  22034215.698    -8675973.662 7  -6760471.40622
  22658211.4954   -4839748.67346  -3771219.49561
  23531748.159    -3061435.326 5  -2232361.93521
  20582222.6514    -955024.38947   -744175.49162
  23728830.6594   -2373738.95745  -1788122.76361
 91  4 22 20 45 14.9990000  0  6G18G 2G11G16G19G 6
  21288464.370     3939153.268 7   3069458.45923
  22026352.269    -8717290.545 6  -6792666.27222
  22655584.5194   -4853549.38846  -3781973.26961
  23528647.0424   -3077751.10846  -2245075.54261
  20582154.8084    -955390.96647   -744461.13562
  23721529.7064   -2412099.86344  -1818014.23861
 91  4 22 20 45 29.9990000  0  6G18G 2G11G16G19G 6
  21294519.753     3970969.475 7   3094250.18523
  22018505.7764   -8758529.68247  -6824800.57262
  22652988.300    -4867196.794 6  -3792607.57621
  23525565.417    -3093927.424 5  -2257680.48321
  20582094.5344    -955702.92347   -744704.21762
  23714231.8314   -2450445.09744  -1847893.47861
 91  4 22 20 45 44.9990000  0  6G18G 2G11G16G19G 6
  21300592.050     4002889.565 7   3119122.91523
  22010672.0034   -8799687.47247  -6856871.45062
  22650420.3474   -4880687.07346  -3803119.44861
  23522515.0034   -3109960.38146  -2270173.68461
  20582048.6054    -955956.73447   -744901.99562
  23706940.7064   -2488770.91944  -1877757.60061
 91  4 22 20 45 59.9990000  0  6G18G 2G11G16G19G 6
  21306686.034     4034907.777 7   3144072.05323
  22002854.534    -8840769.596 7  -6888883.42522
  22647880.8234   -4894025.80546  -3813513.22861
  23519490.5504   -3125855.46945  -2282559.47261
  20582008.6204    -956158.08847   -745058.90462
  23699650.6514   -2527083.15244  -1907611.13761
 91  4 22 20 46 14.9990000  0  6G18G 2G11G16G19G 6
  21312796.5034    4067023.08847   3169096.88563
  21995052.534    -8881776.858 7  -6920836.99622
  22645370.8314   -4907213.61646  -3823789.39861
  23516490.3314   -3141613.65945  -2294838.60161
  20581982.2764    -956307.62047
  23692359.2844   -2565382.59944  -1937454.70861
 91  4 22 20 46 29.9990000  0  6G18G 2G11G16G19G 6
  21318928.5264    4099237.57747   3194198.98963
  21987262.511    -8922706.540 6  -6952730.17122
  22642893.714    -4920247.973 6  -3833946.00421
  23513518.7614   -3157232.95845  -2307009.49461
  20581962.5814    -956402.81947
  23685075.9644   -2603666.80245  -1967286.41661
 91  4 22 20 46 44.9990000  0  6G18G 2G11G16G19G 6
  21325075.636     4131549.058 7   3219376.66523
  21979489.4404   -8963561.01647  -6984564.71462
  22640440.2454   -4933131.11146  -3843984.77361
  23510575.940    -3172715.014 5  -2319073.44221
  20581955.8084    -956445.96747
  23677794.136    -2641938.152 5  -1997108.11221
 91  4 22 20 46 59.9990000  0  6G18G 2G11G16G19G 6
  21331245.456     4163960.100 7   3244631.93423
  21971727.730    -9004337.431 6  -7016338.44422
  22638018.6124   -4945860.13046  -3853903.44761
  23507653.175    -3188057.507 5  -2331028.65021
  20581955.5734    -956434.42547
  23670515.050    -2680194.001 5  -2026917.70221
 91  4 22 20 47 14.9990000  0  6G18G 2G11G16G19G 6
  21337430.948     4196470.345 7   3269964.49223
  21963985.1054   -9045035.33347  -7048050.99662
  22635624.7144   -4958434.68846  -3863701.77761
  23504758.6204   -3203260.17645  -2342874.89861
  20581969.4644    -956367.85747
  23663236.753    -2718434.232 5  -2056715.14521
 91  4 22 20 47 29.9990000  0  6G18G 2G11G16G19G 6
  21343637.495     4229081.599 7   3295375.76622
  21956254.175    -9085653.015 7  -7079701.02821
  22633260.933    -4970852.992 6  -3873378.32921
  23501896.026    -3218321.239 5  -2354610.80621
  20581991.8554    -956244.27747
  23655963.730    -2756656.973 5  -2086498.95621
 91  4 22 20 47 44.9990000  0  6G18G 2G11G16G19G 6
  21349860.7224    4261790.84947   3320863.40663
  21948540.097    -9126193.107 7  -7111290.63422
  22630929.1514   -4983117.61546  -3882935.14161
  23499054.1284   -3233243.25345  -2366238.38561
  20582027.003     -956066.547 7
  23648690.7614   -2794865.12345  -2116271.39861
 91  4 22 20 47 59.9990000  0  6G18G 2G11G16G19G 6
  21356105.0504    4294596.11547   3346425.85063
  21940841.1204   -9166657.32247  -7142821.06262
  22628623.5424   -4995230.06446  -3892373.37861
  23496242.0974   -3248027.92445  -2377758.92761
  20582067.0504    -955836.31547
  23641423.644    -2833060.344 5  -2146033.77521
 91  4 22 20 48 14.9990000  0  6G18G 2G11G16G19G 6
  21362363.237     4327494.689 7   3372061.00623
  21933152.386    -9207048.165 7  -7174294.37722
  22626347.6754   -5007192.88746  -3901695.02061
  23493455.417    -3262677.908 5  -2389174.52321
  20582125.659     -955556.107 7   -744589.91422
  23634158.1834   -2871245.36845  -2175788.18461
 91  4 22 20 48 29.9990000  0  6G18G 2G11G16G19G 6
  21368642.1834    4360486.90647   3397769.12563
  21925482.8784   -9247364.90747  -7205709.89462
  22624099.9564   -5019005.55446  -3910899.66461
  23490690.6904   -3277192.83045  -2400484.87661
  20582183.8004    -955225.49447   -744332.30262
  23626893.464    -2909419.777 5  -2205534.33821
 91  4 22 20 48 44.9990000  0  6G18G 2G11G16G19G 6
  21374938.7614    4393576.66447   3423553.26563
  21917823.737    -9287603.583 7  -7237064.63622
  22621880.5504   -5030663.79346  -3919983.97361
  23487955.2224   -3291568.77045  -2411686.94361
  20582260.6904    -954840.23747   -744032.10762
  23619632.9094   -2947579.37845  -2235268.95261
 91  4 22 20 48 59.9990000  0  6G18G 2G11G16G19G 6
  21381254.1514    4426763.05747   3449412.69563
  21910182.5504   -9327764.78447  -7268358.97662
  22619692.1594   -5042168.12946  -3928948.35861
  23485247.894    -3305806.189 5  -2422781.07721
  20582340.503     -954400.898 7   -743689.78422
  23612371.519    -2985724.961 5  -2264992.64121
 91  4 22 20 49 14.9990000  0  6G18G 2G11G16G19G 6
  21387589.511     4460046.908 7   3475348.05523
  21902556.1444   -9367847.27647  -7299591.99062
  22617531.3154   -5053517.39646  -3937791.91561
  23482563.9174   -3319903.81545  -2433766.26661
  20582438.2454    -953906.38147   -743304.45362
  23605114.519    -3023855.403 5  -2294704.54221
 91  4 22 20 49 29.9990000  0  6G18G 2G11G16G19G 6
  21393942.237     4493432.815 7   3501362.95923
  21894941.925    -9407846.115 7  -7330759.83822
  22615401.9954   -5064706.66946  -3946510.78661
  23479907.800    -3333856.846 5  -2444638.79021
  20582541.745     -953351.790 7   -742872.32022
  23597862.4174   -3061965.97845  -2324400.95561
 91  4 22 20 49 44.9990000  0  6G18G 2G11G16G19G 6
  21400313.9334    4526914.75547   3527452.68763
  21887345.581    -9447767.161 7  -7361867.02922
  22613302.1204   -5075741.66146  -3955109.44461
  23477282.565    -3347671.393 6  -2455403.39321
  20582660.8004    -952742.84247   -742397.82562
  23590615.8944   -3100062.53345  -2354086.44861
 91  4 22 20 49 59.9990000  0  6G18G 2G11G16G19G 6
  21406703.1054    4560492.86247   3553617.34863
  21879762.6514   -9487610.15247  -7392913.43862
  22611231.1284   -5086621.86546  -3963587.48661
  23474679.792    -3361346.754 6  -2466059.55221
  20582784.120     -952079.239 7   -741880.74422
  23583368.5114   -3138144.82045  -2383760.83861
 91  4 22 20 50 14.9990000  0  6G18G 2G11G16G19G 6
  21413112.8554    4594173.58547   3579861.96863
  21872198.925    -9527368.468 7  -7423893.81422
  22609192.9954   -5097340.65746  -3971939.76861
  23472103.362    -3374876.482 6  -2476602.21321
  20582924.480     -951354.498 7   -741316.02222
  23576124.6984   -3176206.39045  -2413419.08061
 91  4 22 20 50 29.9990000  0  6G18G 2G11G16G19G 6
  21419539.5894    4627948.60247   3606180.06563
  21864646.8704   -9567050.11047  -7454814.50662
  22607182.0654   -5107906.24846  -3980172.65661
  23469555.362    -3388268.893 6  -2487037.87921
  20583069.120     -950576.699 7   -740709.96122
  23568885.183    -3214255.495 6  -2443067.62721
 91  4 22 20 50 44.9990000  0  6G18G 2G11G16G19G 6
  21425984.2224    4661816.00547   3632570.15263
  21857110.605    -9606656.568 7  -7485676.56722
  22605200.2304   -5118319.95146  -3988287.20061
  23467032.581    -3401525.743 6  -2497367.91621
  20583230.417     -949747.267 7   -740063.66122
  23561644.5654   -3252293.63146  -2472707.60661
 91  4 22 20 50 59.9990000  0  6G18G 2G11G16G19G 6
  21432449.058     4695780.227 7   3659035.69223
  21849588.2064   -9646183.18447  -7516476.43662
  22603247.9564   -5128577.07246  -3996279.72661
  23464536.925    -3414642.323 5  -2507588.64121
  20583395.1284    -948861.47947   -739373.45162
  23554411.0814   -3290316.09946  -2502335.37861
 91  4 22 20 51 14.9990000  0  6G18G 2G11G16G19G 6
  21438928.573     4729838.451 7   3685574.46623
  21842079.9564   -9685632.64047  -7547216.18462
  22601325.2694   -5138680.43846  -4004152.44661
  23462067.753    -3427621.347 5  -2517702.20321
  20583577.370     -947922.187 7   -738641.54422
  23547176.644    -3328325.972 6  -2531953.32521
 91  4 22 20 51 29.9990000  0  6G18G 2G11G16G19G 6
  21445428.7694    4763993.91747   3712189.00963
  21834590.5344   -9725001.05047  -7577892.77162
  22599433.7374   -5148625.98646  -4011902.19261
  23459625.5654   -3440459.05545  -2527705.62561
  20583764.4404    -946925.55047   -737864.95762
  23539948.9874   -3366319.23646  -2561558.33561
 91  4 22 20 51 44.9990000  0  6G18G 2G11G16G19G 6
  21451946.3944    4798243.72247   3738877.07663
  21827112.065    -9764291.151 7  -7608508.34022
  22597570.3784   -5158416.56246  -4019531.17861
  23457207.4644   -3453158.13445  -2537601.03761
  20583967.0344    -945874.43647   -737045.91562
  23532720.323    -3404299.014 6  -2591152.85121
 91  4 22 20 51 59.9990000  0  6G18G 2G11G16G19G 6
  21458481.644     4832585.419 7   3765636.75022
  21819650.5734   -9803505.07847  -7639064.55162
  22595735.3704   -5168054.22946  -4027041.02461
  23454815.3084   -3465720.74945  -2547390.11961
  20584177.0344    -944770.97147   -736186.08462
  23525493.4564   -3442267.35946  -2620738.43161
 91  4 22 20 52 14.9990000  0  6G18G 2G11G16G19G 6
  21465035.128     4867025.064 7   3792472.73823
  21812204.4644   -9842636.63647  -7669556.59362
  22593930.815    -5177532.647 6  -4034426.77621
  23452454.175    -3478140.779 5  -2557068.08621
  20584397.855     -943608.734 7   -735280.45922
  23518272.1284   -3480218.19745  -2650310.39961
 91  4 22 20 52 29.9990000  0  6G18G 2G11G16G19G 6
  21471606.1444    4901556.72047   3819380.41262
  21804771.5424   -9881691.43047  -7699988.80262
  22592157.4334   -5186857.47946  -4041692.84361
  23450115.120    -3490424.146 5  -2566639.56121
  20584626.6514    -942393.49747   -734333.53462
  23511052.8084   -3518157.31345  -2679873.20561
 91  4 22 20 52 44.9990000  0  6G18G 2G11G16G19G 6
  21478196.0344    4936186.02547   3846364.19762
  21797354.3554   -9920663.82447  -7730356.81562
  22590414.198    -5196022.913 6  -4048834.70921
  23447803.526    -3502565.150 5  -2576100.12721
  20584872.659     -941119.332 7   -733340.69522
  23503836.7614   -3556078.97545  -2709422.41761
 91  4 22 20 52 59.9990000  0  6G18G 2G11G16G19G 6
  21484802.9404    4970907.33947   3873419.67363
  21789955.5734   -9959558.93647  -7760664.60462
  22588699.2374   -5205034.12246  -4055856.40061
  23445519.1514   -3514569.04245  -2585453.84361
  20585121.612     -939791.484 7   -732306.01822
  23496620.8554   -3593988.50045  -2738962.18161
 91  4 22 20 53 14.9990000  0  6G18G 2G11G16G19G 6
  21491427.761     5005718.958 7   3900545.50022
  21782567.0894   -9998378.09447  -7790913.21662
  22587013.0584   -5213892.52546  -4062759.02261
  23443261.8004   -3526437.21045  -2594701.80961
  20585388.073     -938411.404 7   -731230.64722
  23489410.042    -3631887.289 5  -2768493.56721
 91  4 22 20 53 29.9990000  0  6G18G 2G11G16G19G 6
  21498071.0194    5040627.18247   3927746.62663
  21775196.6444  -10037114.89847  -7821097.64562
  22585358.0654   -5222591.66446  -4069537.54361
  23441032.1284   -3538163.41345  -2603839.15161
  20585657.948     -936972.645 7   -730109.55022
  23482203.3704   -3669769.06945  -2798011.71961
 91  4 22 20 53 44.9990000  0  6G18G 2G11G16G19G 6
  21504730.9804    5075625.25047   3955017.73662
  21767838.4334  -10075775.68547  -7851222.83962
  22583732.1514   -5231137.80546  -4076196.84761
  23438824.9724   -3549754.13145  -2612870.90361
  20585944.3704    -935481.63647   -728947.73862
  23474997.097    -3707640.300 5  -2827521.64221
 91  4 22 20 53 59.9990000  0  6G18G 2G11G16G19G 6
  21511407.112     5110711.536 7   3982357.60822
  21760495.933   -10114361.906 7  -7881289.94122
  22582133.261    -5239532.409 6  -4082738.07721
  23436644.5504   -3561210.73945  -2621798.16361
  20586237.878     -933939.822 7   -727746.33322
  23467788.362    -3745502.468 5  -2857024.49921
 91  4 22 20 54 14.9990000  0  6G18G 2G11G16G19G 6
  21518101.9404    5145894.07047   4009772.46863
  21753170.0584  -10152865.03847  -7911292.28662
  22580566.2144   -5247767.00946  -4089154.61261
  23434494.198    -3572524.833 6  -2630614.38721
  20586541.7064    -932338.66547   -726498.69462
  23460588.2144   -3783347.18545  -2886513.76261
 91  4 22 20 54 29.9990000  0  6G18G 2G11G16G19G 6
  21524815.0034    5181168.03947   4037258.57662
  21745856.9804  -10191289.97847  -7941233.71562
  22579029.7924   -5255846.42646  -4095450.23961
  23432365.425    -3583701.440 6  -2639323.45921
  20586856.190     -930682.989 7   -725208.57522
  23453384.745    -3821179.362 5  -2915993.24621
 91  4 22 20 54 44.9990000  0  6G18G 2G11G16G19G 6
  21531545.362     5216536.298 7   4064818.15822
  21738560.9174  -10229633.64547  -7971111.80162
  22577520.347    -5263767.572 6  -4101622.53021
  23430264.417    -3594737.795 6  -2647923.25921
  20587184.378     -928969.659 7   -723873.52822
  23446192.3474   -3858996.08745  -2945460.68761
 91  4 22 20 54 59.9990000  0  6G18G 2G11G16G19G 6
  21538294.1364    5251996.98547   4092449.75462
  21731279.4564  -10267897.22747  -8000927.49562
  22576045.6054   -5271531.63046  -4107672.41961
  23428188.8154   -3605635.04046  -2656414.64361
  20587518.573     -927199.953 7   -722494.54922
  23438998.995    -3896798.603 5  -2974917.05221
 91  4 22 20 55 14.9990000  0  6G18G 2G11G16G19G 6
  21545058.3154    5287545.90747   4120150.11762
  21724012.4724  -10306084.73547  -8030683.90862
  22574596.9724   -5279142.61046  -4113603.02061
  23426143.6834   -3616397.27946  -2664800.84661
  20587867.151     -925378.094 7   -721074.93822
  23431801.9644   -3934591.07644  -3004365.59161
 91  4 22 20 55 29.9990000  0  6G18G 2G11G16G19G 6
  21551840.8864    5323184.44447   4147920.30762
  21716760.4094  -10344194.78947  -8060379.95262
  22573177.128    -5286599.144 6  -4119413.28721
  23424122.9254   -3627023.00946  -2673080.67161
  20588224.9174    -923502.45247   -719613.40662
  23424614.0584   -3972372.09444  -3033805.20361
 91  4 22 20 55 44.9990000  0  6G18G 2G11G16G19G 6
  21558638.4564    5358919.67847   4175765.82262
  21709523.3004  -10382219.88347  -8090009.81062
  22571789.9644   -5293893.71546  -4125097.34461
  23422127.472    -3637504.821 6  -2681248.35421
  20588592.620     -921565.690 7   -718104.26422
  23417427.026    -4010134.366 5  -3063230.19721
 91  4 22 20 55 59.9990000  0  6G18G 2G11G16G19G 6
  21565459.292     5394743.896 7   4203680.70522
  21702303.4094  -10420167.42147  -8119579.22062
  22570429.8394   -5301033.61646  -4130660.86961
  23420157.253    -3647850.126 6  -2689309.67521
  20588972.3554    -919575.11447   -716553.17562
  23410248.4954   -4047885.36145  -3092646.41061
 91  4 22 20 56 14.9990000  0  6G18G 2G11G16G19G 6
  21572290.276     5430657.318 7   4231665.09122
  21695096.4644  -10458036.86847  -8149087.79962
  22569100.698    -5308018.387 6  -4136103.51521
  23418215.6984   -3658058.76546  -2697264.49961
  20589360.7454    -917530.24947   -714959.78162
  23403068.175    -4085624.652 5  -3122053.51121
 91  4 22 20 56 29.9990000  0  6G18G 2G11G16G19G 6
  21579144.495     5466662.666 7   4259721.08022
  21687904.8784  -10495825.36147
  22567800.5814   -5314845.12346  -4141423.02561
  23416302.0654   -3668127.91445  -2705110.61661
  20589757.964     -915428.250 7   -713321.87222
  23395885.737    -4123349.312 5
 91  4 22 20 56 44.9990000  0  6G18G 2G11G16G19G 6
  21586011.558     5502758.480 7   4287847.60022
  21680730.9254  -10533533.90047
  22566532.534    -5321514.854 6  -4146620.18821
  23414411.4334   -3678058.65245  -2712848.88861
  20590171.4174    -913269.96847   -711640.10162
  23388710.019    -4161060.571 5
 91  4 22 20 56 59.9990000  0  6G18G 2G11G16G19G 6
  21592899.1754    5538941.63647   4316042.13862
  21673567.7304  -10571165.29947  -8237239.55762
  22565292.8474   -5328030.51346  -4151697.30361
  23412547.581    -3687854.045 5  -2720481.71521
  20590591.815     -911058.593 7   -709916.96722
  23381540.5974   -4198761.51545  -3210211.69361
 91  4 22 20 57 14.9990000  0  6G18G 2G11G16G19G 6
  21599800.972     5575213.777 7   4344306.03622
  21666421.3944  -10608717.83247  -8266501.18762
  22564081.8944   -5334390.22146  -4156652.88361
  23410707.8314   -3697511.87345  -2728007.33261
  20591023.8004    -908791.87447   -708150.71062
  23374366.9804   -4236450.20445  -3239579.38161
 91  4 22 20 57 29.9990000  0  6G18G 2G11G16G19G 6
  21606717.050     5611566.000 7   4372632.33122
  21659289.3004  -10646200.01647  -8295707.98462
  22562901.1674   -5340602.40446  -4161493.51061
  23408896.831    -3707041.121 5  -2735432.77921
  20591460.4954    -906478.63147   -706348.18862
  23367193.003    -4274135.162 5  -3268944.15921
 91  4 22 20 57 44.9990000  0  6G18G 2G11G16G19G 6
  21613652.230     5648006.876 7   4401027.70622
  21652172.440   -10683603.200 7  -8324853.24722
  22561747.5504   -5346658.42246  -4166212.45761
  23407108.026    -3716433.145 5  -2742751.28521
  20591915.534     -904110.114 7   -704502.60622
  23360022.831    -4311807.947 5  -3298299.46121
 91  4 22 20 57 59.9990000  0  6G18G 2G11G16G19G 6
  21620604.433     5684535.944 7   4429491.80922
  21645069.2064  -10720927.59347  -8353937.09862
  22560626.0814   -5352558.64346  -4170809.99061
  23405346.1514   -3725688.56245  -2749963.34961
  20592373.190     -901686.614 7   -702614.18222
  23352855.480    -4349468.972 5  -3327645.59421
 91  4 22 20 58 14.9990000  0  6G18G 2G11G16G19G 6
  21627571.4254    5721154.67947   4458025.77762
  21637981.073   -10758171.065 7  -8382957.89922
  22559530.6904   -5358300.90246  -4175284.45661
  23403612.995    -3734805.171 5  -2757067.24721
  20592848.2224    -899205.91247   -700681.17962
  23345693.323    -4387115.984 5  -3356980.82221
 91  4 22 20 58 29.9990000  0  6G18G 2G11G16G19G 6
  21634557.0114    5757862.59947   4486629.22062
  21630910.7454  -10795334.00647  -8411915.93962
  22558469.1674   -5363885.34746  -4179635.93061
  23401903.792    -3743783.446 5  -2764063.35021
  20593328.659     -896668.259 7   -698703.80922
  23338530.026    -4424749.516 5  -3386305.53821
 91  4 22 20 58 44.9990000  0  6G18G 2G11G16G19G 6
  21641560.3864    5794657.10947   4515300.17862
  21623853.612   -10832418.833 7  -8440813.12922
  22557436.8864   -5369314.49546  -4183866.40361
  23400221.019    -3752626.134 5  -2770953.82221
  20593824.909     -894076.227 7   -696684.05822
  23331371.2534   -4462372.14445  -3415621.75461
 91  4 22 20 58 59.9990000  0  6G18G 2G11G16G19G 6
  21648577.0654    5831539.00347   4544039.19362
  21616810.5264  -10869424.44847  -8469648.58162
  22556434.8084   -5374587.33546  -4187975.07861
  23398564.901    -3761332.004 5  -2777737.64721
  20594328.7614    -891428.52347   -694620.91662
  23324215.433    -4499982.703 5  -3444928.56521
 91  4 22 20 59 14.9990000  0  6G18G 2G11G16G19G 6
  21655612.8864    5868509.60647   4572847.34562
  21609783.862   -10906349.021 7  -8498420.89122
  22555460.4094   -5379702.21146  -4191960.65961
  23396935.034    -3769899.612 5  -2784413.74921
  20594843.370     -888723.398 7   -692513.04222
  23317059.2534   -4537579.58445  -3474224.71961
 91  4 22 20 59 29.9990000  0  6G18G 2G11G16G19G 6
  21662664.901     5905570.293 7   4601725.70622
  21602772.7454  -10943191.53647  -8527129.26262
  22554517.2924   -5384657.92846  -4195822.22161
  23395329.151    -3778327.760 5  -2790981.18521
  20595367.464     -885959.819 7   -690359.62322
  23309910.5194   -4575161.79745  -3503509.44061
 91  4 22 20 59 44.9990000  0  6G18G 2G11G16G19G 6
  21669735.1054    5942715.92447   4630670.23062
  21595777.456   -10979956.361 7  -8555777.09122
  22553604.105    -5389458.900 6  -4199563.19421
  23393750.5504   -3786621.06846  -2797443.53661
  20595905.081     -883142.238 7   -688164.11722
  23302755.2374   -4612733.69545  -3532786.11361
 91  4 22 20 59 59.9990000  0  6G18G 2G11G16G19G 6
  21676819.370     5979949.763 7   4659683.50822
  21588794.6594  -11016640.11247  -8584361.74162
  22552720.690    -5394101.615 6  -4203180.85721
  23392200.433    -3794775.960 6  -2803798.04521
  20596450.894     -880267.193 7   -685923.84922
  23295612.3314   -4650291.93845  -3562052.15761
 91  4 22 21  0 14.9990000  0  6G18G 2G11G16G19G 6
  21683921.1984    6017272.46547   4688766.01362
  21581831.8084  -11053241.60347  -8612882.29362
  22551865.3864   -5398585.19246  -4206674.51761
  23390676.2374   -3802791.50746  -2810043.95961
  20597011.151     -877333.619 7   -683637.95822
  23288464.8624   -4687835.67145  -3591306.89961
 91  4 22 21  0 29.9990000  0  6G18G 2G11G16G19G 6
  21691042.120     6054688.213 7   4717921.02822
  21574882.706   -11089756.442 7  -8641335.33522
  22551042.3864   -5402905.17646  -4210040.69961
  23389177.331    -3810663.722 6  -2816178.20121
  20597578.112     -874337.255 7   -681303.14322
  23281323.823    -4725360.457 5  -3620546.86021
 91  4 22 21  0 44.9990000  0  6G18G 2G11G16G19G 6
  21698179.2924    6092194.18147   4747146.36562
  21567949.8864  -11126187.37847  -8669722.98662
  22550254.4564   -5407064.23746  -4213281.49561
  23387704.8004   -3818395.32446  -2822202.85761
  20598160.9724    -871280.51847   -678921.28462
  23274190.237    -4762869.067 5  -3649774.25021
 91  4 22 21  0 59.9990000  0  6G18G 2G11G16G19G 6
  21705331.2844    6129781.73046   4776435.24662
  21561032.050   -11162542.567 7  -8698051.62022
  22549490.300    -5411070.479 6  -4216403.19621
  23386260.3474   -3825994.39546  -2828124.25061
  20598750.894     -868171.393 7   -676498.60022
  23267052.4174   -4800369.69445  -3678995.40261
 91  4 22 21  1 14.9990000  0  6G18G 2G11G16G19G 6
  21712500.315     6167452.670 7   4805789.08622
  21554128.5734  -11198820.04647  -8726319.71162
  22548758.7844   -5414922.09146  -4219404.41361
  23384838.487    -3833459.049 6  -2833940.91021
  20599355.847     -865008.017 7   -674033.65522
  23259915.698    -4837860.541 5  -3708208.94521
 91  4 22 21  1 29.9990000  0  6G18G 2G11G16G19G 6
  21719685.6364    6205209.14647   4835209.63062
  21547240.4724  -11235017.34847  -8754525.31362
  22548054.6594   -5418616.68346  -4222283.28561
  23383445.5814   -3840787.34646  -2839651.29861
  20599966.894     -861788.126 7   -671524.66022
  23252784.1834   -4875339.14745  -3737412.92361
 91  4 22 21  1 44.9990000  0  6G18G 2G11G16G19G 6
  21726885.7454    6243050.90447   4864696.60162
  21540367.823   -11271134.709 7  -8782668.62622
  22547381.1594   -5422154.34246  -4225039.86061
  23382077.425    -3847979.289 6  -2845255.45721
  20600592.394     -858511.856 7   -668971.74122
  23245655.597    -4912805.833 5  -3766607.61921
 91  4 22 21  1 59.9990000  0  6G18G 2G11G16G19G 6
  21734104.401     6280976.486 7   4894248.87822
  21533509.956   -11307173.011 7  -8810750.33122
  22546736.6594   -5425535.90846  -4227674.81661
  23380731.683    -3855035.629 6  -2850753.94421
  20601223.847     -855180.003 7   -666375.50822
  23238529.3234   -4950261.46645  -3795793.70361
 91  4 22 21  2 14.9980000  0  6G18G 2G11G16G19G 6
  21741337.139     6318984.561 7   4923865.46422
  21526667.576   -11343128.348 7  -8838767.40722
  22546123.5294   -5428759.85646  -4230186.95161
  23379417.217    -3861954.972 6  -2856145.69621
  20601870.842     -851791.384 7   -663735.04422
  23231403.201    -4987702.167 5  -3824968.14821
 91  4 22 21  2 29.9980000  0  6G18G 2G11G16G19G 6
  21748585.3814    6357076.77947   4953547.58462
  21519838.889   -11379008.874 7  -8866726.18322
  22545538.4044   -5431829.99646  -4232579.22761
  23378125.553    -3868741.926 5  -2861434.27121
  20602523.240     -848348.905 7   -661052.61022
  23224279.0614   -5025136.43945  -3854137.58761
 91  4 22 21  2 44.9980000  0  6G18G 2G11G16G19G 6
  21755851.154     6395259.034 7   4983299.87522
  21513026.8184  -11414803.36547  -8894617.90362
  22544987.3034   -5434737.35546  -4234844.66861
  23376858.943    -3875387.047 5  -2866612.32521
  20603191.6234    -844843.90047   -658321.44862
  23217161.584    -5062552.978 5  -3883293.18921
 91  4 22 21  2 59.9980000  0  6G18G 2G11G16G19G 6
  21763132.006     6433524.069 7   5013116.68122
  21506231.014   -11450518.888 7  -8922448.10822
  22544462.5534   -5437488.92846  -4236988.72361
  23375624.865    -3881897.223 5  -2871685.24721
  20603867.959     -841283.124 7   -655546.82722
  23210043.147    -5099958.786 5  -3912440.42421
 91  4 22 21  3 14.9980000  0  6G18G 2G11G16G19G 6
  21770430.1784    6471869.92547   5042996.45562
  21499449.147   -11486157.029 7  -8950218.00822
  22543968.4284   -5440086.24246  -4239012.57261
  23374405.912    -3888274.462 5  -2876654.57921
  20604558.451     -837668.284 7   -652730.09222
  23202925.295    -5137355.618 6  -3941580.69321
 91  4 22 21  3 29.9980000  0  6G18G 2G11G16G19G 6
  21777740.404     6510290.974 6   5072934.80022
  21492682.4044  -11521723.23247  -8977931.84362
  22543501.7174   -5442534.83146  -4240920.52861
  23373220.498    -3894524.314 5  -2881524.65221
  20605253.123     -834004.757 7   -649875.40722
  23195806.4754   -5174748.87446  -3970718.18061
 91  4 22 21  3 44.9980000  0  6G18G 2G11G16G19G 6
  21785068.982     6548794.930 7   5102937.76722
  21485928.631   -11557209.202 7  -9005583.16622
  22543067.8574   -5444826.37146  -4242706.11861
  23372054.0064   -3900638.31445  -2886288.86061
  20605962.6784    -830284.26547   -646976.33662
  23188697.0764   -5212130.33346  -3999846.47161
 91  4 22 21  3 59.9980000  0  6G18G 2G11G16G19G 6
  21792411.022     6587382.467 7   5133005.87722
  21479190.436   -11592614.161 7  -9033171.36522
  22542661.1394   -5446960.30846  -4244368.89661
  23370919.506    -3906615.997 5  -2890946.84221
  20606678.467     -826506.346 7   -644032.51922
  23181587.1074   -5249499.49946  -4028965.16461
 91  4 22 21  4 14.9980000  0  6G18G 2G11G16G19G 6
  21799769.779     6626053.831 7   5163139.29222
  21472469.443   -11627937.833 7  -9060696.22122
  22542284.9284   -5448936.27946  -4245908.58961
  23369807.748    -3912457.395 5  -2895498.62321
  20607412.404     -822670.462 7   -641043.53322
  23174475.8654   -5286855.97346  -4058073.99361
 91  4 22 21  4 29.9980000  0  6G18G 2G11G16G19G 6
  21807145.4044    6664805.70947   5193335.44062
  21465762.373   -11663183.025 7  -9088159.92422
  22541936.850    -5450757.154 6  -4247327.42921
  23368721.990    -3918165.528 5  -2899946.59121
  20608154.0684    -818779.58947   -638011.68862
  23167368.4674   -5324202.72746  -4087175.24661
 91  4 22 21  4 44.9980000  0  6G18G 2G11G16G19G 6
  21814534.7094    6703640.15947   5223595.91262
  21459070.576   -11698347.501 7  -9115560.73522
  22541621.4044   -5452420.69846  -4248623.67661
  23367661.029    -3923738.068 5  -2904288.88921
  20608903.412     -814831.322 7   -634935.13822
  23160265.8574   -5361537.45046  -4116267.11861
 91  4 22 21  4 59.9980000  0  6G18G 2G11G16G19G 6
  21821941.0764    6742557.43247   5253920.95862
  21452395.607   -11733430.799 7  -9142898.29222
  22541333.904    -5453926.341 6  -4249796.88621
  23366626.8034   -3929174.78145  -2908525.33661
  20609664.631     -810825.061 7   -631813.38622
  23153162.6704   -5398859.67446  -4145349.26361
 91  4 22 21  5 14.9980000  0  6G18G 2G11G16G19G 6
  21829361.4364    6781556.25246   5284309.53362
  21445733.5614  -11768433.55847  -9170173.08262
  22541078.7644   -5455274.89446  -4250847.67061
  23365619.3344   -3934476.36145  -2912656.49261
  20610439.4284    -806761.40946   -628646.91563
  23146063.2564   -5436170.39246  -4174422.42861
 91  4 22 21  5 29.9980000  0  6G18G 2G11G16G19G 6
  21836800.1234    6820638.23347   5314762.88862
  21439088.787   -11803354.112 7  -9197383.82122
  22540851.092    -5456464.713 6  -4251774.78821
  23364634.506    -3939641.253 5  -2916681.13421
  20611223.5144    -802638.57547   -625434.31063
  23138963.334    -5473467.668 6  -4203485.13221
 91  4 22 21  5 44.9980000  0  6G18G 2G11G16G19G 6
  21844252.061     6859803.479 7   5345281.16022
  21432458.545   -11838191.976 7  -9224530.12722
  22540655.389    -5457495.403 6  -4252577.90621
  23363678.0614   -3944668.92845  -2920598.85361
  20612019.9674    -798456.19846   -622175.32963
  23131869.326    -5510751.237 6  -4232537.15221
 91  4 22 21  5 59.9980000  0  6G18G 2G11G16G19G 6
  21851720.232     6899045.818 6   5375859.47622
  21425844.443   -11872953.179 7  -9251616.70222
  22540487.272    -5458372.986 6  -4253261.72121
  23362743.600    -3949565.799 5  -2924414.65621
  20612823.5534    -794220.31447   -618874.65163
  23124777.4044   -5548027.18146  -4261583.23961
 91  4 22 21  6 14.9980000  0  6G18G 2G11G16G19G 6
  21859202.8814    6938370.82146   5406502.20462
  21419244.928   -11907631.981 7  -9278639.06423
  22540349.0764   -5459091.77846  -4253821.80761
  23361841.865    -3954326.081 6  -2928124.01021
  20613644.7724    -789925.14446   -615527.77263
  23117682.936    -5585289.801 6  -4290618.94321
 91  4 22 21  6 29.9980000  0  6G18G 2G11G16G19G 6
  21866701.8734    6977776.92347   5437208.13962
  21412659.334   -11942229.441 7  -9305598.04223
  22540243.818    -5459653.043 6  -4254259.14321
  23360964.318    -3958951.359 6  -2931728.17621
  20614472.6474    -785571.83246   -612135.59363
  23110595.4674   -5622540.33046  -4319645.22061
 91  4 22 21  6 44.9980000  0  6G18G 2G11G16G19G 6
  21874214.967     7017259.054 7   5467973.33222
  21406090.654   -11976750.644 7  -9332497.60322
  22540166.4824   -5460061.72246  -4254577.58861
  23360106.123    -3963446.223 6  -2935230.72121
  20615309.2564    -781165.22146   -608701.87663
  23103509.9984   -5659783.65046  -4348665.88161
 91  4 22 21  6 59.9980000  0  6G18G 2G11G16G19G 6
  21881743.373     7056818.868 6   5498799.02422
  21399536.154   -12011193.362 7  -9359336.00522
  22540121.576    -5460315.705 6  -4254775.47721
  23359275.537    -3967809.122 6  -2938630.42821
  20616156.1154    -776703.06447   -605224.88163
  23096425.6074   -5697017.65446  -4377679.28061
 91  4 22 21  7 14.9980000  0  6G18G 2G11G16G19G 6
  21889287.998     7096463.309 7   5529690.64922
  21393000.045   -12045550.452 7  -9386107.68722
  22540102.842    -5460407.803 6
  23358470.201    -3972032.781 6  -2941921.63921
  20617020.5064    -772178.20946   -601699.02963
  23089341.5534   -5734235.31945  -4406679.92461
 91  4 22 21  7 29.9980000  0  6G18G 2G11G16G19G 6
  21896848.3184    7136191.12547   5560647.27762
  21386477.014   -12079823.070 7  -9412813.55122
  22540116.482    -5460339.295 6
  23357694.068    -3976118.668 6  -2945105.49821
  20617889.4204    -767591.75747   -598125.17563
  23082261.5844   -5771437.76345  -4435668.73261
 91  4 22 21  7 44.9980000  0  6G18G 2G11G16G19G 6
  21904423.3344    7175996.26146   5591664.13762
  21379970.514   -12114017.050 7  -9439458.12922
  22540156.053    -5460116.112 6
  23356944.092    -3980072.639 6  -2948186.57921
  20618777.1234    -762949.58446   -594507.91163
  23075182.8894   -5808630.88845  -4464650.27061
 91  4 22 21  7 59.9980000  0  6G18G 2G11G16G19G 6
  21912010.4284    7215873.56046   5622737.23762
  21373478.967   -12148136.940 7  -9466044.97923
  22540228.553    -5459742.663 6
  23356213.2094   -3983899.39346  -2951168.48961
  20619670.7794    -758256.28946   -590850.80363
  23068105.662    -5845819.349 5  -4493628.17121
 91  4 22 21  8 14.9980000  0  6G18G 2G11G16G19G 6
  21919613.1234    7255830.47646   5653872.35662
  21367000.186   -12182175.361 7  -9492568.34922
  22540332.0684   -5459211.56846  -4253915.05861
  23355507.631    -3987591.505 6  -2954045.51721
  20620574.4364    -753504.18746   -587147.87763
  23061033.3114   -5882995.59645  -4522596.55761
 91  4 22 21  8 29.9980000  0  6G18G 2G11G16G19G 6
  21927233.256     7295862.081 7   5685065.67322
  21360538.006   -12216136.538 7  -9519031.53122
  22540460.147    -5458527.380 6  -4253381.91721
  23354831.506    -3991153.412 6  -2956821.07021
  20621488.3734    -748697.70346   -583402.56763
  23053960.029    -5920164.046 5  -4551558.86921
 91  4 22 21  8 44.9980000  0  6G18G 2G11G16G19G 6
  21934865.2644    7335972.07846   5716320.10062
  21354090.357   -12250016.783 7  -9545431.64823
  22540618.3424   -5457686.48946  -4252726.67561
  23354179.2954   -3994581.84446  -2959492.63561
  20622415.397     -743833.165 6   -579612.02923
  23046889.084    -5957321.202 5  -4580512.38721
 91  4 22 21  8 59.9980000  0  6G18G 2G11G16G19G 6
  21942513.076     7376161.436 6   5747636.34922
  21347659.100   -12283814.586 7  -9571767.52123
  22540810.2094   -5456687.37346  -4251948.13761
  23353556.5924   -3997875.42646  -2962059.08961
  20623347.9124    -738909.04647   -575775.05863
  23039821.9824   -5994465.52745  -4609455.89161
 91  4 22 21  9 14.9980000  0  6G18G 2G11G16G19G 6
  21950174.498     7416428.655 6   5779013.27322
  21341242.662   -12317531.568 7  -9598040.41623
  22541029.5924   -5455531.56246  -4251047.48961
  23352952.3034   -4001035.55946  -2964521.57661
  20624300.740     -733926.661 7   -571892.69223
  23032754.7404   -6031598.57145  -4638390.61461
 91  4 22 21  9 29.9980000  0  6G18G 2G11G16G19G 6
  21957852.709     7456772.081 6   5810449.57322
  21334841.936   -12351169.142 7  -9624251.43723
  22541280.8734   -5454220.56146  -4250025.92161
  23352373.6314   -4004064.01146  -2966881.43461
  20625259.022     -728887.476 7   -567966.06623
  23025687.9284   -6068721.76345  -4667317.65761
 91  4 22 21  9 44.9980000  0  6G18G 2G11G16G19G 6
  21965545.482     7497192.953 7   5841946.22822
  21328456.709   -12384725.425 7  -9650399.12223
  22541556.5534   -5452752.57546  -4248882.04361
  23351823.1234   -4006959.04246  -2969137.35561
  20626230.115     -723789.552 7   -563993.67123
  23018628.076    -6105833.319 5  -4696235.64421
 91  4 22 21  9 59.9980000  0  6G18G 2G11G16G19G 6
  21973250.412     7537687.213 6   5873500.05922
  21322085.225   -12418204.250 7  -9676486.43723
  22541867.209    -5451131.557 6  -4247618.89621
  23351301.2324   -4009724.84446  -2971292.56761
  20627207.522     -718636.716 7   -559978.48523
  23011566.420    -6142937.059 5  -4725147.53921
 91  4 22 21 10 14.9980000  0  6G18G 2G11G16G19G 6
  21980970.397     7578257.396 6   5905113.04922
  21315729.709   -12451603.047 7  -9702511.40323
  22542205.631    -5449355.047 6  -4246234.59321
  23350798.2404   -4012358.82045  -2973345.06661
  20628200.4284    -713426.41847   -555918.52063
  23004506.232    -6180030.649 6  -4754051.52521
 91  4 22 21 10 29.9980000  0  6G18G 2G11G16G19G 6
  21988705.7324    7618902.42246   5936784.39062
  21309388.459   -12484922.531 7  -9728474.55923
  22542571.1624   -5447423.60846  -4244729.57461
  23350321.490    -4014861.599 5  -2975295.32021
  20629199.8264    -708159.20447   -551814.20963
  22997452.576    -6217114.570 6  -4782947.96821
 91  4 22 21 10 44.9980000  0  6G18G 2G11G16G19G 6
  21996455.170     7659625.021 6   5968516.14522
  21303064.412   -12518159.530 7  -9754373.44723
  22542969.6474   -5445334.10546  -4243101.38361
  23349873.1704   -4017230.27645  -2977141.08861
  20630216.897     -702831.760 6   -547662.97023
  22990396.7404   -6254185.78146  -4811834.53161
 91  4 22 21 10 59.9980000  0  6G18G 2G11G16G19G 6
  22004219.318     7700423.439 6   6000306.97221
  21296754.1864  -12551315.60447  -9780209.27763
  22543397.6934   -5443088.27646  -4241351.37561
  23349443.850    -4019466.368 5  -2978883.54921
  20631240.272     -697445.828 7   -543466.15823
  22983345.8184   -6291245.88946  -4840712.42461
 91  4 22 21 11 14.9980000  0  6G18G 2G11G16G19G 6
  22011997.654     7741295.629 6   6032155.29722
  21290461.670   -12584392.641 7  -9805983.51723
  22543854.2644   -5440688.01646  -4239481.04461
  23349041.686    -4021572.231 5  -2980524.52721
  20632277.9674    -692003.27146   -539225.21763
  22976292.920    -6328296.726 6  -4869583.09221
 91  4 22 21 11 29.9980000  0  6G18G 2G11G16G19G 6
  22019789.6074    7782243.13646   6064062.31461
  21284181.725   -12617388.751 7  -9831694.69823
  22544341.5454   -5438131.56646  -4237489.00061
  23348667.264    -4023546.119 5  -2982062.68421
  20633324.373     -686502.135 6   -534938.64023
  22969245.5144   -6365336.47246  -4898445.12061
 91  4 22 21 11 44.9980000  0  6G18G 2G11G16G19G 6
  22027595.0454    7823263.70746   6096026.28161
  21277917.397   -12650305.926 7  -9857344.37222
  22544857.5844   -5435420.86046  -4235376.75561
  23348316.350    -4025389.919 5  -2983499.47221
  20634381.170     -680944.175 6   -530607.77523
  22962199.584    -6402367.010 5  -4927299.97121
 91  4 22 21 11 59.9980000  0  6G18G 2G11G16G19G 6
  22035414.0764    7864359.53546   6128048.86062
  21271669.2724  -12683141.76647  -9882930.66763
  22545402.240    -5432553.568 6  -4233142.49421
  23347990.834    -4027101.670 5  -2984833.37621
  20635449.2094    -675327.07347   -526230.82363
  22955152.717    -6439386.210 5  -4956145.98921
 91  4 22 21 12 14.9980000  0  6G18G 2G11G16G19G 6
  22043250.7954    7905533.04146   6160131.95962
  21265436.592   -12715893.697 7  -9908451.57822
  22545976.8344   -5429527.39646  -4230784.44061
  23347690.9594   -4028678.71945  -2986062.29461
  20636532.881     -669648.509 7   -521805.98823
  22948110.5534   -6476391.55845  -4984981.20661
 91  4 22 21 12 29.9980000  0  6G18G 2G11G16G19G 6
  22051100.8654    7946783.38747   6192274.96161
  21259219.998   -12748562.152 7  -9933907.44622
  22546583.7094   -5426342.69246  -4228302.83861
  23347415.6784   -4030121.72645  -2987186.77761
  20637622.982     -663908.545 6   -517333.31123
  22941072.670    -6513383.298 5  -5013805.83021
 91  4 22 21 12 44.9980000  0  6G18G 2G11G16G19G 6
  22058963.1314    7988105.85146   6224474.16961
  21253018.287   -12781151.413 7  -9959301.59822
  22547218.9124   -5423003.85746  -4225701.15861
  23347166.7954   -4031435.43345  -2988210.51061
  20638727.397     -658111.445 6   -512816.10323
  22934034.5294   -6550365.94245  -5042623.35461
 91  4 22 21 12 59.9980000  0  6G18G 2G11G16G19G 6
  22066841.498     8029503.361 6   6256731.84221
  21246831.732   -12813658.355 7  -9984631.61222
  22547883.5144   -5419507.77046  -4222976.92761
  23346939.553    -4032616.533 5  -2989130.90321
  20639839.920     -652253.829 6   -508251.74723
  22927003.5454   -6587336.22045  -5071431.26461
 91  4 22 21 13 14.9980000  0  6G18G 2G11G16G19G 6
  22074732.553     8070972.838 6   6289045.56521
  21240661.2644  -12846085.97047 -10009899.81663
  22548579.8894   -5415857.60646  -4220132.63561
  23346741.498    -4033668.049 5  -2989950.33921
  20640967.264     -646338.767 6   -503642.62823
  22919967.037    -6624297.116 5  -5100231.85721
 91  4 22 21 13 29.9980000  0  6G18G 2G11G16G19G 6
  22082637.943     8112514.002 6   6321415.16221
  21234506.3184  -12878434.14847 -10035106.11863
  22549303.1234   -5412053.39746  -4217168.32161
  23346566.4364   -4034590.36045  -2990669.08761
  20642100.506     -640366.116 6   -498988.63323
  22912934.2254   -6661248.65345  -5129025.17061
 91  4 22 21 13 44.9980000  0  6G18G 2G11G16G19G 6
  22090556.279     8154128.313 6   6353841.76721
  21228366.342   -12910701.200 7 -10060249.20223
  22550056.4514   -5408093.25746  -4214082.49661
  23346415.647    -4035381.718 5  -2991285.78421
  20643253.514     -634334.077 6   -494288.35623
  22905906.623    -6698189.166 6  -5157809.89821
 91  4 22 21 13 59.9980000  0  6G18G 2G11G16G19G 6
  22098488.350     8195813.639 6   6386323.69521
  21222239.3574  -12942888.68547 -10085330.28863
  22550838.8184   -5403979.11146  -4210876.66461
  23346290.873    -4036043.958 5  -2991801.87821
  20644408.350     -628244.401 7   -489543.17523
  22898877.9044   -6735120.30846  -5186587.31361
 91  4 22 21 14 14.9980000  0  6G18G 2G11G16G19G 6
  22106435.2404    8237567.44846   6418859.00661
  21216130.2484  -12974999.00947 -10110351.24663
  22551651.8424   -5399713.33046  -4207552.67961
  23346191.623    -4036579.565 5  -2992219.29521
  20645580.568     -622099.424 6   -484754.90123
  22891851.436    -6772044.343 6  -5215359.21221
 91  4 22 21 14 29.9980000  0  6G18G 2G11G16G19G 6
  22114393.7324    8279388.12746   6451446.40561
  21210033.732   -13007033.669 7 -10135313.24422
  22552490.3654   -5395297.48746  -4204111.76761
  23346113.662    -4036990.319 5  -2992539.42021
  20646756.787     -615900.587 7   -479924.66223
  22884825.6074   -6808962.88546  -5244126.81561
 91  4 22 21 14 44.9980000  0  6G18G 2G11G16G19G 6
  22122365.272     8321278.242 6   6484087.92221
  21203952.818   -13038989.612 7 -10160213.91223
  22553360.0844   -5390728.81246  -4200551.76261
  23346055.8034   -4037273.37745  -2992760.05361
  20647950.615     -609644.887 6   -475050.11123
  22877801.0064   -6845873.09146  -5272887.91561
 91  4 22 21 14 59.9980000  0  6G18G 2G11G16G19G 6
  22130349.7324    8363239.71246   6516785.02261
  21197887.5294  -13070864.81347 -10185051.66263
  22554258.5374   -5386005.15846  -4196870.99661
  23346026.7174   -4037426.88845
  20649149.615     -603330.186 6   -470129.58123
  22870780.6544   -6882772.72446  -5301640.79361
 91  4 22 21 15 14.9980000  0  6G18G 2G11G16G19G 6
  22138347.5924    8405270.51046   6549536.16361
  21191836.2484  -13102660.86947 -10209827.73963
  22555188.3504   -5381128.23146  -4193070.78661
  23346021.6154   -4037452.45445
  20650365.100     -596957.951 6   -465164.22223
  22863761.2014   -6919663.36746  -5330386.65061
 91  4 22 21 15 29.9980000  0  6G18G 2G11G16G19G 6
  22146360.9594    8447372.56346   6582342.83561
  21185801.7874  -13134376.02647 -10234540.78263
  22556146.4904   -5376096.27046  -4189149.77361
  23346044.8264   -4037348.54546
  20651584.443     -590526.003 6   -460152.33323
  22856740.076    -6956543.282 6  -5359124.15421
 91  4 22 21 15 44.9980000  0  6G18G 2G11G16G19G 6
  22154385.7724    8489544.69146   6615204.09461
  21179780.4594  -13166011.03247 -10259191.37363
  22557133.2324   -5370910.01346  -4185108.53561
  23346088.3344   -4037116.03646
  20652822.904     -584035.311 6   -455094.67623
  22849725.4904   -6993413.12946  -5387853.81761
 91  4 22 21 15 59.9980000  0  6G18G 2G11G16G19G 6
  22162423.5144    8531787.75046   6648120.60061
  21173777.0224  -13197564.50847 -10283778.43562
  22558149.7014   -5365568.24646  -4180946.11461
  23346157.2404   -4036753.66746
  20654067.178     -577484.478 6   -449990.15023
  22842710.287    -7030271.587 6  -5416574.60621
 91  4 22 21 16 14.9980000  0  6G18G 2G11G16G19G 6
  22170476.8974    8574102.68046   6681093.13861
  21167787.6004  -13229035.31047 -10308301.07563
  22559194.1864   -5360070.11546  -4176661.85561
  23346249.6864   -4036260.50646  -2991971.18661
  20655329.318     -570872.422 6   -444837.92023
  22835698.3344   -7067117.81346  -5445285.85161
 91  4 22 21 16 29.9980000  0  6G18G 2G11G16G19G 6
  22178542.990     8616487.593 6   6714120.19921
  21161814.1004  -13260425.09747 -10332760.58363
  22560272.1314   -5354417.33946  -4172257.09661
  23346368.904    -4035638.376 6  -2991486.47321
  20656595.162     -564200.583 6   -439639.09723
  22828688.7014   -7103953.26746  -5473988.70861
 91  4 22 21 16 44.9980000  0  6G18G 2G11G16G19G 6
  22186621.982     8658941.136 6   6747200.75121
  21155856.2324  -13291734.81647 -10357157.70863
  22561375.6934   -5348610.82146  -4167732.53861
  23346512.272    -4034888.593 6  -2990902.29321
  20657879.1624    -557469.92446   -434394.43963
  22821683.8184   -7140778.83346  -5502683.86861
 91  4 22 21 16 59.9980000  0  6G18G 2G11G16G19G 6
  22194712.5684    8701461.25946   6780333.17161
  21149913.1784  -13322966.41647 -10381493.95963
  22562507.0534   -5342652.54946  -4163089.72861
  23346675.842    -4034012.902 6  -2990220.00121
  20659171.100     -550682.142 6   -429105.27923
  22814674.1234   -7177596.42446  -5531372.80061
 91  4 22 21 17 14.9980000  0  6G18G 2G11G16G19G 6
  22202817.998     8744050.524 6   6813519.43821
  21143984.4984  -13354116.85447 -10405766.96663
  22563673.1074   -5336539.71346  -4158326.48261
  23346866.6704   -4033008.52846  -2989437.42961
  20660474.029     -543834.256 6   -423769.28223
  22807672.7564   -7214403.12346  -5560053.24361
 91  4 22 21 17 29.9980000  0  6G18G 2G11G16G19G 6
  22210935.2954    8786706.47046   6846757.70161
  21138072.5614  -13385188.52947 -10429978.60163
  22564864.6154   -5330274.82046  -4153444.74361
  23347084.912    -4031878.260 6  -2988556.76521
  20661784.443     -536928.739 6   -418388.38723
  22800669.9284   -7251201.45845  -5588727.16361
 91  4 22 21 17 44.9980000  0  6G18G 2G11G16G19G 6
  22219064.022     8829431.183 6   6880049.56321
  21132175.5534  -13416179.17047 -10454127.09263
  22566086.3734   -5323855.75246  -4148442.86561
  23347323.9514   -4030619.82346  -2987576.22661
  20663114.0534    -529963.38546   -412960.84763
  22793668.115    -7287989.193 5  -5617392.81621
 91  4 22 21 17 59.9980000  0  6G18G 2G11G16G19G 6
  22227206.8424    8872224.00846   6913394.45361
  21126293.2644  -13447089.13747 -10478212.71663
  22567339.529    -5317282.828 6  -4143321.10721
  23347587.365    -4029233.947 6  -2986496.38521
  20664447.0614    -522938.12246   -407486.63963
  22786668.420    -7324766.511 5  -5646050.35621
 91  4 22 21 18 14.9980000  0  6G18G 2G11G16G19G 6
  22235364.9904    8915081.92346   6946790.08261
  21120426.779   -13477920.866 7 -10502237.38123
  22568616.9904   -5310558.63946  -4138081.47361
  23347874.6234   -4027723.24646  -2985319.27961
  20665795.607     -515855.585 6   -401967.80323
  22779670.178    -7361535.951 5  -5674701.75721
 91  4 22 21 18 29.9980000  0  6G18G 2G11G16G19G 6
  22243532.4204    8958003.35946   6980235.20661
  21114573.4824  -13508675.85747 -10526202.25263
  22569924.1544   -5303684.74846  -4132725.20361
  23348185.2174   -4026089.10246  -2984045.98261
  20667154.998     -508717.108 6   -396405.36323
  22772677.857    -7398298.948 5  -5703348.14021
 91  4 22 21 18 44.9980000  0  6G18G 2G11G16G19G 6
  22251710.9754    9000989.13246   7013730.46961
  21108735.904   -13539353.086 7 -10550106.53023
  22571260.4434   -5296660.13846  -4127251.46861
  23348521.8344   -4024330.84746  -2982675.98061
  20668525.6314    -501521.63846   -390798.51563
  22765684.717    -7435054.414 6  -5731988.65821
 91  4 22 21 18 59.9980000  0  6G18G 2G11G16G19G 6
  22259903.857     9044042.449 6   7047278.35021
  21102913.2094  -13569948.88847 -10573947.35763
  22572627.397    -5289481.262 6
  23348879.6624   -4022445.13846  -2981206.65561
  20669908.0144    -494265.51446
  22758688.4044   -7471798.77346  -5760620.53661
 91  4 22 21 19 14.9980000  0  6G18G 2G11G16G19G 6
  22268111.6784    9087163.03146   7080878.63761
  21097106.8034  -13600463.60747 -10597725.00063
  22574022.303    -5282148.490 6
  23349264.467    -4020432.139 6  -2979638.14921
  20671300.2484    -486948.90046
  22751699.3974   -7508532.26546  -5789243.93461
 91  4 22 21 19 29.9980000  0  6G18G 2G11G16G19G 6
  22276328.365     9130345.761 6   7114527.38721
  21091314.5764  -13630901.85747 -10621443.06163
  22575446.9514   -5274666.67446  -4110113.70861
  23349668.6704   -4018296.75746  -2977974.28161
  20672699.545     -479576.357 6   -373698.35023
  22744711.1784   -7545259.61846  -5817862.56161
 91  4 22 21 19 44.9980000  0  6G18G 2G11G16G19G 6
  22284557.6624    9173592.80346   7148226.23061
  21085536.8034  -13661261.07447 -10645099.53763
  22576898.0064   -5267033.45446  -4104165.74361
  23350100.0144   -4016036.78646  -2976213.33461
  20674113.967     -472145.332 6   -367907.96423
  22737723.451    -7581978.241 6  -5846474.38521
 91  4 22 21 19 59.9980000  0  6G18G 2G11G16G19G 6
  22292798.811     9216906.325 6   7181976.85421
  21079777.1784  -13691539.02347 -10668692.68563
  22578382.1004   -5259246.64246  -4098098.10461
  23350553.1784   -4013649.94346  -2974353.52061
  20675536.537     -464653.523 7   -362070.20023
  22730738.6544   -7618685.95246  -5875077.71261
 91  4 22 21 20 14.9980000  0  6G18G 2G11G16G19G 6
  22301054.936     9260287.780 6   7215780.41621
  21074030.4204  -13721733.94547 -10692221.14063
  22579893.0534   -5251304.67446  -4091909.54861
  23351031.5614   -4011134.81246  -2972393.75661
  20676978.615     -457099.225 6   -356183.75023
  22723754.850    -7655381.003 6  -5903671.17921
 91  4 22 21 20 29.9980000  0  6G18G 2G11G16G19G 6
  22309321.9674    9303732.10346   7249632.99561
  21068297.6704  -13751850.66447 -10715688.65663
  22581431.178    -5243212.299 6  -4085603.82121
  23351533.756    -4008496.088 6  -2970337.66321
  20678429.982     -449486.990 6   -350252.16023
  22716774.451    -7692068.068 6  -5932258.41221
 91  4 22 21 20 44.9980000  0  6G18G 2G11G16G19G 6
  22317601.1864    9347237.70846   7283533.31461
  21062582.1394  -13781890.56747 -10739096.31263
  22583001.2174   -5234970.92346  -4079181.96761
  23352061.2794   -4005735.59045  -2968186.70161
  20679886.803     -441818.006 6   -344276.34723
  22709790.928    -7728748.470 6  -5960840.45721
 91  4 22 21 20 59.9980000  0  6G18G 2G11G16G19G 6
  22325891.928     9390809.455 6   7317485.15621
  21056882.1624  -13811848.58447 -10762440.16363
  22584596.1234   -5226575.77146  -4072640.29261
  23352610.0064   -4002848.34445  -2965936.96561
  20681359.826     -434087.167 6   -338252.33423
  22702816.2564   -7765417.21346  -5989413.43361
 91  4 22 21 21 14.9980000  0  6G18G 2G11G16G19G 6
  22334195.670     9434445.782 6   7351487.31321
  21051195.2564  -13841726.00547 -10785721.21163
  22586224.443    -5218028.230 6  -4065979.87021
  23353183.897    -3999835.879 5  -2963589.64021
  20682841.061     -426295.669 6   -332181.05523
  22695841.6864   -7802075.52446  -6017978.26161
 91  4 22 21 21 29.9980000  0  6G18G 2G11G16G19G 6
  22342512.225     9478146.342 6   7385539.53321
  21045525.6004  -13871522.66747 -10808939.33463
  22587880.1154   -5209328.22746  -4059200.64261
  23353779.506    -3996698.144 5  -2961144.72321
  20684332.131     -418443.414 7   -326062.43023
  22688864.4674   -7838723.26746  -6046534.85761
 91  4 22 21 21 44.9980000  0  6G18G 2G11G16G19G 6
  22350840.787     9521907.294 6   7419638.84121
  21039870.7404  -13901242.21047 -10832097.36163
  22589565.3974   -5200479.47546  -4052305.51461
  23354399.0684   -3993439.10345  -2958605.27261
  20685837.584     -410533.977 6   -319899.25123
  22681895.7484   -7875364.06146  -6075086.03761
 91  4 22 21 21 59.9980000  0  6G18G 2G11G16G19G 6
  22359180.029     9565731.765 6   7453787.61921
  21034230.2794  -13930881.26247 -10855192.66863
  22591275.7564   -5191478.76146  -4045291.97361
  23355045.7254   -3990055.71245  -2955968.93961
  20687358.397     -402564.085 6   -313688.96923
  22674921.662    -7911994.665 6  -6103629.25021
 91  4 22 21 22 14.9980000  0  6G18G 2G11G16G19G 6
  22367531.2174    9609620.17246   7487986.19861
  21028604.8894  -13960439.02747 -10878224.63763
  22593017.9824   -5182325.46346  -4038159.53561
  23355710.787    -3986547.308 5  -2953235.17721
  20688884.529     -394532.846 6   -307430.88123
  22667953.9364   -7948614.27146  -6132163.91261
 91  4 22 21 22 29.9980000  0  6G18G 2G11G16G19G 6
  22375897.225     9653570.542 6   7522233.06421
  21022994.881   -13989917.455 7 -10901194.78423
  22594790.9204   -5173021.48946  -4030909.68761
  23356403.9124   -3982915.90145  -2950405.58761
  20690421.920     -386442.115 7   -301126.42923
  22660987.7094   -7985224.77646  -6160691.47761
 91  4 22 21 22 44.9980000  0  6G18G 2G11G16G19G 6
  22384270.7094    9697583.44846   7556528.69261
  21017402.1004  -14019315.51047 -10924102.29963
  22596589.9284   -5163565.90546  -4023541.70161
  23357117.615    -3979160.364 5  -2947479.26721
  20691975.740     -378290.785 6   -294774.75823
  22654022.529    -8021824.961 6  -6189210.99521
 91  4 22 21 22 59.9980000  0  6G18G 2G11G16G19G 6
  22392658.1234    9741662.91946   7590876.17661
  21011823.529   -14048628.927 7 -10946943.86823
  22598419.0374   -5153954.69346  -4016052.44361
  23357853.318    -3975276.846 5  -2944453.25621
  20693536.803     -370074.513 7   -288372.48923
  22647061.1154   -8058410.72546  -6217719.29361
 91  4 22 21 23 14.9980000  0  6G18G 2G11G16G19G 6
  22401059.7484    9785804.38646   7625271.95561
  21006259.1074  -14077862.07447 -10969722.88663
  22600276.9124   -5144192.30146  -4008445.38561
  23358618.459    -3971270.074 5  -2941331.14021
  20695114.701     -361797.520 6   -281922.90823
  22640104.5374   -8094986.33046  -6246219.67561
 91  4 22 21 23 29.9980000  0  6G18G 2G11G16G19G 6
  22409468.912     9830007.139 6   7659715.47821
  21000712.5294  -14107015.45047 -10992439.74463
  22602162.2954   -5134279.29746  -4000720.97361
  23359405.607    -3967140.579 5  -2938113.44921
  20696697.217     -353460.120 7   -275426.24523
  22633142.7564   -8131552.23446  -6274712.48961
 91  4 22 21 23 44.9980000  0  6G18G 2G11G16G19G 6
  22417893.600     9874269.760 6   7694205.66721
  20995179.834   -14136090.143 7 -11015095.29723
  22604077.3814   -5124216.95446  -3992880.19761
  23360212.647    -3962889.474 5  -2934800.94121
  20698298.615     -345063.443 7   -268883.39923
  22626184.826    -8168109.557 6  -6303198.62821
 91  4 22 21 23 59.9980000  0  6G18G 2G11G16G19G 6
  22426327.6864    9918593.11546   7728743.17761
  20989662.975   -14165084.961 7 -11037688.60423
  22606021.5224   -5114004.18046  -3984922.18961
  23361046.115    -3958515.697 5  -2931392.87221
  20699908.6004    -336606.37146   -262293.49563
  22619227.889    -8204657.080 6  -6331677.12621
 91  4 22 21 24 14.9980000  0  6G18G 2G11G16G19G 6
  22434775.381     9962979.528 6   7763329.81521
  20984159.928   -14193997.527 7 -11060217.82123
  22607992.1074   -5103638.84646  -3976845.32161
  23361903.7094   -3954017.66145  -2927888.01161
  20701530.889     -328086.354 6   -255654.55123
  22612277.7484   -8241192.61946  -6360146.29361
 91  4 22 21 24 29.9980000  0  6G18G 2G11G16G19G 6
  22443230.5374   10007422.33946   7797960.41661
  20978673.3034  -14222833.97747 -11082687.72963
  22609992.2794   -5093127.05946  -3968654.32161
  23362780.5684   -3949401.43545  -2924291.02661
  20703159.623     -319509.302 6   -248971.14923
  22605325.232    -8277722.023 6  -6388610.68121
 91  4 22 21 24 44.9980000  0  6G18G 2G11G16G19G 6
  22451700.482    10051926.657 6   7832638.94421
  20973201.404   -14251589.042 7 -11105094.21523
  22612022.3264   -5082463.76646  -3960345.27061
  23363683.0224   -3944661.91845  -2920597.96061
  20704804.889     -310869.998 6   -242239.24623
  22598375.4124   -8314240.09546  -6417066.23361
 91  4 22 21 24 59.9980000  0  6G18G 2G11G16G19G 6
  22460182.568    10096489.700 6   7867363.22421
  20967744.279   -14280265.219 7 -11127439.23523
  22614079.8654   -5071651.54246  -3951920.16461
  23364607.3114   -3939801.58345  -2916810.74561
  20706460.6704    -302170.86446   -235460.71963
  22591430.240    -8350749.191 6  -6445514.80321
 91  4 22 21 25 14.9980000  0  6G18G 2G11G16G19G 6
  22468672.7644   10141113.08346   7902134.51261
  20962302.420   -14308860.376 7 -11149721.11923
  22616164.6004   -5060688.37646  -3943377.43761
  23365558.1624   -3934818.54045  -2912927.91361
  20708129.217     -293409.470 6   -228633.66823
  22584484.475    -8387247.177 6  -6473954.71521
 91  4 22 21 25 29.9980000  0  6G18G 2G11G16G19G 6
  22477174.8344   10185794.05646   7936950.67561
  20956874.865   -14337377.353 7 -11171942.08623
  22618279.8574   -5049577.25046  -3934719.42161
  23366525.5374   -3929715.80745  -2908951.86761
  20709804.592     -284588.832 7   -221760.46723
  22577541.6314   -8423736.92746  -6502388.20461
 91  4 22 21 25 44.9980000  0  6G18G 2G11G16G19G 6
  22485689.779    10230535.045 6   7971813.60321
  20951463.9984  -14365813.48847 -11194100.05963
  22620421.9364   -5038315.55546  -3925944.08061
  23367522.6394   -3924490.96845  -2904880.63661
  20711497.490     -275706.148 7   -214838.91223
  22570600.123    -8460215.782 6  -6530813.20121
 91  4 22 21 25 59.9980000  0  6G18G 2G11G16G19G 6
  22494215.029    10275335.556 6   8006722.92721
  20946068.7954  -14394168.93747 -11216195.15763
  22622594.1154   -5026903.67246  -3917051.70561
  23368539.2094   -3919144.66945  -2900714.75761
  20713197.061     -266761.568 7   -207869.13023
  22563657.561    -8496683.813 5  -6559229.75921
 91  4 22 21 26 14.9980000  0  6G18G 2G11G16G19G 6
  22502750.373    10320195.672 6   8041678.70421
  20940688.264   -14422443.303 7 -11238227.08023
  22624794.7014   -5015341.30046  -3908042.07361
  23369580.482    -3913676.729 5  -2896454.10821
  20714913.522     -257754.572 7   -200850.71823
  22556721.4434   -8533140.55945  -6587637.52861
 91  4 22 21 26 29.9980000  0  6G18G 2G11G16G19G 6
  22511301.217    10365112.884 6   8076678.93521
  20935321.8264  -14450638.86547 -11260197.58963
  22627022.6544   -5003630.95746  -3898917.13261
  23370645.186    -3908089.343 5  -2892100.36321
  20716635.553     -248687.486 7   -193785.47023
  22549787.1474   -8569588.37345  -6616038.32161
 91  4 22 21 26 44.9980000  0  6G18G 2G11G16G19G 6
  22519856.764    10410086.512 6   8111723.11321
  20929972.279   -14478755.896 7 -11282106.91023
  22629279.2254   -4991772.97046  -3889677.14861
  23371730.8344   -3902382.75445  -2887653.74761
  20718376.857     -239560.400 7   -186673.47323
  22542851.5614   -8606027.48545  -6644432.34361
 91  4 22 21 26 59.9980000  0  6G18G 2G11G16G19G 6
  22528425.8894   10455113.34846   8146808.77561
  20924635.920   -14506797.344 7 -11303957.33323
  22631562.4364   -4979770.24146  -3880324.38361
  23372838.4364   -3896560.09645  -2883116.67061
  20720121.217     -230375.990 7   -179516.81223
  22535918.6074   -8642460.62245  -6672821.71061
 91  4 22 21 27 14.9980000  0  6G18G 2G11G16G19G 6
  22537005.420    10500195.144 6   8181937.27121
  20919314.287   -14534761.293 7 -11325747.37023
  22633876.0224   -4967621.16746  -3870857.57261
  23373967.342    -3890620.231 5  -2878488.28521
  20721881.732     -221132.485 6   -172314.09823
  22528983.5684   -8678886.05946  -6701205.07761
 91  4 22 21 27 29.9980000  0  6G18G 2G11G16G19G 6
  22545595.115    10545333.138 6   8217109.56021
  20914007.865   -14562646.273 7 -11347475.87023
  22636216.834    -4955324.492 6  -3861275.76221
  23375120.4904   -3884561.52045  -2873767.28461
  20723649.943     -211828.369 7   -165064.15823
  22522057.8264   -8715302.30646  -6729581.28561
 91  4 22 21 27 44.9980000  0  6G18G 2G11G16G19G 6
  22554196.4204   10590530.08046   8252327.77261
  20908717.654   -14590449.371 7 -11369140.57123
  22638585.1394   -4942877.47346  -3851576.78961
  23376294.748    -3878380.925 5  -2868951.31021
  20725435.998     -202460.625 6   -157764.63723
  22515129.998    -8751706.310 6  -6757947.96121
 91  4 22 21 27 59.9980000  0  6G18G 2G11G16G19G 6
  22562805.857    10635777.820 6   8287585.55821
  20903440.357   -14618178.420 7 -11390747.56923
  22640979.8734   -4930287.95846  -3841766.78361
  23377494.225    -3872087.091 5  -2864047.09621
  20727225.982     -193036.853 7   -150421.45523
  22508202.951    -8788105.944 6  -6786311.22821
 91  4 22 21 28 14.9980000  0  6G18G 2G11G16G19G 6
  22571428.8574   10681085.00146   8322889.66261
  20898180.053   -14645824.368 8 -11412289.81523
  22643403.1004   -4917547.17346  -3831838.89861
  23378716.2404   -3865671.22545  -2859047.80861
  20729034.201     -183548.094 6   -143027.64223
  22501279.959    -8824492.056 6  -6814663.96121
 91  4 22 21 28 29.9980000  0  6G18G 2G11G16G19G 6
  22580060.787    10726449.040 6   8358238.05821
  20892934.342   -14673389.596 7 -11433769.16223
  22645855.8894   -4904657.43346  -3821794.95061
  23379954.5764   -3859135.43045  -2853955.05361
  20730851.381     -173996.716 6   -135585.02823
  22494356.3114   -8860867.00746  -6843007.99461
 91  4 22 21 28 44.9980000  0  6G18G 2G11G16G19G 6
  22588703.6314   10771873.06046   8393633.22561
  20887705.217   -14700870.784 7 -11455183.02623
  22648340.272    -4891615.625 6  -3811632.52121
  23381223.3504   -3852477.03144  -2848766.77161
  20732682.365     -164379.191 6   -128090.87223
  22487437.248    -8897227.320 6  -6871340.62321
 91  4 22 21 28 59.9980000  0  6G18G 2G11G16G19G 6
  22597358.404    10817349.698 6   8429069.38121
  20882489.553   -14728275.069 8 -11476536.96323
  22650848.6704   -4878428.98246  -3801357.22061
  23382514.6394   -3845703.22045  -2843488.53361
  20734520.623     -154702.578 6   -120550.67223
  22480520.889    -8933580.248 6  -6899667.50021
 91  4 22 21 29 14.9980000  0  6G18G 2G11G16G19G 6
  22606022.1314   10862875.94446   8464544.19361
  20877288.4594  -14755604.99447 -11497832.95563
  22653383.5534   -4865100.22346  -3790971.18261
  23383825.8654   -3838816.41845  -2838122.29661
  20736375.936     -144969.506 6   -112966.48323
  22473603.639    -8969928.259 6  -6927990.54321
 91  4 22 21 29 29.9980000  0  6G18G 2G11G16G19G 6
  22614696.037    10908457.855 6   8500062.37121
  20872103.654   -14782854.380 7 -11519066.19223
  22655948.0144   -4851623.17446  -3780469.59661
  23385157.357    -3831810.979 5  -2832663.58921
  20738240.522     -135173.371 6   -105333.14323
  22466688.373    -9006265.054 6  -6956304.85321
 91  4 22 21 29 44.9980000  0  6G18G 2G11G16G19G 6
  22623379.772    10954095.187 6   8535623.72921
  20866933.123   -14810023.296 7 -11540236.72723
  22658542.3504   -4837998.19046  -3769852.73161
  23386513.0614   -3824686.97745  -2827112.50161
  20740115.959     -125314.296 6    -97650.77323
  22459775.084    -9042590.570 6  -6984610.37821
 91  4 22 21 29 59.9980000  0  6G18G 2G11G16G19G 6
  22632075.592    10999787.167 6   8571227.67921
  20861778.709   -14837112.116 7 -11561344.84523
  22661161.615    -4824225.865 6  -3759121.05821
  23387891.209    -3817445.068 5  -2821469.54521
  20742003.553     -115392.606 7    -89919.61223
  22452865.490    -9078905.349 6  -7012907.53421
 91  4 22 21 30 14.9980000  0  6G18G 2G11G16G19G 6
  22640781.2874   11045531.42146   8606872.34761
  20856638.451   -14864123.055 7 -11582392.27723
  22663811.1544   -4810308.51346  -3748276.37161
  23389292.350    -3810087.724 5  -2815736.63921
  20743903.123     -105410.382 6    -82141.28223
  22445956.0144   -9115211.49746  -7041197.94161
 91  4 22 21 30 29.9980000  0  6G18G 2G11G16G19G 6
  22649495.2954   11091329.07546   8642558.63561
  20851512.639   -14891054.609 7 -11603377.85223
  22666488.0294   -4796244.75146  -3737317.59661
  23390715.920    -3802613.461 5  -2809912.63621
  20745813.4124     -95366.03447    -74314.54163
  22439049.084    -9151507.399 6  -7069480.38621
 91  4 22 21 30 44.9980000  0  6G18G 2G11G16G19G 6
  22658221.9124   11137180.08346   8678286.52361
  20846403.732   -14917906.708 7 -11624301.51323
  22669190.8034   -4782034.71246  -3726244.84561
  23392158.1624   -3795022.71845  -2803997.85261
  20747740.107      -85259.626 6    -66439.43723
  22432145.139    -9187793.081 6  -7097754.87321
 91  4 22 21 30 59.9980000  0  6G18G 2G11G16G19G 6
  22666955.7874   11183085.20746   8714056.56861
  20841308.420   -14944678.060 7 -11645162.25823
  22671924.9754   -4767677.25946  -3715057.23061
  23393627.6004   -3787314.39745  -2797991.42361
  20749670.061      -75089.568 7    -58514.73423
  22425241.5374   -9224067.10646  -7126020.26161
 91  4 22 21 31 14.9980000  0  6G18G 2G11G16G19G 6
  22675702.6544   11229038.20146   8749863.88961
  20836228.811   -14971374.906 7 -11665964.93923
  22674684.7644   -4753178.76246  -3703759.69961
  23395113.4044   -3779495.07945  -2791898.53861
  20751619.139      -64862.016 6    -50545.23823
  22418338.959    -9260335.710 6  -7154281.44121
 91  4 22 21 31 29.9980000  0  6G18G 2G11G16G19G 6
  22684454.9514   11275041.32946   8785710.27161
  20831162.647   -14997994.774 7 -11686707.64323
  22677468.8114   -4738536.88546  -3692350.44061
  23396624.4124   -3771562.04745  -2785717.03461
  20753577.834      -54574.351 6    -42528.89423
  22411439.178    -9296596.308 6  -7182536.37321
 91  4 22 21 31 44.9980000  0  6G18G 2G11G16G19G 6
  22693220.240    11321094.976 6   8821596.03721
  20826111.834   -15024536.816 7 -11707389.70523
  22680281.8974   -4723750.91946  -3680828.91261
  23398153.2484   -3763514.95945  -2779446.66961
  20755547.928      -44225.823 7    -34465.12823
  22404541.600    -9332848.076 6  -7210784.42421
 91  4 22 21 31 59.9980000  0  6G18G 2G11G16G19G 6
  22701992.764    11367196.575 6   8857519.17221
  20821076.561   -15051003.415 7 -11728012.97523
  22683121.8894   -4708823.42746  -3669197.10261
  23399710.662    -3755356.460 5  -2773089.47221
  20757525.7954     -33818.64147    -26355.66363
  22397643.022    -9369093.368 6  -7239027.43721
 91  4 22 21 32 14.9980000  0  6G18G 2G11G16G19G 6
  22710775.8344   11413348.26146   8893481.34061
  20816054.303   -15077392.110 7 -11748575.54323
  22685991.1074   -4693752.19046  -3657453.28261
  23401279.623    -3747084.313 5  -2766643.72221
  20759519.881      -23350.404 6    -18198.62123
  22390748.584    -9405329.726 6  -7267263.48021
 91  4 22 21 32 29.9980000  0  6G18G 2G11G16G19G 6
  22719566.1864   11459546.02246   8929479.39761
  20811046.279   -15103706.887 7 -11769080.51323
  22688886.6154   -4678541.22546  -3645600.58261
  23402877.7324   -3738702.70045  -2760112.69161
  20761519.311      -12824.856 7     -9996.90923
  22383851.975    -9441560.858 6  -7295495.45621
 91  4 22 21 32 44.9980000  0  6G18G 2G11G16G19G 6
  22728366.9124   11505790.35146   8965513.73661
  20806052.670   -15129946.780 7 -11789527.13323
  22691807.9044   -4663189.66846  -3633638.33061
  23404491.2014   -3730210.30345  -2753495.29561
  20763537.568       -2240.856 6     -1749.65623
  22376960.170    -9477785.734 6  -7323722.55421
 91  4 22 21 32 59.9980000  0  6G18G 2G11G16G19G 6
  22737175.3814   11552081.86446   9001584.82261
  20801073.5144  -15156110.85447 -11809914.66563
  22694755.2954   -4647696.79146  -3621565.97161
  23406131.9824   -3721606.87345  -2746791.42861
  20765562.107        8402.478 6      6543.82723
  22370067.287    -9514003.442 6  -7351944.06521
 91  4 22 21 33 14.9980000  0  6G18G 2G11G16G19G 6
  22745994.3654   11598421.37846   9037693.32961
  20796109.193   -15182198.214 7 -11830242.42223
  22697731.9514   -4632061.98546  -3609383.00761
  23407790.201    -3712891.897 5  -2740000.61821
  20767597.748       19106.049 6     14884.25323
  22363179.029    -9550213.088 6  -7380159.30021
 91  4 22 21 33 29.9980000  0  6G18G 2G11G16G19G 6
  22754820.3814   11644809.28846   9073839.54661
  20791160.7484  -15208208.10547 -11850509.81963
  22700732.9594   -4616284.67146  -3597088.99761
  23409466.857    -3704064.672 5  -2733122.32921
  20769648.397       29870.628 6     23272.21023
  22356288.678    -9586413.954 6  -7408367.68321
 91  4 22 21 33 44.9980000  0  6G18G 2G11G16G19G 6
  22763658.2174   11691243.67446   9110021.98161
  20786225.748   -15234142.314 8 -11870718.23823
  22703761.373    -4600366.830 6  -3584685.49121
  23411165.7564   -3695127.01045  -2726158.00661
  20771708.3114      40694.87847     31706.66163
  22349400.537    -9622607.579 6  -7436570.42021
 91  4 22 21 33 59.9980000  0  6G18G 2G11G16G19G 6
  22772505.209    11737730.103 6   9146244.97421
  20781304.779   -15259994.977 7 -11890863.12223
  22706818.7094   -4584302.71546  -3572168.00061
  23412892.6474   -3686073.70245  -2719103.57461
  20773775.5224      51584.58747     40192.12263
  22342517.170    -9658788.165 6  -7464763.00121
 91  4 22 21 34 14.9980000  0  6G18G 2G11G16G19G 6
  22781358.9904   11784262.52746   9182503.80361
  20776400.115   -15285771.950 8 -11910949.01723
  22709902.2254   -4568098.19946  -3559541.10161
  23414636.4674   -3676910.41245  -2711963.43861
  20775864.842       62534.094 7     48724.18523
  22335632.404    -9694961.452 6  -7492949.90121
 91  4 22 21 34 29.9980000  0  6G18G 2G11G16G19G 6
  22790223.6624   11830843.56746   9218800.50461
  20771510.803   -15311470.242 8 -11930973.61123
  22713014.1004   -4551750.46746  -3546802.62061
  23416402.123    -3667634.483 5  -2704735.52821
  20777957.561       73546.315 6     57305.11023
  22328749.193    -9731124.366 6  -7521128.70621
 91  4 22 21 34 44.9980000  0  6G18G 2G11G16G19G 6
  22799098.3974   11877472.77846   9255134.73761
  20766635.029   -15337089.929 8 -11950936.95323
  22716149.9594   -4535259.84746  -3533952.78861
  23418192.1314   -3658246.31945  -2697420.16461
  20780066.686       84621.290 7     65934.94023
  22321870.576    -9767276.934 6  -7549299.46921
 91  4 22 21 34 59.9980000  0  6G18G 2G11G16G19G 6
  22807981.6474   11924144.55946   9291502.13961
  20761773.881   -15362636.537 8 -11970843.34423
  22719315.7174   -4518632.08446  -3520996.09761
  23419996.139    -3648751.698 5  -2690021.85221
  20782181.178       95753.585 7     74609.43323
  22314992.2954   -9803424.65846  -7577466.44461
 91  4 22 21 35 14.9980000  0  6G18G 2G11G16G19G 6
  22816866.811    11970863.945 6   9327906.62521
  20756927.592   -15388104.577 8 -11990688.51923
  22722505.5844   -4501861.88346  -3507928.41661
  23421823.8034   -3639145.53645  -2682536.63061
  20784314.748      106948.727 7     83332.90123
  22308114.639    -9839562.035 6  -7605625.35921
 91  4 22 21 35 29.9980000  0  6G18G 2G11G16G19G 6
  22825768.4904   12017629.94246   9364347.44861
  20752094.818   -15413494.904 8 -12010473.14023
  22725724.4754   -4484950.00346  -3494750.31861
  23423672.420    -3629428.423 5  -2674964.94721
  20786454.592      118206.202 7     92104.93523
  22301240.686    -9875689.594 6  -7633776.63021
 91  4 22 21 35 44.9980000  0  6G18G 2G11G16G19G 6
  22834676.5844   12064442.33346   9400824.42961
  20747278.662   -15438807.471 8 -12030197.16323
  22728971.1074   -4467896.64346  -3481461.99561
  23425543.5144   -3619600.66845  -2667307.04261
  20788610.7094     129525.96946    100925.50363
  22294368.7254   -9911807.33146  -7661920.25261
 91  4 22 21 35 59.9980000  0  6G18G 2G11G16G19G 6
  22843591.9754   12111296.82546   9437334.21061
  20742475.107   -15464046.642 8 -12049864.00023
  22732240.9674   -4450706.44646  -3468067.04861
  23427434.5764   -3609666.94345  -2659566.56761
  20790774.256      140903.678 7    109791.22723
  22287496.0684   -9947919.69646  -7690059.69661
 91  4 22 21 36 14.9980000  0  6G18G 2G11G16G19G 6
  22852515.615    12158194.573 6   9473877.68021
  20737687.209   -15489210.674 8 -12069472.29023
  22735536.1004   -4433377.78646  -3454564.20461
  23429344.162    -3599625.729 5  -2651742.34921
  20792953.2254     152341.18646    118703.54063
  22280624.5144   -9984024.69946  -7718193.40261
 91  4 22 21 36 29.9980000  0  6G18G 2G11G16G19G 6
  22861448.8114   12205136.46446   9510455.54061
  20732912.076   -15514298.254 8 -12089021.00623
  22738861.6544   -4415909.73246  -3440952.74061
  23431275.2324   -3589475.97245  -2643833.54761
  20795141.553      163839.786 6    127663.47023
  22273756.451   -10020121.228 6  -7746320.50121
 91  4 22 21 36 44.9980000  0  6G18G 2G11G16G19G 6
  22870391.990    12252122.805 6   9547068.04521
  20728153.811   -15539309.003 8 -12108509.85123
  22742213.3114   -4398301.98246  -3427232.41761
  23433225.9124   -3579217.33145  -2635839.88161
  20797341.186      175400.167 6    136671.53823
  22266888.9204  -10056208.55146  -7774440.42261
 91  4 22 21 36 59.9980000  0  6G18G 2G11G16G19G 6
  22879343.045    12299156.456 6   9583717.42621
  20723409.647   -15564240.066 8 -12127936.60823
  22745590.9364   -4380551.69746  -3413401.03561
  23435199.5224   -3568847.22145  -2627759.37861
  20799550.834      187025.251 6    145730.02523
  22260024.0844  -10092283.76046  -7802550.91161
 91  4 22 21 37 14.9980000  0  6G18G 2G11G16G19G 6
  22888300.4124   12346234.94846   9620401.74861
  20718679.272   -15589093.494 8 -12147302.86923
  22748994.3184   -4362661.04546  -3399460.27161
  23437196.061    -3558368.049 5  -2619593.87721
  20801777.107      198713.135 6    154837.45223
  22253160.9434  -10128348.82946  -7830653.48861
 91  4 22 21 37 29.9980000  0  6G18G 2G11G16G19G 6
  22897268.514    12393354.945 6   9657118.40321
  20713965.404   -15613872.155 8 -12166610.86823
  22752425.9124   -4344633.17146  -3385412.58061
  23439209.959    -3547782.702 5  -2611345.64121
  20804013.8424     210461.01846    163991.62163
  22246297.5764  -10164406.50146  -7858750.30261
 91  4 22 21 37 44.9980000  0  6G18G 2G11G16G19G 6
  22906242.9514   12440517.78546   9693868.44361
  20709264.303   -15638574.560 8 -12185859.44823
  22755883.389    -4326466.880 6  -3371257.04221
  23441244.6474   -3537090.27945  -2603013.98061
  20806260.084      222270.345 6    173193.67423
  22239438.193   -10200455.442 6  -7886840.30621
 91  4 22 21 37 59.9980000  0  6G18G 2G11G16G19G 6
  22915226.7724   12487725.58946   9730653.50161
  20704577.803   -15663198.566 8 -12205046.93523
  22759366.3184   -4308160.13646  -3356992.05661
  23443297.912    -3526288.866 5  -2594597.40621
  20808517.561      234143.335 7    182445.32923
  22232582.459   -10236493.394 6  -7914921.74921
 91  4 22 21 38 14.9980000  0  6G18G 2G11G16G19G 6
  22924218.178    12534977.251 6   9767472.74721
  20699906.959   -15687744.913 8 -12224173.91223
  22762878.537    -4289713.918 6  -3342618.38521
  23445376.897    -3515379.091 5  -2586096.34921
  20810790.553      246079.440 6    191746.16923
  22225723.100   -10272520.969 6  -7942995.11121
 91  4 22 21 38 29.9980000  0  6G18G 2G11G16G19G 6
  22933218.4754   12582272.17446   9804325.69761
  20695249.982   -15712213.820 8 -12243240.54623
  22766413.6154   -4271128.60246  -3328136.32761
  23447471.006    -3504361.743 5  -2577511.48621
  20813071.193      258078.570 7    201096.11923
  22218871.240   -10308538.285 6  -7971060.46821
 91  4 22 21 38 44.9980000  0  6G18G 2G11G16G19G 6
  22942224.4284   12629603.77046   9841207.22061
  20690608.248   -15736611.369 8 -12262251.57523
  22769973.8814   -4252410.43446  -3313550.75061
  23449588.6544   -3493243.24245  -2568847.81161
  20815369.3504     270134.70146    210490.47563
  22212019.0144  -10344551.49046  -7999122.61561
 91  4 22 21 38 59.9980000  0  6G18G 2G11G16G19G 6
  22951240.436    12676977.268 6   9878121.40621
  20685980.107   -15760932.548 8 -12281203.09723
  22773563.7724   -4233554.73146  -3298858.00461
  23451726.3574   -3482018.41145  -2560101.27761
  20817671.943      282252.777 7    219933.10923
  22205166.8034  -10380555.43546  -8027177.55961
 91  4 22 21 39 14.9980000  0  6G18G 2G11G16G19G 6
  22960264.9904   12724398.69046   9915072.92761
  20681367.248   -15785171.004 8 -12300090.15423
  22777179.7644   -4214555.02646  -3284053.03961
  23453881.607    -3470681.003 4  -2551267.02021
  20819993.701      294439.427 6    229429.18523
  22198317.326   -10416543.492 6  -8055220.11921
 91  4 22 21 39 29.9980000  0  6G18G 2G11G16G19G 6
  22969296.1474   12771856.98746   9952053.17161
  20676768.818   -15809337.557 8 -12318921.18623
  22780819.9984   -4195422.42846  -3269144.52361
  23456060.5844   -3459242.52345  -2542354.04461
  20822320.123      306683.829 7    238970.25523
  22191469.982   -10452526.440 6  -8083258.70221
 91  4 22 21 39 44.9980000  0  6G18G 2G11G16G19G 6
  22978334.7174   12819355.54746   9989064.79361
  20672184.053   -15833428.343 7 -12337693.18023
  22784486.4044   -4176153.28446  -3254129.60361
  23458253.4434   -3447699.10344  -2533359.28561
  20824665.178      318990.001 6    248559.45723
  22184625.7404  -10488500.41646  -8111290.30661
 91  4 22 21 39 59.9980000  0  6G18G 2G11G16G19G 6
  22987379.7324   12866895.30446  10026108.52261
  20667614.240   -15857442.216 7 -12356405.23823
  22788181.1474   -4156746.60946  -3239007.51861
  23460474.5064   -3436049.88644  -2524282.06661
  20827014.951      331359.190 6    258197.76823
  22177782.014   -10524464.129 6  -8139313.90721
 91  4 22 21 40 14.9980000  0  6G18G 2G11G16G19G 6
  22996433.8734   12914474.13346  10063182.70061
  20663057.881   -15881381.347 7 -12375059.06123
  22791896.7254   -4137204.76446  -3223780.11661
  23462708.787    -3424297.103 5  -2515124.16521
  20829383.717      343789.237 6    267883.50323
  22170940.0924  -10560419.68246  -8167331.15061
 91  4 22 21 40 29.9980000  0  6G18G 2G11G16G19G 6
  23005495.725    12962090.201 6  10100285.87521
  20658516.178   -15905247.365 7 -12393655.90623
  22795642.6004   -4117529.46246  -3208448.71961
  23464965.5224   -3412442.68645  -2505887.05461
  20831757.506      356278.697 6    277615.52423
  22164100.0534  -10596368.62846  -8195343.24461
 91  4 22 21 40 44.9980000  0  6G18G 2G11G16G19G 6
  23014566.3424   13009748.01445  10137421.57061
  20653990.811   -15929034.978 7 -12412191.65623
  22799414.1474   -4097715.81846  -3193009.52161
  23467239.029    -3400481.761 5  -2496566.95421
  20834149.584      368832.962 6    287398.05323
  22157259.779   -10632305.599 6  -8223346.00521
 91  4 22 21 40 59.9980000  0  6G18G 2G11G16G19G 6
  23023640.2174   13057443.72645  10174586.82261
  20649478.272   -15952748.227 8 -12430669.46323
  22803209.9754   -4077767.85946  -3177465.65861
  23469535.8974   -3388418.46145  -2487167.07261
  20836547.615      381448.170 6    297228.06423
  22150422.8734  -10668234.57446  -8251342.55161
 91  4 22 21 41 14.9980000  0  6G18G 2G11G16G19G 6
  23032725.178    13105178.291 6  10211782.33121
  20644979.506   -15976385.513 8 -12449088.08423
  22807029.3734   -4057684.27246  -3161816.12461
  23471852.193    -3376251.443 5  -2477686.38421
  20838964.342      394125.870 6    307106.76723
  22143588.2014  -10704153.87746  -8279331.56361
 91  4 22 21 41 29.9980000  0  6G18G 2G11G16G19G 6
  23041817.6234   13152951.82746  10249008.22961
  20640496.725   -15999946.485 8 -12467447.23123
  22810877.8344   -4037464.87846  -3146060.75861
  23474187.7724   -3363980.18145  -2468124.43961
  20841385.084      406866.624 6    317034.60123
  22136754.5614  -10740062.98546  -8307312.60861
 91  4 22 21 41 44.9980000  0  6G18G 2G11G16G19G 6
  23050915.365    13200762.518 6  10286263.06421
  20636026.982   -16023432.796 8 -12485748.20323
  22814750.8504   -4017111.61346  -3130201.07961
  23476537.334    -3351607.126 5  -2458483.19121
  20843823.865      419668.747 6    327010.25823
  22129921.889   -10775963.539 6  -8335286.99321
 91  4 22 21 41 59.9980000  0  6G18G 2G11G16G19G 6
  23060021.2324   13248614.49546  10323550.07861
  20631572.420   -16046840.412 8 -12503987.85223
  22818649.7254   -3996620.75746  -3114234.17961
  23478916.2954   -3339128.52645  -2448759.73961
  20846271.787      432536.273 6    337036.87923
  22123093.365   -10811851.525 6  -8363251.58021
 91  4 22 21 42 14.9980000  0  6G18G 2G11G16G19G 6
  23069136.8184   13296504.46945  10360866.68361
  20627132.615   -16070172.288 8 -12522168.48623
  22822577.0614   -3975995.19946  -3098162.32461
  23481313.068    -3326547.457 5  -2438956.38721
  20848732.709      445466.626 6    347112.46523
  22116265.693   -10847729.594 6  -8391208.43321
 91  4 22 21 42 29.9980000  0  6G18G 2G11G16G19G 6
  23078257.053    13344433.811 5  10398213.96721
  20622708.553   -16093426.792 8 -12540288.83023
  22826525.7874   -3955233.56246  -3081984.43661
  23483724.787    -3313862.472 5  -2429072.06921
  20851203.475      458461.641 6    357238.42523
  22109441.350   -10883596.147 6  -8419156.31721
 91  4 22 21 42 44.9980000  0  6G18G 2G11G16G19G 6
  23087384.3894   13392399.97945  10435589.95761
  20618296.732   -16116605.966 8 -12558350.47723
  22830503.1474   -3934338.17146  -3065702.31961
  23486156.920    -3301075.886 5  -2419108.63021
  20853691.850      471519.185 6    367413.11123
  22102617.420   -10919453.063 6  -8447096.68821
 91  4 22 21 42 59.9980000  0  6G18G 2G11G16G19G 6
  23096517.576    13440402.300 5  10472994.10421
  20613900.311   -16139710.434 8 -12576353.90623
  22834504.154    -3913309.605 6  -3049316.44121
  23488610.803    -3288188.433 5  -2409066.54021
  20856185.045      484638.706 6    377636.09423
  22095795.178   -10955300.779 6  -8475029.89021
 91  4 22 21 43 14.9980000  0  6G18G 2G11G16G19G 6
  23105657.772    13488439.935 5  10510425.77621
  20609517.092   -16162740.677 8 -12594299.50523
  22838531.3184   -3892148.60346  -3032827.35761
  23491079.3974   -3275200.90145  -2398946.47961
  20858697.115      497819.780 6    387907.03323
  22088976.248   -10991139.679 6  -8502956.22821
 91  4 22 21 43 29.9980000  0  6G18G 2G11G16G19G 6
  23114808.178    13536512.920 5  10547884.98821
  20605149.115   -16185696.452 8 -12612187.07423
  22842584.6234   -3870855.19446  -3016235.09261
  23493573.1624   -3262113.17045  -2388748.35961
  20861211.709      511062.882 6    398226.30823
  22082157.951   -11026969.432 6  -8530875.43821
 91  4 22 21 43 44.9980000  0  6G18G 2G11G16G19G 6
  23123962.772    13584625.308 5  10585374.89921
  20600795.295   -16208573.575 8 -12630013.35423
  22846660.9674   -3849425.44446  -2999536.59561
  23496081.9594   -3248921.39745  -2378469.15261
  20863747.506      524372.148 6    408597.14223
  22075340.912   -11062785.896 6  -8558784.30221
 91  4 22 21 43 59.9980000  0  6G18G 2G11G16G19G 6
  23133125.740    13632771.607 5  10622891.24821
  20596456.107   -16231377.224 8 -12647782.38523
  22850763.6004   -3827864.79746  -2982736.09961
  23498610.537    -3235631.175 5
  20866293.037      537742.407 6
  22068527.3734  -11098594.17446  -8586686.78261
 91  4 22 21 44 14.9980000  0  6G18G 2G11G16G19G 6
  23142294.811    13680952.705 6  10660434.70621
  20592131.287   -16254106.239 8 -12665493.25624
  22854892.6934   -3806172.13146  -2965832.73361
  23501162.8504   -3222241.36245
  20868848.186      551175.102 6
  22061715.4434  -11134392.92746  -8614581.84661
 91  4 22 21 44 29.9980000  0  6G18G 2G11G16G19G 6
  23151469.6864   13729170.79245  10698006.97461
  20587820.209   -16276758.171 8 -12683144.06823
  22859045.772    -3784345.151 6  -2948824.71021
  23503729.9124   -3208749.74245
  20871413.725      564672.794 6
  22054905.2874  -11170179.50546  -8642467.41961
 91  4 22 21 44 44.9980000  0  6G18G 2G11G16G19G 6
  23160652.3974   13777423.21745  10735606.02461
  20583524.467   -16299335.409 8 -12700736.67423
  22863223.803    -3762386.548 6  -2931714.13021
  23506314.670    -3195159.211 5
  20873997.553      578233.137 6    450566.64423
  22048096.8504  -11205956.24746  -8670345.33661
 91  4 22 21 44 59.9980000  0  6G18G 2G11G16G19G 6
  23169843.514    13825712.957 6  10773234.12421
  20579243.342   -16321834.714 8 -12718268.55623
  22867429.443    -3740293.501 6  -2914498.78921
  23508918.279    -3181466.996 5
  20876587.9984     591859.31647    461184.42563
  22041292.248   -11241720.067 6  -8698213.17121
 91  4 22 21 45 14.9980000  0  6G18G 2G11G16G19G 6
  23179036.717    13874034.998 5  10810887.40221
  20574974.725   -16344260.757 8 -12735743.34923
  22871658.0224   -3718070.54846  -2897182.21561
  23511544.982    -3167677.470 5
  20879194.600      605546.998 6    471850.12323
  22034487.225   -11277475.246 6  -8726074.28021
 91  4 22 21 45 29.9980000  0  6G18G 2G11G16G19G 6
  23188239.3894   13922388.86545  10848565.47761
  20570721.123   -16366613.947 8 -12753161.37323
  22875911.576    -3695718.425 6  -2879764.99221
  23514184.584    -3153791.293 5
  20881812.881      619295.883 6    482563.51623
  22027684.4284  -11313222.08046  -8753928.88561
 91  4 22 21 45 44.9980000  0  6G18G 2G11G16G19G 6
  23197446.7564   13970775.14345  10886268.79861
  20566481.826   -16388893.642 8 -12770522.12824
  22880188.2324   -3673236.61546  -2862246.70661
  23516844.936    -3139808.052 5        -0.12031
  20884439.873      633106.651 6    493325.12723
  22020885.8114  -11348959.80846  -8781776.39661
 91  4 22 21 45 59.9980000  0  6G18G 2G11G16G19G 6
  23206661.639    14019193.253 5  10923996.92621
  20562256.209   -16411099.999 8 -12787825.74224
  22884489.842    -3650625.495 6  -2844627.66821
  23519525.7874   -3125728.32845     10971.01661
  20887080.1394     646979.17846    504134.85863
  22014084.7174  -11384688.58646  -8809616.93861
 91  4 22 21 46 14.9980000  0  6G18G 2G11G16G19G 6
  23215880.795    14067643.586 5  10961750.16721
  20558044.607   -16433232.094 8 -12805071.48724
  22888820.787    -3627884.601 6  -2826907.50521
  23522224.389    -3111551.768 5     22017.55621
  20889731.943      660914.413 6    514993.45723
  22007288.959   -11420407.477 6  -8837449.77321
 91  4 22 21 46 29.9980000  0  6G18G 2G11G16G19G 6
  23225108.3654   14116130.93045  10999532.24461
  20553847.014   -16455285.058 8 -12822255.57324
  22893172.225    -3605009.059 6  -2809082.43521
  23524941.623    -3097273.418 5     33143.46721
  20892392.029      674917.527 6    525904.95123
  22000494.4124  -11456111.40846  -8865270.95561
 91  4 22 21 46 44.9980000  0  6G18G 2G11G16G19G 6
  23234342.522    14164649.909 5  11037338.97421
  20549664.342   -16477264.160 8 -12839382.10523
  22897552.529    -3582004.334 6  -2791156.69521
  23527678.209    -3082898.643 5     44344.45321
  20895072.068      688983.293 6    536865.26723
  21993702.6704  -11491805.48846  -8893084.45861
 91  4 22 21 46 59.9980000  0  6G18G 2G11G16G19G 6
  23243580.076    14213201.108 5  11075170.79821
  20545496.8184  -16499168.58548 -12856450.44763
  22901952.873    -3558869.880 6  -2773129.86321
  23530431.4674   -3068427.06645     55620.91261
  20897762.2564     703112.75746    547875.21363
  21986910.9824  -11527488.82846  -8920889.58961
 91  4 22 21 47 14.9980000  0  6G18G 2G11G16G19G 6
  23252825.732    14261788.293 5  11113030.65821
  20541343.1544  -16520994.33747 -12873457.48563
  22906381.2174   -3535601.75546  -2754998.88661
  23533205.6624   -3053854.92845     66975.71661
  20900464.162      717309.846 6    558937.85323
  21980123.9594  -11563157.23846  -8948683.08461
 91  4 22 21 47 29.9980000  0  6G18G 2G11G16G19G 6
  23262079.3264   14310406.64346  11150914.82361
  20537204.131   -16542746.206 8 -12890406.95023
  22910831.904    -3512204.952 6  -2736767.62821
  23535995.092    -3039187.167 5     78405.01221
  20903174.029      731569.923 6    570049.57323
  21973337.725   -11598815.377 6  -8976468.58121
 91  4 22 21 47 44.9980000  0  6G18G 2G11G16G19G 6
  23271336.1394   14359056.22846  11188823.32761
  20533078.693   -16564423.431 7 -12907298.25523
  22915309.7794   -3488679.19746  -2718435.89961
  23538805.842    -3024423.176 5     89909.32521
  20905903.147      745893.789 6    581211.00423
  21966554.5144  -11634462.41646  -9004245.42762
 91  4 22 21 47 59.9980000  0  6G18G 2G11G16G19G 6
  23280600.2014   14407736.54345  11226755.76461
  20528967.600   -16586026.358 8 -12924131.66323
  22919809.420    -3465025.015 6  -2700004.09221
  23541630.662    -3009563.845 5    101487.90721
  20908638.701      760281.128 6    592421.89423
  21959773.459   -11670098.771 6  -9032013.94521
 91  4 22 21 48 14.9980000  0  6G18G 2G11G16G19G 6
  23289870.678    14456449.123 5  11264713.34221
  20524872.2484  -16607553.30948 -12940905.87163
  22924334.154    -3441240.800 6  -2681470.96221
  23544478.334    -2994607.511 5    113142.08421
  20911391.740      774733.762 6    603683.66023
  21952993.8114  -11705722.48246  -9059772.61162
 91  4 22 21 48 29.9980000  0  6G18G 2G11G16G19G 6
  23299145.084    14505189.777 5  11302692.78421
  20520788.7014  -16629008.17948 -12957623.91363
  22928883.982    -3417330.642 6  -2662839.70221
  23547342.943    -2979558.357 5    124868.58221
  20914150.178      789248.038 6    614993.45923
  21946216.7404  -11741337.30946  -9087524.36061
 91  4 22 21 48 44.9980000  0  6G18G 2G11G16G19G 6
  23308425.1314   14553961.21145  11340696.23361
  20516721.1784  -16650388.04248 -12974283.50563
  22933462.107    -3393291.833 6  -2644108.18621
  23550221.1154   -2964413.55145    136669.62561
  20916926.084      803827.010 6    626353.67323
  21939441.4754  -11776940.13846  -9115266.75461
 91  4 22 21 48 59.9980000  0  6G18G 2G11G16G19G 6
  23317713.6864   14602763.34745  11378723.59561
  20512666.998   -16671692.839 8 -12990884.60723
  22938059.451    -3369124.570 6  -2625276.57321
  23553125.670    -2949173.689 5    148544.71021
  20919714.654      818470.721 6    637764.33223
  21932667.709   -11812530.818 6  -9142999.68321
 91  4 22 21 49 14.9980000  0  6G18G 2G11G16G19G 6
  23327005.5924   14651597.61745  11416775.97361
  20508626.428   -16692920.461 8 -13007425.56823
  22942683.334    -3344827.144 6  -2606343.53721
  23556038.818    -2933836.886 5    160495.33921
  20922513.748      833181.241 6    649227.05623
  21925898.6784  -11848107.36046  -9170721.59661
 91  4 22 21 49 29.9980000  0  6G18G 2G11G16G19G 6
  23336304.7874   14700457.74745  11454848.51161
  20504600.428   -16714077.426 8 -13023911.47324
  22947330.936    -3320406.193 6  -2587314.24421
  23558977.982    -2918409.999 5    172516.18221
  20925321.123      847952.228 6    660736.88922
  21919129.8184  -11883676.04946  -9198437.39361
 91  4 22 21 49 44.9980000  0  6G18G 2G11G16G19G 6
  23345608.4754   14749350.06145  11492946.11961
  20500589.365   -16735157.117 8 -13040337.16224
  22952003.592    -3295855.233 6  -2568183.65221
  23561933.5534   -2902886.45845    184612.29561
  20928147.232      862790.460 6    672299.12023
  21912363.1154  -11919230.11846  -9226141.80361
 91  4 22 21 49 59.9980000  0  6G18G 2G11G16G19G 6
  23354919.3504   14798273.21745  11531067.79061
  20496592.186   -16756160.500 8 -13056703.39523
  22956698.2794   -3271175.48846  -2548952.72061
  23564904.9124   -2887267.44445    196782.85661
  20930982.3424     877695.01446    683913.03162
  21905600.7644  -11954770.43046  -9253835.49161
 91  4 22 21 50 14.9980000  0  6G18G 2G11G16G19G 6
  23364232.1074   14847222.98545  11569210.19461
  20492609.670   -16777091.498 8 -13073013.22023
  22961418.1784   -3246371.11946  -2529624.66561
  23567895.842    -2871557.111 5    209024.56821
  20933830.951      892662.068 6    695575.64923
  21898839.9514  -11990300.78346  -9281521.42961
 91  4 22 21 50 29.9980000  0  6G18G 2G11G16G19G 6
  23373553.240    14896200.959 5  11607374.59321
  20488640.6074  -16797948.51648 -13089265.40164
  22966163.6004   -3221440.62246  -2510198.33961
  23570899.9434   -2855754.07045    221338.50961
  20936690.490      907693.580 6    707288.49423
  21892081.1234  -12025819.31446  -9309198.14561
 91  4 22 21 50 44.9980000  0  6G18G 2G11G16G19G 6
  23382881.100    14945209.407 5  11645562.71021
  20484685.514   -16818729.054 8 -13105457.98423
  22970930.654    -3196381.775 6  -2490671.99121
  23573927.615    -2839856.175 5    233726.38921
  20939565.631      922791.764 6    719053.29123
  21885325.420   -12061323.453 6  -9336863.65421
 91  4 22 21 50 59.9980000  0  6G18G 2G11G16G19G 6
  23392212.5924   14994246.36445  11683773.02661
  20480746.506   -16839434.578 8 -13121592.11723
  22975724.9284   -3171196.34646  -2471047.00961
  23576970.084    -2823865.214 5    246186.74621
  20942448.131      937955.347 6    730869.04423
  21878571.7794  -12096814.74546  -9364519.15061
 91  4 22 21 51 14.9980000  0  6G18G 2G11G16G19G 6
  23401547.678    15043311.341 5  11722005.16921
  20476820.5224  -16860065.33048 -13137667.98763
  22980541.9984   -3145884.80546  -2451323.76061
  23580030.8654   -2807781.61645    258719.29961
  20945349.5294     953184.23946    742735.68463
  21871821.2094  -12132293.13846  -9392164.58961
 91  4 22 21 51 29.9980000  0  6G18G 2G11G16G19G 6
  23410891.123    15092403.831 5  11760258.75721
  20472907.4824  -16880622.09448 -13153686.20763
  22985382.4594   -3120448.00446  -2431502.90061
  23583110.9044   -2791606.44445    271323.20661
  20948256.7174     968478.17946    754653.00663
  21865071.5294  -12167759.17346  -9419800.39761
 91  4 22 21 51 44.9980000  0  6G18G 2G11G16G19G 6
  23420239.732    15141522.067 5  11798532.41421
  20469009.5764  -16901105.97548 -13169647.63563
  22990245.2014   -3094887.37546  -2411585.56661
  23586204.428    -2775341.029 5    283997.42621
  20951182.467      983835.757 6    766619.92923
  21858325.6544  -12203213.95846  -9447427.43761
 91  4 22 21 51 59.9980000  0  6G18G 2G11G16G19G 6
  23429589.5294   15190667.68745  11836827.42961
  20465126.592   -16921514.948 8 -13185550.68823
  22995133.990    -3069201.077 6  -2391570.29221
  23589317.8424   -2758983.44545    296743.47561
  20954114.1474     999259.09046    778638.08363
  21851580.6004  -12238655.39546  -9475044.07162
 91  4 22 21 52 14.9980000  0  6G18G 2G11G16G19G 6
  23438948.9284   15239838.46345  11875142.04761
  20461257.2324  -16941851.19148 -13201397.07063
  23000045.5294   -3043391.69346  -2371459.12261
  23592446.311    -2742536.377 5    309559.24421
  20957064.725     1014745.961 6    790705.74523
  21844836.1394  -12274085.47446  -9502651.86462
 91  4 22 21 52 29.9980000  0  6G18G 2G11G16G19G 6
  23448309.631    15289035.605 5  11913477.15421
  20457400.6154  -16962113.39948 -13217185.76663
  23004980.334    -3017457.852 6  -2351250.95321
  23595593.3424   -2725998.60945    322445.66361
  20960022.311     1030297.925 6    802824.13422
  21838098.584   -12309502.727 6  -9530249.64922
 91  4 22 21 52 44.9980000  0  5G18G 2G11G19G 6
  23457677.522    15338258.959 5  11951832.69921
  20453558.7794  -16982301.27548 -13232916.54563
  23009937.842    -2991399.657 6  -2330945.91221
  20962996.162     1045915.466 6    814993.62122
  21831362.0684  -12344906.70246  -9557837.09461
 91  4 22 21 52 59.9980000  0  5G18G 2G11G19G 6
  23467048.568    15387506.584 5  11990207.18821
  20449731.2564  -17002416.54748 -13248590.74564
  23014920.475    -2965219.015 6  -2310545.43621
  20965977.115     1061596.979 6    827212.96122
  21824624.9434  -12380299.00246  -9585415.44261
 91  4 22 21 53 14.9980000  0  5G18G 2G11G19G 6
  23476425.897    15436778.451 5  12028600.56421
  20445916.904   -17022459.076 8 -13264208.25524
  23019924.8734   -2938915.99646  -2290049.60961
  20968977.201     1077342.629 6    839482.28022
  21817894.2794  -12415679.41746  -9612984.52461
 91  4 22 21 53 29.9980000  0  5G18G 2G11G19G 6
  23485806.4904   15486071.70345  12067010.59961
  20442116.076   -17042431.513 8 -13279771.15224
  23024955.6154   -2912493.59646  -2269460.76761
  20971981.818     1093149.764 6    851799.50123
  21811162.8504  -12451050.45746  -9640546.31661
 91  4 22 21 53 44.9980000  0  5G18G 2G11G19G 6
  23495190.6394   15535388.24645  12105438.78861
  20438328.764   -17062331.707 8 -13295277.75424
  23030005.7174   -2885949.85246  -2248777.34661
  20975005.248     1109020.853 6    864166.56422
  21804434.9124  -12486409.78346  -9668098.98061
 91  4 22 21 53 59.9980000  0  5G18G 2G11G19G 6
  23504579.748    15584731.208 5  12143887.57621
  20434557.147   -17082156.387 8 -13310725.51324
  23035080.115    -2859281.781 6  -2227997.05921
  20978034.701     1124959.167 6    876586.00122
  21797708.170   -12521753.921 6  -9695639.80921
 91  4 22 21 54 14.9980000  0  5G18G 2G11G19G 6
  23513975.022    15634099.216 5  12182355.81921
  20430799.514   -17101906.614 8 -13326115.25824
  23040177.998    -2832490.662 6  -2207120.89221
  20981082.193     1140963.567 6    889056.95122
  21790984.6474  -12557084.09046  -9723169.75161
 91  4 22 21 54 29.9980000  0  5G18G 2G11G19G 6
  23523372.4674   15683489.91745  12220841.80861
  20427054.436   -17121584.616 8 -13341448.72324
  23045299.0844   -2805578.73146  -2186150.59161
  20984140.076     1157032.184 6    901577.92022
  21784263.7794  -12592402.00446  -9750690.13561
 91  4 22 21 54 44.9980000  0  5G18G 2G11G19G 6
  23532776.443    15732903.101 5  12259345.29321
  20423323.8114  -17141190.25248 -13356725.80164
  23050444.7724   -2778546.23846  -2165086.34461
  20987210.756     1173165.272 6    914149.14522
  21777545.2324  -12627707.53346  -9778200.88561
 91  4 22 21 54 59.9980000  0  5G18G 2G11G19G 6
  23542183.7094   15782337.29945  12297865.11661
  20419606.0534  -17160724.86148 -13371947.53664
  23055610.7484   -2751394.58746  -2143929.23561
  20990291.303     1189361.585 6    926769.62522
  21770829.7954  -12663001.75046  -9805702.80861
 91  4 22 21 55 14.9980000  0  5G18G 2G11G19G 6
  23551596.6234   15831791.48845  12336400.54061
  20415902.7174  -17180188.96148 -13387114.32564
  23060799.443    -2724124.661 6  -2122679.97821
  20993385.607     1205620.693 6    939439.03622
  21764114.2794  -12698285.19246  -9833196.32761
 91  4 22 21 55 29.9980000  0  5G18G 2G11G19G 6
  23561010.2484   15881267.82945  12374953.23161
  20412211.568   -17199580.181 8 -13402224.32524
  23066011.7724   -2696734.25646  -2101336.83461
  20996490.295     1221945.056 6    952159.29822
  21757402.4824  -12733555.30446  -9860679.46761
 91  4 22 21 55 44.9980000  0  5G18G 2G11G19G 6
  23570429.2484   15930766.15345  12413523.06261
  20408535.178   -17218898.632 8 -13417277.61924
  23071247.6394   -2669223.80046  -2079900.14861
  20999610.326     1238334.560 6    964930.31922
  21750693.8574  -12768812.06446  -9888152.19561
 91  4 22 21 55 59.9980000  0  5G18G 2G11G19G 6
  23579852.693    15980285.299 5  12452109.13021
  20404873.311   -17238145.220 8 -13432274.91923
  23076504.9514   -2641594.47946  -2058370.83661
  21002741.084     1254788.465 6    977751.52122
  21743986.4204  -12804056.18746  -9915615.08962
 91  4 22 21 56 14.9980000  0  5G18G 2G11G19G 6
  23589279.9124   16029823.92745  12490710.33761
  20401224.2794  -17257321.03348 -13447217.07163
  23081784.357    -2613847.420 6  -2036749.77521
  21005886.154     1271306.086 6    990622.37322
  21737281.561   -12839288.491 6  -9943068.76122
 91  4 22 21 56 29.9980000  0  5G18G 2G11G19G 6
  23598709.803    16079380.510 5  12529325.61021
  20397587.842   -17276427.349 8 -13462105.06723
  23087086.9984   -2585984.35646  -2015038.33361
  21009040.092     1287885.860 6   1003541.65922
  21730581.4284  -12874510.36546  -9970514.31261
 91  4 22 21 56 44.9980000  0  5G18G 2G11G19G 6
  23608145.8184   16128956.27345  12567955.79161
  20393965.8184  -17295462.85448 -13476937.88863
  23092411.123    -2558004.064 6  -1993235.52621
  21012208.498     1304529.219 6   1016510.48922
  21723880.1004  -12909720.24546  -9997950.51862
 91  4 22 21 56 59.9980000  0  5G18G 2G11G19G 6
  23617581.7644   16178555.00845  12606603.86061
  20390357.639   -17314423.255 8 -13491712.18123
  23097760.412    -2529902.521 6  -1971338.24721
  21015386.272     1321240.533 6   1029532.27122
  21717182.0534  -12944913.82146 -10025374.01861
 91  4 22 21 57 14.9980000  0  5G18G 2G11G19G 6
  23627025.803    16228174.206 5  12645267.83621
  20386764.0294  -17333311.06448 -13506429.91263
  23103128.8034   -2501682.54746  -1949348.68061
  21018581.170     1338017.452 6   1042605.16522
  21710488.1234  -12980093.34646 -10052786.57561
 91  4 22 21 57 29.9980000  0  5G18G 2G11G19G 6
  23636474.092    16277813.594 5  12683947.56321
  20383182.498   -17352126.063 8 -13521090.90923
  23108522.8264   -2473344.14746  -1927266.84361
  21021782.357     1354860.266 6   1055729.41423
  21703796.6704  -13015258.41746 -10080187.87161
 91  4 22 21 57 44.9980000  0  5G18G 2G11G19G 6
  23645924.9514   16327473.59945  12722643.36061
  20379616.342   -17370867.851 8 -13535694.86123
  23113936.545    -2444887.103 6  -1905092.55021
  21025003.8654    1371769.47146   1068905.38962
  21697107.959   -13050408.469 6 -10107577.46822
 91  4 22 21 57 59.9980000  0  5G18G 2G11G19G 6
  23655376.0534   16377151.41845  12761353.05761
  20376063.8424  -17389539.10048 -13550243.84863
  23119375.147    -2416314.236 6  -1882828.00721
  21028234.475     1388742.831 6   1082131.36122
  21690421.123   -13085545.968 6 -10134957.28021
 91  4 22 21 58 14.9980000  0  5G18G 2G11G19G 6
  23664833.756    16426850.745 5  12800079.49221
  20372525.6704  -17408135.63348 -13564734.61564
  23124834.4594   -2387621.70346  -1860470.21761
  21031476.826     1405784.444 6   1095410.51123
  21683736.1474  -13120666.55046 -10162323.91461
 91  4 22 21 58 29.9980000  0  5G18G 2G11G19G 6
  23674294.6704   16476565.35345  12838817.84261
  20368999.7564  -17426663.56748 -13579171.93263
  23130316.428    -2358815.836 6  -1838024.11221
  21034731.381     1422888.233 6   1108738.11422
  21677057.998   -13155776.313 6 -10189682.11421
 91  4 22 21 58 44.9980000  0  5G18G 2G11G19G 6
  23683760.123    16526299.924 5  12877571.75221
  20365487.6864  -17445118.13848 -13593552.07863
  23135818.8504   -2329892.04846  -1815486.12061
  21037998.490     1440059.038 6   1122117.94422
  21670379.287   -13190870.272 6 -10217028.00221
 91  4 22 21 58 59.9980000  0  5G18G 2G11G19G 6
  23693227.9044   16576053.00545  12916340.09061
  20361988.7564  -17463500.14948 -13607875.68264
  23141345.6784   -2300851.64946  -1792857.26361
  21041274.904     1457296.144 6   1135549.43722
  21663702.4984  -13225949.17346 -10244362.14762
 91  4 22 21 59 14.9980000  0  5G18G 2G11G19G 6
  23702698.639    16625822.112 5  12955120.93321
  20358504.0534  -17481812.13048 -13622144.72264
  23146894.865    -2271697.193 6  -1770139.52321
  21044571.686     1474597.366 6   1149030.88422
  21657030.0844  -13261015.25946 -10271686.30662
 91  4 22 21 59 29.9980000  0  5G18G 2G11G19G 6
  23712174.732    16675606.687 5  12993913.81021
  20355032.5764  -17500054.45248 -13636359.47864
  23152463.850    -2242429.298 6  -1747333.40421
  21047878.3034    1491962.34546   1162562.00563
  21650359.1154  -13296068.74746 -10299000.65262
 91  4 22 21 59 44.9980000  0  5G18G 2G11G19G 6
  23721649.842    16725413.587 5  13032724.10521
  20351576.2324  -17518219.80548 -13650514.25964
  23158056.5294   -2213040.89846  -1724433.37061
  21051194.3734    1509398.27646   1176148.41363
  21643692.3504  -13331102.15946 -10326299.35462
 91  4 22 21 59 59.9980000  0  5G18G 2G11G19G 6
  23731130.373    16775233.919 5  13071544.83021
  20348132.8184  -17536317.02848 -13664615.95464
  23163670.428    -2183541.172 6  -1701446.60421
  21054521.1004    1526896.45646   1189783.32963
  21637027.3504  -13366124.28946 -10353589.26062
 91  4 22 22  0 14.9980000  0  5G18G 2G11G19G 6
  23740614.9204   16825068.74545  13110376.86661
  20344701.7484  -17554344.83148 -13678663.55264
  23169305.4674   -2153929.02246  -1678372.22061
  21057864.709     1544458.370 6   1203467.91522
  21630365.4364  -13401133.64646 -10380869.21662
 91  4 22 22  0 29.9980000  0  5G18G 2G11G19G 6
  23750100.8894   16874921.32245  13149222.71961
  20341285.0454  -17572299.85548 -13692654.44464
  23174962.357    -2124201.238 6  -1655207.74021
  21061217.6784    1562087.60346   1217204.95363
  21623706.8574  -13436126.60346 -10408136.40062
 91  4 22 22  0 44.9980000  0  4G 2G11G19G 6
  20337880.5764  -17590188.48348 -13706593.59564
  23180639.482    -2094364.636 6  -1631958.46421
  21064585.1474    1579777.73246   1230989.44563
  21617050.8504  -13471109.55546 -10435395.78862
 91  4 22 22  0 59.9980000  0  4G 2G11G19G 6
  20334490.9514  -17608002.12348 -13720474.31764
  23186338.8504   -2064410.93346  -1608617.93461
  21067964.4204    1597537.34346   1244828.07063
  21610397.3734  -13506073.79846 -10462640.59662
 91  4 22 22  1 14.9980000  0  4G 2G11G19G 6
  20331114.9124  -17625745.16848 -13734300.02864
  23192062.9204   -2034344.69946  -1585189.70361
  21071357.3894    1615362.15046   1258717.49862
  21603746.6004  -13541023.41746 -10489874.00762
 91  4 22 22  1 29.9980000  0  4G 2G11G19G 6
  20327751.9284  -17643420.14748 -13748072.69964
  23197803.201    -2004168.552 6  -1561675.84521
  21074763.1864    1633249.85946   1272655.94462
  21597098.2254  -13575960.71046 -10517097.81362
 91  4 22 22  1 44.9980000  0  4G 2G11G19G 6
  20324401.2794  -17661022.00048 -13761788.39564
  23203569.037    -1973877.789 6  -1538072.67921
  21078177.9984    1651205.54746   1286647.35862
  21590452.303   -13610880.494 6 -10544307.98522
 91  4 22 22  1 59.9980000  0  4G 2G11G19G 6
  20321065.1394  -17678557.05748 -13775452.04064
  23209353.1314   -1943478.82846  -1514385.19461
  21081607.303     1669223.110 6   1300686.98822
  21583809.779   -13645788.960 6 -10571509.32921
 91  4 22 22  2 14.9980000  0  4G 2G11G19G 6
  20317743.0144  -17696016.67848 -13789056.90763
  23215158.9904   -1912963.44746  -1490607.00061
  21085049.9514    1687311.03646   1314781.44362
  21577170.5614  -13680677.33146 -10598695.01562
 91  4 22 22  2 29.9980000  0  4G 2G11G19G 6
  20314434.8894  -17713404.40248 -13802605.75264
  23220987.2874   -1882335.29346  -1466740.91661
  21088503.1234    1705466.02646   1328928.15962
  21570533.5764  -13715548.94146 -10625867.64462
 91  4 22 22  2 44.9980000  0  4G 2G11G19G 6
  20311138.7404  -17730720.24148 -13816098.58563
  23226837.787    -1851594.688 6  -1442787.22021
  21091971.397     1723688.092 6   1343127.15122
  21563901.662   -13750403.637 6 -10653027.08922
 91  4 22 22  2 59.9980000  0  4G 2G11G19G 6
  20307857.2254  -17747963.69348 -13829535.01063
  23232708.568    -1820741.368 6  -1418745.69121
  21095451.0844    1741978.04346   1357379.02762
  21557271.615   -13785240.749 6 -10680172.83322
 91  4 22 22  3 14.9980000  0  4G 2G11G19G 6
  20304589.3894  -17765136.81348 -13842916.63264
  23238599.373    -1789777.742 6  -1394618.21221
  21098944.0764    1760333.96646   1371682.31562
  21550645.2484  -13820062.11646 -10707306.31062
 91  4 22 22  3 29.9980000  0  4G 2G11G19G 6
  20301334.6474  -17782240.54848 -13856244.18864
  23244513.5764   -1758705.10246  -1370405.77661
  21102448.2404    1778754.96346   1386036.30862
  21544022.5294  -13854868.75246 -10734428.30262
 91  4 22 22  3 44.9980000  0  4G 2G11G19G 6
  20298093.5924  -17799273.69448 -13869516.72764
  23250447.084    -1727522.327 6  -1346107.52821
  21105968.2324    1797242.26446   1400441.96862
  21537402.7644  -13889658.94746 -10761537.48562
 91  4 22 22  3 59.9980000  0  4G 2G11G19G 6
  20294865.1004  -17816237.68248 -13882735.39564
  23256402.467    -1696231.071 6  -1321724.75021
  21109497.8574    1815794.55446   1414898.26162
  21530783.5764  -13924434.11146 -10788634.96162
 91  4 22 22  4 14.9980000  0  4G 2G11G19G 6
  20291649.8114  -17833132.68648 -13895900.29564
  23262377.0144   -1664831.87246  -1297257.85561
  21113041.5764    1834411.57646   1429405.00062
  21524170.6784  -13959194.19246 -10815720.66962
 91  4 22 22  4 29.9980000  0  4G 2G11G19G 6
  20288449.1864  -17849957.48948 -13909010.49864
  23268373.9824   -1633323.70446  -1272706.04361
  21116595.2404    1853094.80146   1443963.32562
  21517556.8974  -13993937.85846 -10842793.59562
 91  4 22 22  4 44.9980000  0  4G 2G11G19G 6
  20285259.7954  -17866711.32248 -13922065.40164
  23274389.4594   -1601705.98946  -1248068.87161
  21120163.7874    1871845.24446   1458574.02362
  21510950.4904  -14028664.09946 -10869852.94062
 91  4 22 22  4 59.9980000  0  4G 2G11G19G 6
  20282085.2404  -17883394.51448 -13935065.25864
  23280425.623    -1569979.255 6  -1223346.75321
  21123744.2014    1890662.47046   1473236.76162
  21504344.6004  -14063373.04846 -10896898.81162
 91  4 22 22  5 14.9980000  0  4G 2G11G19G 6
  20278923.8504  -17900009.69548 -13948012.11964
  23286482.7954   -1538146.55446  -1198542.06161
  21127338.9204    1909544.08646   1487949.67462
  21497742.7874  -14098067.18046 -10923933.13062
 91  4 22 22  5 29.9980000  0  4G 2G11G19G 6
  20275775.9824  -17916554.33948 -13960904.02164
  23292560.436    -1506205.600 6  -1173653.03521
  21130942.8814    1928492.58946   1502714.70462
  21491143.5224  -14132743.81146 -10950953.82162
 91  4 22 22  5 44.9980000  0  4G 2G11G19G 6
  20272639.8184  -17933028.17248 -13973740.74364
  23298662.201    -1474156.167 6  -1148679.46421
  21134562.553     1947508.465 6   1517532.22122
  21484548.529   -14167402.430 7 -10977960.48022
 91  4 22 22  5 59.9980000  0  4G 2G11G19G 6
  20269518.568   -17949432.672 8 -13986523.44324
  23304781.295    -1442000.107 6  -1123622.81921
  21138193.342     1966590.261 6   1532401.10422
  21477956.8424  -14202044.34847 -11004954.12462
 91  4 22 22  6 14.9980000  0  4G 2G11G19G 6
  20266409.7484  -17965765.53448 -13999250.31764
  23310917.998    -1409735.638 6  -1098481.69621
  21141838.5224    1985740.19946   1547323.09662
  21471368.311   -14236667.238 7 -11031932.94322
 91  4 22 22  6 29.9970000  0  4G 2G11G19G 6
  20263315.5484  -17982030.86248 -14011924.56664
  23317078.103    -1377370.179 6  -1073261.87821
  21145492.774     2004952.133 6   1562293.39222
  21464783.2354  -14271273.67347 -11058898.93862
 91  4 22 22  6 44.9970000  0  4G 2G11G19G 6
  20260232.7204  -17998230.31448 -14024547.48964
  23323259.618    -1344898.864 6  -1047959.56621
  21149163.2044    2024229.42946   1577314.62562
  21458200.564   -14305867.382 7 -11085855.01522
 91  4 22 22  6 59.9970000  0  4G 2G11G19G 6
  20257163.2904  -18014359.87648 -14037115.94864
  23329459.1344   -1312321.45246  -1022574.59261
  21152844.657     2043573.485 6   1592387.86922
  21451621.1494  -14340443.26147 -11112797.20162
 91  4 22 22  7 14.9970000  0  4G 2G11G19G 6
  20254107.110   -18030419.929 8 -14049630.24824
  23335677.759    -1279638.705 6   -997107.55021
  21156536.1964    2062984.16346   1607513.03462
  21445044.9934  -14375001.48847 -11139725.63362
 91  4 22 22  7 29.9970000  0  4G 2G11G19G 6
  20251063.5644  -18046415.77548 -14062094.51364
  23341916.173    -1246856.091 6   -971562.66421
  21160241.8994    2082456.27346   1622686.06662
  21438471.243   -14409547.090 7 -11166644.23022
 91  4 22 22  7 44.9970000  0  4G 2G11G19G 6
  20248032.4464  -18062343.48348 -14074505.68264
  23348175.7674   -1213969.99546   -945937.16261
  21163962.0014    2101993.84046   1637910.10462
  21431901.2354  -14444075.89047 -11193549.72562
 91  4 22 22  7 59.9970000  0  4G 2G11G19G 6
  20245013.8604  -18078204.98848 -14086865.26864
  23354450.3454   -1180982.40246   -920232.57361
  21167688.6654    2121595.16146   1653183.82062
  21425333.0714  -14478589.63546 -11220443.49362
 91  4 22 22  8 14.9970000  0  4G 2G11G19G 6
  20242008.6894  -18093999.62148 -14099172.74464
  23360748.1734   -1147892.94846   -894448.60561
  21171432.7514    2141260.81846   1668507.67462
  21418767.1964  -14513087.38646 -11247324.79462
 91  4 22 22  8 29.9970000  0  4G 2G11G19G 6
  20239017.2204  -18109720.93548 -14111423.08964
  23367064.8294   -1114695.47546   -868580.47061
  21175188.2124    2160997.36046   1683886.75862
  21412206.7904  -14547562.66346 -11274188.58962
 91  4 22 22  8 44.9970000  0  4G 2G11G19G 6
  20236038.4464  -18125370.27348 -14123617.34664
  23373403.837    -1081391.531 6   -842629.36621
  21178957.103     2180803.604 6   1699320.15522
  21405650.0244  -14582016.46846 -11301035.64562
 91  4 22 22  8 59.9970000  0  4G 2G11G19G 6
  20233071.7904  -18140960.34648 -14135765.42264
  23379757.9854   -1047994.24446   -816605.53261
  21182738.0564    2200667.08446   1714798.15062
  21399096.5014  -14616461.44547 -11327875.83062
 91  4 22 22  9 14.9970000  0  4G 2G11G19G 6
  20230118.2434  -18156478.93648 -14147857.79664
  23386133.5954   -1014491.77146   -790499.73361
  21186531.5794    2220599.83446   1730330.12462
  21392546.064   -14650885.373 7 -11354699.61922
 91  4 22 22  9 29.9970000  0  4G 2G11G19G 6
  20227179.2284  -18171928.82548 -14159896.64264
  23392529.9934    -980887.05746   -764314.27661
  21190336.196     2240599.163 6   1745913.97322
  21385996.548   -14685290.584 7 -11381508.82622
 91  4 22 22  9 44.9970000  0  4G 2G11G19G 6
  20224252.7594  -18187308.67948 -14171880.91564
  23398943.9464    -947178.89846   -738048.20661
  21194154.493     2260666.623 6   1761550.91522
  21379454.564   -14719675.610 7 -11408302.30222
 91  4 22 22  9 59.9970000  0  4G 2G11G19G 6
  20221337.6574  -18202622.01848 -14183813.35964
  23405375.6494    -913371.02546   -711704.44461
  21197983.3604    2280798.83146   1777238.31562
  21372913.7594  -14754043.63347 -11435082.52362
 91  4 22 22 10 14.9970000  0  4G 2G11G19G 6
  20218437.0484  -18217868.14848 -14195693.43164
  23411828.8684    -879463.17946   -685282.77561
  21201830.0794    2300996.55046   1792976.75262
  21366376.517   -14788393.899 7 -11461848.90922
 91  4 22 22 10 29.9970000  0  4G 2G11G19G 6
  20215548.5324  -18233043.63348 -14207518.45664
  23418300.704     -845452.191 6   -658780.73221
  21205687.782     2321263.193 6   1808768.89622
  21359845.626   -14822722.855 7 -11488598.69622
 91  4 22 22 10 44.9970000  0  4G 2G11G19G 6
  20212674.337   -18248152.824 8 -14219291.82524
  23424790.353     -811342.573 6   -632201.82921
  21209555.0644    2341594.52746   1824611.46662
  21353315.407   -14857034.471 7 -11515334.96522
 91  4 22 22 10 59.9970000  0  4G 2G11G19G 6
  20209811.0564  -18263196.77548 -14231014.35764
  23431299.9624    -777135.69846   -605547.14361
  21213437.8604    2361989.67546   1840503.75562
  21346789.8684  -14891329.74847 -11542058.50062
 91  4 22 22 11 14.9970000  0  4G 2G11G19G 6
  20206961.3534  -18278173.00248 -14242684.11464
  23437828.329     -742829.405 6   -578814.99021
  21217330.3604    2382451.22546   1856447.77462
  21340266.0714  -14925605.91147 -11568767.14062
 91  4 22 22 11 29.9970000  0  4G 2G11G19G 6
  20204123.9624  -18293081.51848 -14254301.11264
  23444374.485     -708423.930 6   -552005.55521
  21221234.462     2402979.237 6   1872443.58722
  21333747.821   -14959862.967 7 -11595460.89322
 91  4 22 22 11 44.9970000  0  4G 2G11G19G 6
  20201299.9624  -18307921.28048 -14265864.53164
  23450942.915     -673918.531 6   -525118.26721
  21225155.509     2423574.942 6   1888492.14622
  21327233.392   -14994099.582 7 -11622138.72222
 91  4 22 22 11 59.9970000  0  4G 2G11G19G 6
  20198489.189   -18322692.977 8 -14277374.91724
  23457526.0564    -639313.94846   -498153.67261
  21229088.1344    2444237.57846   1904592.86662
  21320720.7594  -15028316.14647 -11648800.92562
 91  4 22 22 12 14.9970000  0  4G 2G11G19G 6
  20195691.4624  -18337397.78748 -14288833.18564
  23464131.001     -604611.790 6   -471113.06121
  21233032.3454    2464966.24446   1920745.04262
  21314215.9314  -15062513.69947 -11675448.31162
 91  4 22 22 12 29.9970000  0  4G 2G11G19G 6
  20192906.5564  -18352031.70048 -14300236.20664
  23470754.204     -569808.445 6   -443993.58621
  21236988.3454    2485764.93446   1936951.77862
  21307711.3924  -15096688.05347 -11702077.62762
 91  4 22 22 12 44.9970000  0  4G 2G11G19G 6
  20190134.290   -18366600.620 8 -14311588.58524
  23477396.0794    -534909.92546   -416799.97361
  21240959.4314    2506627.79846   1953208.52562
  21301210.485   -15130844.859 7 -11728693.26822
 91  4 22 22 12 59.9970000  0  4G 2G11G19G 6
  20187374.7674  -18381100.61348 -14322887.25064
  23484054.4314    -499912.62746   -389529.38161
  21244941.9854    2527558.94046   1969518.46462
  21294714.939   -15164979.993 7 -11755292.01822
 91  4 22 22 13 14.9970000  0  4G 2G11G19G 6
  20184628.993   -18395530.150 8 -14334131.01824
  23490732.610     -464815.169 6   -362180.73821
  21248940.0404    2548559.94746   1985882.84462
  21288224.610   -15199091.644 7 -11781872.47222
 91  4 22 22 13 29.9970000  0  4G 2G11G19G 6
  20181895.2354  -18409896.46348 -14345325.51464
  23497428.946     -429625.225 6   -334760.03221
  21252947.532     2569623.653 6   2002296.08122
  21281736.103   -15233186.998 7 -11808440.23222
 91  4 22 22 13 44.9970000  0  4G 2G11G19G 6
  20179173.2284  -18424201.31348 -14356472.12264
  23504141.6494    -394344.69146   -307268.73961
  21256968.353     2590748.407 6   2018756.88222
  21275250.532   -15267267.435 7 -11834996.36922
 91  4 22 22 13 59.9970000  0  4G 2G11G19G 6
  20176464.4464  -18438435.64048 -14367563.77664
  23510873.0644    -358964.63146   -279699.89761
  21261002.3924    2611943.41246   2035272.43462
  21268769.720   -15301323.597 7 -11861533.59222
 91  4 22 22 14 14.9970000  0  4G 2G11G19G 6
  20173768.5404  -18452602.97248 -14378603.22664
  23517628.204     -323488.991 6   -252056.55221
  21265047.478     2633205.098 6   2051839.93922
  21262293.642   -15335359.030 7 -11888054.65722
 91  4 22 22 14 29.9970000  0  4G 2G11G19G 6
  20171084.548   -18466705.967 8 -14389592.54724
  23524393.2674    -287920.73046   -224341.05961
  21269104.5644    2654530.93746   2068457.43362
  21255819.134   -15369376.151 7 -11914561.46122
 91  4 22 22 14 44.9970000  0  4G 2G11G19G 6
  20168413.790   -18480742.023 8 -14400529.70824
  23531182.6424    -252257.47546   -196551.54661
  21273177.032     2675923.768 6   2085127.12822
  21249351.282   -15403372.184 7 -11941051.82722
 91  4 22 22 14 59.9970000  0  4G 2G11G19G 6
  20165755.774   -18494710.217 8 -14411413.98924
  23537985.017     -216498.597 6   -168687.50021
  21277260.837     2697384.489 6   2101849.71922
  21242885.118   -15437345.844 7 -11967524.76122
 91  4 22 22 15 14.9970000  0  4G 2G11G19G 6
  20163110.079   -18508613.759 8 -14422247.89224
  23544811.0094    -180647.62646   -140751.69361
  21281357.103     2718910.008 6   2118622.79522
  21236424.735   -15471300.153 7 -11993982.61122
 91  4 22 22 15 29.9970000  0  4G 2G11G19G 6
  20160475.157   -18522455.593 8 -14433033.71424
  23551649.1104    -144707.82545   -112746.68661
  21285465.548     2740497.467 6   2135444.14022
  21229965.860   -15505237.955 7 -12020427.60422
 91  4 22 22 15 44.9970000  0  4G 2G11G19G 6
  20157854.681   -18536228.000 8 -14443765.43024
  23558505.993     -108671.781 5    -84666.67621
  21289586.610     2762154.721 6   2152319.88622
  21223511.931   -15539151.329 7 -12046853.55622
 91  4 22 22 15 59.9970000  0  4G 2G11G19G 6
  20155245.2984  -18549935.76048 -14454446.77664
  23565380.0244     -72544.50845    -56515.59561
  21293718.618     2783876.850 6   2169246.17422
  21217061.212   -15573044.880 7 -12073264.06422
 91  4 22 22 16 14.9970000  0  4G 2G11G19G 6
  20152650.7904  -18563577.05848 -14465076.33064
  23572272.2984     -36324.56645    -28292.28961
  21297865.462     2805665.815 6   2186224.53822
  21210616.657   -15606916.583 7 -12099657.54222
 91  4 22 22 16 29.9970000  0  4G 2G11G19G 6
  20150066.7904  -18577153.31947 -14475655.20364
  23579183.173         -13.308 5         2.17721
  21302023.204     2827520.550 6   2203254.15822
  21204175.501   -15640767.472 7 -12126034.80822
 91  4 22 22 16 44.9970000  0  4G 2G11G19G 6
  20147496.2984  -18590661.42148 -14486180.96964
  23586112.5644      36392.08145     28369.98461
  21306196.790     2849444.006 6   2220337.31522
  21197738.954   -15674594.221 7 -12152393.26522
 91  4 22 22 16 59.9970000  0  4G 2G11G19G 6
  20144937.8604  -18604105.54348 -14496656.88064
  23593055.376       72887.043 5     56807.60121
  21310380.470     2871432.350 6   2237471.03722
  21191305.196   -15708400.695 7 -12178735.92422
 91  4 22 22 17 14.9970000  0  4G 2G11G19G 6
  20142392.3144  -18617485.55948 -14507082.83864
  23600018.329      109471.466 6     85314.91321
  21314578.220     2893485.774 6   2254655.47122
  21184875.165   -15742186.663 7 -12205062.61022
 91  4 22 22 17 29.9970000  0  4G 2G11G19G 6
  20139859.454   -18630795.285 8 -14517454.02724
  23606996.915      146151.220 5    113896.50921
  21318786.267     2915610.423 6   2271895.40022
  21178451.907   -15775945.666 7 -12231368.27722
 91  4 22 22 17 44.9970000  0  4G 2G11G19G 6
  20137339.071   -18644037.704 8 -14527772.76924
  23613994.681      182923.012 5    142549.82921
  21323011.743     2937803.455 6   2289188.62122
  21172032.2434  -15809680.49847 -12257655.11262
 91  4 22 22 17 59.9970000  0  4G 2G11G19G 6
  20134831.853   -18657216.158 8 -14538041.67024
  23621008.329      219783.147 5    171271.99221
  21327244.470     2960061.404 6   2306532.41322
  21165617.860   -15843394.484 7 -12283925.71122
 91  4 22 22 18 14.9970000  0  4G 2G11G19G 6
  20132336.267   -18670331.237 8 -14548261.18624
  23628040.470      256730.863 5    200062.40421
  21331493.2674    2982384.00146   2323926.58762
  21159205.251   -15877087.837 7 -12310180.22222
 91  4 22 22 18 29.9970000  0  4G 2G11G19G 6
  20129852.196   -18683379.862 8 -14558428.92324
  23635086.618      293768.889 5    228923.18021
  21335755.267     3004774.369 6   2341373.57122
  21152798.376   -15910757.268 7 -12336416.09122
 91  4 22 22 18 44.9970000  0  4G 2G11G19G 6
  20127382.181   -18696363.181 8 -14568545.77323
  23642151.3374     330895.95245    257853.32961
  21340029.2824    3027231.46846   2358872.55162
  21146394.657   -15944403.602 7 -12362633.96222
 91  4 22 22 18 59.9970000  0  4G 2G11G19G 6
  20124922.892   -18709281.411 8 -14578611.90123
  23649234.6654     368111.45645    286852.40961
  21344313.6104    3049755.00546   2376423.29862
  21139997.087   -15978026.833 7 -12388833.83722
 91  4 22 22 19 14.9970000  0  4G 2G11G19G 6
  20122477.978   -18722134.305 8 -14588627.11624
  23656333.423      405415.335 5    315920.34921
  21348613.9854    3072345.38246   2394026.12862
  21133602.001   -16011626.786 7 -12415015.57322
 91  4 22 22 19 29.9970000  0  4G 2G11G19G 6
  20120044.165   -18734921.407 8 -14598591.07224
  23663448.017      442807.669 5    345057.20321
  21352926.9154    3095003.06946   2411681.41962
  21127214.009   -16045202.871 7 -12441178.70022
 91  4 22 22 19 44.9970000  0  4G 2G11G19G 6
  20117623.017   -18747644.269 8 -14608504.96724
  23670580.8144     480286.81845    374261.72661
  21357251.1264    3117726.79446   2429388.14862
  21120828.212   -16078756.113 7 -12467324.03022
 91  4 22 22 19 59.9970000  0  4G 2G11G19G 6
  20115214.446   -18760302.152 8 -14618368.22824
  23677727.642      517853.232 5    403534.23021
  21361586.2744    3140517.49046   2447147.08162
  21114448.126   -16112285.517 7 -12493450.79422
 91  4 22 22 20 14.9970000  0  4G 2G11G19G 6
  20112817.923   -18772894.995 8 -14628180.80924
  23684893.4854     555506.65045    432874.53161
  21365935.985     3163374.997 6   2464958.07222
  21108072.478   -16145790.817 7 -12519558.77122
 91  4 22 22 20 29.9970000  0  4G 2G11G19G 6
  20110433.274   -18785424.391 8 -14637943.95224
  23692076.274      593245.094 6    462281.08021
  21370296.7514    3186297.98446   2482820.09062
  21101701.017   -16179273.503 7 -12545649.13022
 91  4 22 22 20 44.9970000  0  4G 2G11G19G 6
  20108062.462   -18797885.907 8 -14647654.19924
  23699274.360      631073.019 6    491757.36321
  21374673.9464    3209291.07446   2500736.72562
  21095334.892   -16212728.627 7 -12571718.01122
 91  4 22 22 20 59.9970000  0  4G 2G11G19G 6
  20105703.165   -18810285.527 8 -14657316.21524
  23706488.5324     668984.08746    521298.45161
  21379060.017     3232348.173 6   2518703.24622
  21088972.306   -16246162.087 7 -12597770.00622
 91  4 22 22 21 14.9970000  0  4G 2G11G19G 6
  20103355.118   -18822621.517 8 -14666928.65324
  23713718.540      706979.736 6    550905.41821
  21383462.8604    3255471.13946   2536721.07262
  21082614.595   -16279571.889 7 -12623803.57522
 91  4 22 22 21 29.9970000  0  4G 2G11G19G 6
  20101020.603   -18834892.419 8 -14676490.37624
  23720964.0714     745061.07645    580579.14761
  21387876.642     3278661.494 6   2554791.43322
  21076261.548   -16312956.402 7 -12649817.43722
 91  4 22 22 21 44.9970000  0  4G 2G11G19G 6
  20098697.876   -18847097.040 8 -14686000.44524
  23728227.9624     783229.06345    610320.43461
  21392301.907     3301920.685 6   2572915.41422
  21069913.689   -16346314.085 7 -12675810.39022
 91  4 22 22 21 59.9970000  0  4G 2G11G19G 6
  20096388.407   -18859237.411 8 -14695460.46024
  23735509.939      821481.212 5    640127.28821
  21396740.134     3325246.490 6   2591091.31622
  21063570.634   -16379646.980 7 -12701784.02722
 91  4 22 22 22 14.9970000  0  4G 2G11G19G 6
  20094090.376   -18871312.426 8 -14704869.54124
  23742801.6814     859818.44045    670000.41861
  21401191.564     3348640.289 6   2609320.21322
  21057233.845   -16412953.762 7 -12727737.31222
 91  4 22 22 22 29.9970000  0  4G 2G11G19G 6
  20091803.939   -18883321.811 8 -14714227.47924
  23750114.4704     898240.83845    699939.94661
  21405653.220     3372102.303 6   2627602.24122
  21050900.415   -16446233.850 7 -12753669.80222
 91  4 22 22 22 44.9970000  0  4G 2G11G19G 6
  20089531.353   -18895269.836 8 -14723537.61624
  23757442.4154     936743.84546    729942.25061
  21410134.376     3395628.339 6   2645934.16422
  21044570.907   -16479491.220 7 -12779584.58822
 91  4 22 22 22 59.9970000  0  4G 2G11G19G 6
  20087269.970   -18907152.218 8 -14732796.59624
  23764785.954      975331.333 6    760010.41121
  21414624.524     3419222.580 6   2664319.25922
  21038247.040   -16512721.413 7 -12805478.19422
 91  4 22 22 23 14.9970000  0  4G 2G11G19G 6
  20085020.439   -18918972.862 8 -14742007.46124
  23772142.587     1013999.167 6    790141.16921
  21419125.384     3442881.267 6   2682754.54522
  21031927.751   -16545928.149 7 -12831353.52223
 91  4 22 22 23 29.9970000  0  3G 2G19G 6
  20082783.274   -18930729.410 8 -14751168.37824
  21423642.6574    3466607.16246   2701242.21562
  21025613.829   -16579108.616 7 -12857208.38222
 91  4 22 22 23 44.9970000  0  3G 2G19G 6
  20080557.571   -18942424.668 8 -14760281.54924
  21428167.478     3490397.553 6   2719780.13522
  21019304.696   -16612265.388 7 -12883044.77923
 91  4 22 22 23 59.9970000  0  3G 2G19G 6
  20078344.954   -18954055.847 8 -14769344.78524
  21432704.009     3514255.148 6   2738370.41722
  21012999.899   -16645395.527 7 -12908860.42422
 91  4 22 22 24 14.9970000  0  3G 2G19G 6
  20076144.774   -18965619.030 8 -14778355.03724
  21437261.673     3538183.886 6   2757016.14222
  21006700.774   -16678494.889 7 -12934652.08322
 91  4 22 22 24 29.9970000  0  3G 2G19G 6
  20073956.079   -18977117.973 8 -14787315.23424
  21441828.345     3562179.988 6   2775714.35522
  21000407.868   -16711567.106 7 -12960422.59322
 91  4 22 22 24 44.9970000  0  3G 2G19G 6
  20071779.079   -18988554.330 8 -14796226.65924
  21446406.665     3586242.008 6   2794463.94122
  20994119.462   -16744613.646 7 -12986173.09523
 91  4 22 22 24 59.9970000  0  3G 2G19G 6
  20069615.915   -18999924.707 8 -14805086.67324
  21450996.3924    3610373.56646   2813267.71562
  20987835.532   -16777630.665 7 -13011900.59123
 91  4 22 22 25 14.9970000  0  3G 2G19G 6
  20067465.173   -19011228.200 8 -14813894.57224
  21455603.329     3634575.437 6   2832126.27122
  20981559.868   -16810617.190 7 -13037604.32622
 91  4 22 22 25 29.9970000  0  3G 2G19G 6
  20065324.806   -19022472.665 8 -14822656.47724
  21460219.423     3658839.822 6   2851033.54522
  20975286.540   -16843580.627 7 -13063290.07523
 91  4 22 22 25 44.9970000  0  3G 2G19G 6
  20063196.321   -19033655.897 8 -14831370.66324
  21464850.173     3683169.090 6   2869991.35822
  20969019.470   -16876518.608 7 -13088955.98422
 91  4 22 22 25 59.9970000  0  3G 2G19G 6
  20061081.657   -19044771.066 8 -14840031.80824
  21469493.4704    3707570.13646   2889005.12062
  20962756.689   -16909424.080 7 -13114596.56123
 91  4 22 22 26 14.9970000  0  3G 2G19G 6
  20058978.634   -19055823.008 8 -14848643.69224
  21474150.0484    3732038.18146   2908071.09662
  20956500.353   -16942301.542 7 -13140215.30923
 91  4 22 22 26 29.9970000  0  3G 2G19G 6
  20056886.696   -19066814.919 8 -14857208.79524
  21478819.149     3756570.201 6   2927186.91522
  20950249.3064  -16975154.01447 -13165814.58363
 91  4 22 22 26 44.9970000  0  3G 2G19G 6
  20054806.571   -19077745.014 8 -14865725.72624
  21483498.751     3781167.958 6   2946353.94922
  20944001.345   -17007979.640 7 -13191392.93823
 91  4 22 22 26 59.9970000  0  3G 2G19G 6
  20052738.517   -19088610.860 8 -14874192.59524
  21488193.7594    3805833.88646   2965574.10662
  20937761.821   -17040775.537 7 -13216948.13123
 91  4 22 22 27 14.9970000  0  3G 2G19G 6
  20050683.071   -19099413.275 8 -14882610.04024
  21492899.3844    3830567.26946   2984846.82562
  20931526.634   -17073542.254 7 -13242480.58723
 91  4 22 22 27 29.9970000  0  3G 2G19G 6
  20048640.2674  -19110151.93748 -14890977.79964
  21497618.8684    3855368.70446   3004172.58162
  20925296.603   -17106279.362 7 -13267989.96923
 91  4 22 22 27 44.9970000  0  3G 2G19G 6
  20046607.360   -19120836.120 8 -14899303.11124
  21502352.048     3880228.886 6   3023544.10822
  20919069.931   -17138995.651 7 -13293483.13023
 91  4 22 22 27 59.9970000  0  3G 2G19G 6
  20044585.587   -19131456.595 8 -14907578.78224
  21507092.8374    3905156.84546   3042968.45962
  20912851.579   -17171681.804 7 -13318952.80823
 91  4 22 22 28 14.9970000  0  3G 2G19G 6
  20042575.829   -19142016.359 8 -14915807.14423
  21511850.618     3930149.805 6   3062443.44922
  20906636.103   -17204340.696 7 -13344401.24923
 91  4 22 22 28 29.9970000  0  3G 2G19G 6
  20040577.767   -19152517.529 8 -14923989.84423
  21516615.6964    3955205.98846   3081967.70762
  20900425.618   -17236974.123 7 -13369829.84423
 91  4 22 22 28 44.9970000  0  3G 2G19G 6
  20038592.314   -19162952.545 8 -14932121.00823
  21521398.985     3980332.714 6   3101546.92722
  20894222.142   -17269574.255 7 -13395232.49823
 91  4 22 22 28 59.9970000  0  3G 2G19G 6
  20036617.103   -19173329.825 8 -14940207.17723
  21526192.767     4005521.956 6   3121174.85422
  20888023.524   -17302149.214 7 -13420615.53623
 91  4 22 22 29 14.9970000  0  3G 2G19G 6
  20034654.532   -19183643.159 8 -14948243.51723
  21530999.540     4030779.809 6   3140856.25422
  20881831.595   -17334692.559 7 -13445973.94623
 91  4 22 22 29 29.9970000  0  3G 2G19G 6
  20032704.782   -19193890.595 8 -14956228.50723
  21535817.6964    4056108.08246   3160592.51062
  20875643.939   -17367202.118 7 -13471306.02223
 91  4 22 22 29 44.9970000  0  3G 2G19G 6
  20030766.1494  -19204080.05848 -14964168.32263
  21540653.1574    4081498.92646   3180377.52462
  20869462.368   -17399685.650 7 -13496617.81723
 91  4 22 22 29 59.9970000  0  3G 2G19G 6
  20028839.470   -19214204.455 8 -14972057.43624
  21545495.064     4106959.681 6   3200217.02422
  20863287.931   -17432135.563 7 -13521903.41923
 91  4 22 22 30 14.9970000  0  3G 2G19G 6
  20026924.993   -19224266.742 8 -14979898.15424
  21550353.993     4132487.623 6   3220108.88122
  20857118.681   -17464554.590 7 -13547164.94723
 91  4 22 22 30 29.9970000  0  3G 2G19G 6
  20025021.165   -19234270.209 8 -14987693.03824
  21555223.814     4158079.456 6   3240050.52222
  20850954.384   -17496945.917 7 -13572404.89423
 91  4 22 22 30 44.9970000  0  3G 2G19G 6
  20023129.149   -19244211.050 8 -14995439.12224
  21560107.985     4183738.958 6   3260044.89522
  20844797.626   -17529305.418 7 -13597620.04223
 91  4 22 22 30 59.9970000  0  3G 2G19G 6
  20021249.564   -19254089.857 8 -15003136.86924
  21565001.915     4209465.688 6   3280091.64022
  20838645.220   -17561633.462 7 -13622810.67823
 91  4 22 22 31 14.9970000  0  3G 2G19G 6
  20019380.251   -19263908.589 8 -15010787.80624
  21569911.0644    4235257.73146   3300189.29661
  20832498.970   -17593931.646 7 -13647978.04923
 91  4 22 22 31 29.9970000  0  3G 2G19G 6
  20017524.126   -19273666.549 8 -15018391.38724
  21574831.5324    4261115.65746   3320338.29562
  20826359.353   -17626199.206 7 -13673121.55923
 91  4 22 22 31 44.9970000  0  3G 2G19G 6
  20015678.962   -19283361.456 8 -15025945.83423
  21579764.579     4287041.841 6   3340540.46421
  20820224.118   -17658433.493 7 -13698239.13823
 91  4 22 22 31 59.9970000  0  3G 2G19G 6
  20013845.798   -19292995.876 8 -15033453.15523
  21584712.7514    4313033.86346   3360793.95561
  20814096.821   -17690636.848 7 -13723332.61923
 91  4 22 22 32 14.9970000  0  3G 2G19G 6
  20012024.173   -19302571.021 8 -15040914.29023
  21589669.579     4339090.839 6   3381098.03521
  20807974.5324  -17722810.15447 -13748402.68863
 91  4 22 22 32 29.9970000  0  3G 2G19G 6
  20010212.923   -19312086.569 8 -15048328.98123
  21594639.3764    4365212.93746   3401452.88761
  20801857.1494  -17754952.70047 -13773448.78863
 91  4 22 22 32 44.9970000  0  3G 2G19G 6
  20008413.431   -19321538.809 8 -15055694.34324
  21599624.681     4391403.901 6   3421861.37321
  20795747.8144  -17787060.56647 -13798467.86663
 91  4 22 22 32 59.9970000  0  3G 2G19G 6
  20006627.212   -19330929.857 8 -15063012.01924
  21604620.7204    4417661.68146   3442321.94762
  20789644.314   -17819135.770 7 -13823461.49223
 91  4 22 22 33 14.9970000  0  3G 2G19G 6
  20004851.876   -19340260.128 8 -15070282.33823
  21609631.704     4443985.920 6   3462834.29121
  20783545.743   -17851178.551 7 -13848429.84723
 91  4 22 22 33 29.9970000  0  3G 2G19G 6
  20003087.821   -19349529.493 8 -15077505.20524
  21614651.3294    4470376.60646   3483398.42361
  20777455.4314  -17883188.56947 -13873372.68163
 91  4 22 22 33 44.9970000  0  3G 2G19G 6
  20001334.767   -19358737.491 8 -15084680.24724
  21619688.087     4496834.477 6   3504014.90522
  20771370.353   -17915164.935 7 -13898289.28423
 91  4 22 22 33 59.9970000  0  3G 2G19G 6
  19999594.954   -19367886.259 8 -15091809.13324
  21624736.0714    4523357.47646   3524682.13361
  20765291.665   -17947109.284 7 -13923180.94223
 91  4 22 22 34 14.9970000  0  3G 2G19G 6
  19997864.157   -19376977.749 8 -15098893.38924
  21629794.939     4549943.526 6   3545398.48421
  20759218.353   -17979023.677 7 -13948049.25623
 91  4 22 22 34 29.9970000  0  3G 2G19G 6
  19996146.649   -19386006.254 8 -15105928.56824
  21634863.509     4576598.443 6   3566168.49421
  20753151.579   -18010902.020 7 -13972889.47523
 91  4 22 22 34 44.9970000  0  3G 2G19G 6
  19994440.204   -19394975.783 8 -15112917.79224
  21639951.5484    4603318.28846   3586989.09661
  20747090.946   -18042748.133 7 -13997704.58123
 91  4 22 22 34 59.9970000  0  3G 2G19G 6
  19992743.673   -19403887.307 8 -15119861.81824
  21645046.8294    4630102.18946   3607859.59661
  20741036.970   -18074562.564 7 -14022494.99923
 91  4 22 22 35 14.9970000  0  3G 2G19G 6
  19991059.196   -19412739.929 8 -15126759.94624
  21650156.814     4656951.191 6   3628780.84922
  20734990.134   -18106344.086 7 -14047259.78423
 91  4 22 22 35 29.9970000  0  3G 2G19G 6
  19989385.056   -19421534.249 8 -15133612.64324
  21655279.9234    4683864.60346   3649752.27361
  20728948.595   -18138093.070 7 -14071999.20723
 91  4 22 22 35 44.9970000  0  3G 2G19G 6
  19987722.939   -19430267.875 8 -15140418.04424
  21660413.2744    4710844.96346   3670775.89861
  20722912.978   -18169807.045 7 -14096711.35023
 91  4 22 22 35 59.9970000  0  3G 2G19G 6
  19986072.798   -19438941.319 8 -15147176.55424
  21665561.696     4737891.892 6   3691851.36421
  20716884.907   -18201486.235 7 -14121396.38523
 91  4 22 22 36 14.9970000  0  3G 2G19G 6
  19984433.126   -19447555.977 8 -15153889.25424
  21670720.4624    4765004.01546   3712977.64261
  20710861.985   -18233131.605 7 -14146055.06923
 91  4 22 22 36 29.9970000  0  4G15G 2G19G 6
  23427678.0954     -30774.12645
  19982805.110   -19456113.701 8 -15160557.59224
  21675888.095     4792179.426 6   3734153.23421
  20704846.657   -18264744.862 7 -14170688.72623
 91  4 22 22 36 44.9970000  0  5G15G 2G13G19G 6
  23421838.5094     -61460.12545
  19981187.673   -19464610.954 8 -15167178.80424
  23242131.9704         -0.88955
  21681073.048     4819421.708 6   3755380.93421
  20698838.204   -18296322.130 7 -14195294.34623
 91  4 22 22 36 59.9970000  0  5G15G 2G13G19G 6
  23416017.0014     -92058.32745
  19979582.618   -19473048.160 8 -15173753.23124
  23229611.4464     -65792.21245
  21686271.8764    4846730.66246   3776660.57761
  20692836.259   -18327863.504 7 -14219871.99223
 91  4 22 22 37 14.9970000  0  5G15G 2G13G19G 6
  23410209.8144    -122573.32845        -0.09871
  19977987.571   -19481430.150 8 -15180284.62824
  23217093.5564    -131560.60244
  21691480.884     4874101.356 6   3797988.34021
  20686839.220   -18359373.776 7 -14244425.40123
 91  4 22 22 37 29.9970000  0  5G15G 2G13G19G 6
  23404417.071     -152998.942 5    -23708.23921
  19976403.064   -19489751.119 8 -15186768.47824
  23204584.9234    -197299.89644
  21696701.1574    4901539.62946   3819368.74961
  20680850.173   -18390846.759 7 -14268949.75723
 91  4 22 22 37 44.9970000  0  5G15G 2G13G19G 6
  23398645.5484    -183340.62745    -47351.00061
  19974829.946   -19498017.042 8 -15193209.43124
  23192079.9154    -263015.61945
  21701933.915     4929039.563 6   3840797.21921
  20674866.931   -18422288.260 7 -14293449.58023
 91  4 22 22 37 59.9970000  0  5G15G 2G13G19G 6
  23392890.3764    -213594.54445    -70925.38061
  19973268.767   -19506224.766 8 -15199605.03924
  23179580.446     -328703.931 5
  21707177.8684    4956604.52346   3862276.34061
  20668890.860   -18453694.527 7 -14317921.94823
 91  4 22 22 38 14.9970000  0  5G15G 2G13G19G 6
  23387149.7434    -243762.54745    -94432.80361
  19971717.774   -19514376.398 8 -15205956.94024
  23167085.8844    -394366.52745        -0.47671
  21712436.7514    4984232.40046   3883804.49261
  20662919.931   -18485067.642 7 -14342368.48623
 91  4 22 22 38 29.9970000  0  5G15G 2G13G19G 6
  23381424.3924    -273839.03245   -117868.93161
  19970178.470   -19522466.567 8 -15212260.94724
  23154596.282     -459998.218 4
  21717707.4314    5011928.25046   3905385.61061
  20656957.985   -18516402.082 7 -14366784.88323
 91  4 22 22 38 44.9970000  0  5G15G 2G13G19G 6
  23375717.8454    -303825.27345   -141234.73661
  19968650.360   -19530496.889 8 -15218518.32624
  23142112.321     -525599.785 5
  21722990.6104    5039690.64546   3927018.57561
  20651002.728   -18547699.064 7 -14391172.09723
 91  4 22 22 38 59.9970000  0  5G15G 2G13G19G 6
  23370027.8994    -333722.06545   -164530.84361
  19967133.751   -19538468.921 8 -15224730.27524
  23129633.2204    -591172.13745
  21728287.056     5067518.187 6   3948702.32421
  20645052.993   -18578959.776 7 -14415531.04823
 91  4 22 22 39 14.9970000  0  5G15G 2G13G19G 6
  23364356.6734    -363526.70445   -187755.14061
  19965627.681   -19546380.219 8 -15230894.90324
  23117161.767     -656712.347 5
  21733595.2354    5095413.52646   3970438.88561
  20639112.2204  -18610181.54647 -14439859.66063
 91  4 22 22 39 29.9970000  0  5G15G 2G13G19G 6
  23358701.939     -393242.580 5   -210910.27721
  19964133.782   -19554234.368 8 -15237015.00124
  23104692.2204    -722223.66644        -0.01171
  21738915.126     5123373.098 6   3992225.52921
  20633177.626   -18641367.897 7 -14464160.66823
 91  4 22 22 39 44.9970000  0  5G15G 2G13G19G 6
  23353065.1184    -422871.46445   -233997.63361
  19962648.790   -19562033.997 8 -15243092.61724
  23092231.181     -787708.217 4    -51026.43221
  21744246.2434    5151394.22046   4014060.08561
  20627249.970   -18672521.058 7 -14488435.81623
 91  4 22 22 39 59.9970000  0  5G15G 2G13G19G 6
  23347443.2594    -452413.63545   -257017.40561
  19961174.384   -19569779.621 8 -15249128.14524
  23079776.1104    -853165.87545   -102032.05061
  21749590.962     5179476.529 6   4035942.36421
  20621327.4234  -18703641.04047 -14512685.11263
 91  4 22 22 40 14.9970000  0  5G15G 2G13G19G 6
  23341836.7824    -481871.06445   -279971.15361
  19959710.876   -19577473.568 8 -15255123.40824
  23067325.204     -918598.749 5   -153018.38521
  21754946.376     5207617.519 6   4057870.35421
  20615410.876   -18734729.939 7 -14536910.18523
 91  4 22 22 40 29.9970000  0  5G15G 2G13G19G 6
  23336249.189     -511232.894 5   -302850.41421
  19958258.618   -19585105.618 8 -15261070.44224
  23054876.3294    -983996.18644   -203976.99761
  21760314.6494    5235827.78546   4079852.32261
  20609502.8684  -18765777.26347 -14561102.86663
 91  4 22 22 40 44.9970000  0  5G15G 2G13G19G 6
  23330676.1734    -540500.14745   -325655.97761
  19956818.446   -19592676.640 8 -15266969.92124
  23042439.087    -1049358.583 4   -254908.27121
  21765695.9624    5264106.12346   4101887.33661
  20603602.853   -18796783.990 7 -14585263.91023
 91  4 22 22 40 59.9970000  0  5G15G 2G13G19G 6
  23325125.314     -569675.350 5   -348389.81921
  19955387.517   -19600189.924 8 -15272824.41124
  23030008.446    -1114688.612 5   -305814.33421
  21771088.360     5292449.456 6   4123972.98221
  20597709.673   -18827752.894 7 -14609395.47723
 91  4 22 22 41 14.9970000  0  5G15G 2G13G19G 6
  23319594.524     -598757.477 5   -371051.12821
  19953968.985   -19607645.048 8 -15278633.57924
  23017582.649    -1179985.556 5   -356694.72921
  21776496.087     5320858.222 6   4146109.65421
  20591823.2674  -18858683.23947 -14633497.00763
 91  4 22 22 41 29.9970000  0  5G15G 2G13G19G 6
  23314077.9854    -627748.90645   -393641.78661
  19952560.985   -19615044.709 8 -15284399.52524
  23005161.7434   -1245251.69645   -407551.09361
  21781913.509     5349329.713 6   4168295.15621
  20585944.4394  -18889577.40547 -14657570.34963
 91  4 22 22 41 44.9970000  0  5G15G 2G13G19G 6
  23308576.751     -656643.993 5   -416157.34921
  19951164.892   -19622383.551 8 -15290118.08324
  22992749.446    -1310481.175 4   -458378.90221
  21787342.095     5377869.366 6   4190533.81021
  20580072.8924  -18920429.82947 -14681611.16663
 91  4 22 22 41 59.9970000  0  5G15G 2G13G19G 6
  23303091.7124    -685450.31845   -438603.77061
  19949778.407   -19629669.445 8 -15295795.38124
  22980343.134    -1375681.192 5   -509183.67121
  21792785.2674    5406469.34346   4212819.43561
  20574209.5644  -18951248.04047 -14705625.32163
 91  4 22 22 42 14.9970000  0  5G15G 2G13G19G 6
  23297634.0874    -714163.86445   -460977.88761
  19948401.954   -19636898.962 8 -15301428.75024
  22967942.384    -1440847.884 5   -559962.52521
  21798242.485     5435133.277 6   4235154.91721
  20568351.8994  -18982028.33847 -14729609.92963
 91  4 22 22 42 29.9970000  0  5G15G 2G13G19G 6
  23292183.978     -742782.156 5   -483277.77221
  19947038.595   -19644069.883 8 -15307016.45824
  22955546.235    -1505978.665 5   -610713.44121
  21803707.5174    5463863.30046   4257541.90962
  20562501.9234  -19012768.12047 -14753562.97163
 91  4 22 22 42 44.9970000  0  5G15G 2G13G19G 6
  23286759.2124    -771302.90945   -505501.66061
  19945684.759   -19651180.368 8 -15312557.08024
  22943158.274    -1571071.419 4   -661434.70921
  21809189.673     5492661.369 6   4279981.86921
  20556660.3214  -19043465.39547 -14777482.88363
 91  4 22 22 42 59.9970000  0  5G15G 2G13G19G 6
  23281349.407     -799730.124 5   -527652.66121
  19944342.228   -19658234.840 8 -15318054.05424
  22930778.5174   -1636130.15745   -712129.49461
  21814678.9314    5521523.00446   4302471.43261
  20550826.3924  -19074124.34747 -14801372.93563
 91  4 22 22 43 14.9970000  0  5G15G 2G13G19G 6
  23275955.556     -828065.407 5   -549732.01921
  19943011.181   -19665235.219 8 -15323508.88324
  22918404.8214   -1701156.07045   -762798.70361
  21820184.7824    5550446.36446   4325009.03661
  20544998.4464  -19104746.57247 -14825234.37463
 91  4 22 22 43 29.9970000  0  5G15G 2G13G19G 6
  23270579.9394    -856306.11745   -571737.68561
  19941689.001   -19672179.314 8 -15328919.84624
  22906035.8374   -1766146.41345   -813440.19161
  21825699.071     5579433.641 6   4347596.49221
  20539178.9854  -19135329.62247 -14849065.28963
 91  4 22 22 43 44.9970000  0  5G15G 2G13G19G 6
  23265226.071     -884451.435 5   -593669.03321
  19940378.251   -19679066.737 8 -15334286.64924
  22893674.5714   -1831100.66544   -864053.52761
  21831231.4704    5608485.28846   4370234.04761
  20533366.2824  -19165872.77447 -14872865.11363
 91  4 22 22 43 59.9970000  0  5G15G 2G13G19G 6
  23259890.2744    -912499.96545   -615524.95661
  19939078.024   -19685896.438 8 -15339608.47724
  22881322.8294   -1896017.16545   -914637.44961
  21836767.6574    5637602.28646   4392922.60061
  20527562.3844  -19196374.82747 -14896632.91163
 91  4 22 22 44 14.9970000  0  5G15G 2G13G19G 6
  23254574.1104    -940450.29545   -637304.37561
  19937789.5324  -19692667.28748 -15344884.44064
  22868978.9074   -1960894.39945   -965190.85961
  21842324.7204    5666785.77046   4415662.91261
  20521765.5094  -19226834.22647 -14920367.47563
 91  4 22 22 44 29.9970000  0  5G15G 2G13G19G 6
  23249267.4154    -968304.59145   -659008.92461
  19936512.4934  -19699381.74048 -15350116.45163
  22856637.337    -2025734.402 5  -1015715.22721
  21847891.095     5696033.311 6   4438453.12621
  20515978.1814  -19257253.42447 -14944070.70863
 91  4 22 22 44 44.9970000  0  5G15G 2G13G19G 6
  23243986.993     -996059.653 5   -680636.18221
  19935245.556   -19706037.122 8 -15355302.44423
  22844305.9154   -2090533.99545  -1066208.06461
  21853466.7904    5725347.69746   4461295.46861
  20510197.8844  -19287629.29647 -14967740.18963
 91  4 22 22 44 59.9970000  0  5G15G 2G13G19G 6
  23238726.2044   -1023720.20945   -702189.76661
  19933989.735   -19712638.718 8 -15360446.52724
  22831983.8144   -2155298.01345  -1116673.16761
  21859055.689     5754723.565 6   4484185.68221
  20504425.2984  -19317966.73247 -14991379.71263
 91  4 22 22 45 14.9970000  0  5G15G 2G13G19G 6
  23233479.4854   -1051284.54845   -723668.39661
  19932744.017   -19719185.121 8 -15365547.60224
  22819668.056    -2220024.332 5  -1167108.92221
  21864659.6964    5784162.56346   4507125.11661
  20498658.7824  -19348264.11247 -15014988.02163
 91  4 22 22 45 29.9970000  0  5G15G 2G13G19G 6
  23228255.6264   -1078750.55145   -745070.41561
  19931508.634   -19725674.637 8 -15370604.35124
  22807357.142    -2284710.816 5  -1217513.71521
  21870273.251     5813666.416 6   4530115.06621
  20492901.8604  -19378519.36447 -15038563.50763
 91  4 22 22 45 44.9970000  0  5G15G 2G13G19G 6
  23223042.6264   -1106115.94945   -766394.02661
  19930285.8534  -19732105.30848 -15375615.24863
  22795053.5404   -2349355.15645  -1267885.62161
  21875903.064     5843237.083 6   4553157.07821
  20487152.4314  -19408730.28047 -15062104.44563
 91  4 22 22 45 59.9970000  0  5G15G 2G13G19G 6
  23217855.149    -1133384.361 5   -787642.07121
  19929072.517   -19738481.295 8 -15380583.53824
  22782758.993    -2413961.257 5  -1318227.65021
  21881540.7044    5872870.45746   4576247.96361
  20481411.6344  -19438900.71547 -15085613.84363
 91  4 22 22 46 14.9970000  0  5G15G 2G13G19G 6
  23212686.290    -1160552.974 5   -808812.34621
  19927869.165   -19744800.134 8 -15385507.29523
  22770474.2354   -2478526.19345  -1368537.64361
  21887192.228     5902568.852 6   4599389.53521
  20475678.2204  -19469028.00447 -15109089.61063
 91  4 22 22 46 29.9970000  0  5G15G 2G13G19G 6
  23207530.9074   -1187630.60745   -829911.74461
  19926676.024   -19751071.030 8 -15390393.68924
  22758192.8214   -2543058.63245  -1418822.30161
  21892853.720     5932323.304 6   4622574.73421
  20469951.1344  -19499121.05047 -15132538.69663
 91  4 22 22 46 44.9970000  0  5G15G 2G13G19G 6
  23202398.6034   -1214611.74545   -850935.93461
  19925492.618   -19757288.873 8 -15395238.74423
  22745918.2514   -2607552.82145  -1469077.19361
  21898529.1894    5962138.80446   4645807.55261
  20464232.1424  -19529174.30547 -15155956.78463
 91  4 22 22 46 59.9970000  0  5G15G 2G13G19G 6
  23197284.4854   -1241494.54245   -871883.49161
  19924318.970   -19763452.074 8 -15400041.21824
  22733653.267    -2672006.975 5  -1519300.91321
  21904213.6104    5992017.03946   4669089.23161
  20458522.0094  -19559186.12747 -15179342.58463
 91  4 22 22 47 14.9970000  0  5G15G 2G13G19G 6
  23192180.407    -1268275.741 4   -892751.88421
  19923158.298   -19769557.753 8 -15404798.87424
  22721397.853    -2736417.659 5  -1569490.69021
  21909911.6574    6021960.89546   4692422.07461
  20452819.0874  -19589153.22047 -15202693.52663
 91  4 22 22 47 29.9970000  0  5G15G 2G13G19G 6
  23187107.1654   -1294951.57444   -913538.17961
  19922007.946   -19775602.477 8 -15409509.03224
  22709148.587    -2800780.829 5  -1619643.46621
  21915621.6964    6051974.06346   4715808.86661
  20447125.7204  -19619071.79747 -15226006.66763
 91  4 22 22 47 44.9970000  0  5G15G 2G13G19G 6
  23182050.6034   -1321527.00445   -934246.23461
  19920868.290   -19781591.733 8 -15414175.97024
  22696909.0794   -2865101.67445  -1669763.22661
  21921344.587     6082050.936 5   4739245.35721
  20441439.8214  -19648947.18047 -15249286.15863
 91  4 22 22 47 59.9970000  0  5G15G 2G13G19G 6
  23177018.2284   -1347999.93645   -954874.40361
  19919739.626   -19787523.564 8 -15418798.15424
  22684678.470    -2929377.744 5  -1719848.13921
  21927082.267     6112193.443 5   4762732.96221
  20435763.8534  -19678777.09447 -15272530.20163
 91  4 22 22 48 14.9970000  0  5G15G 2G13G19G 6
  23171998.446    -1374368.165 5   -975421.01221
  19918620.767   -19793396.411 8 -15423374.38824
  22672453.970    -2993607.187 5  -1769896.72021
  21932832.798     6142403.064 6   4786272.87321
  20430096.8604  -19708559.67347 -15295737.37163
 91  4 22 22 48 29.9970000  0  5G15G 2G13G19G 6
  23166998.251    -1400634.481 5   -995888.18221
  19917514.235   -19799213.291 8 -15427907.00524
  22660239.5644   -3057792.36545  -1819910.83161
  21938594.8294    6172676.96545   4809862.86561
  20424438.1184  -19738297.74547 -15318909.85763
 91  4 22 22 48 44.9970000  0  5G15G 2G13G19G 6
  23162018.595    -1426800.139 5  -1016276.93021
  19916417.962   -19804975.766 8 -15432397.23324
  22648034.064    -3121934.591 5  -1869891.43721
  21944364.954     6203013.428 6   4833501.59721
  20418786.8374  -19767992.48147 -15342048.57464
 91  4 22 22 48 59.9970000  0  5G15G 2G13G19G 6
  23157060.892    -1452864.154 5  -1036586.47721
  19915332.2744  -19810683.31548 -15436844.66161
  22635836.759    -3186032.785 5  -1919837.72521
  21950147.7044    6233412.93846   4857189.45861
  20413145.0484  -19797643.07247 -15365152.89661
 91  4 22 22 49 14.9970000  0  5G15G 2G13G19G 6
  23152121.3764   -1478826.70745  -1056816.95261
  19914256.509   -19816336.527 8 -15441249.74724
  22623648.884    -3250087.095 5
  21955946.8064    6263874.98046   4880926.10861
  20407511.032   -19827249.758 7 -15388223.00223
 91  4 22 22 49 29.9970000  0  5G15G 2G13G19G 6
  23147197.5644   -1504686.11145  -1076967.03661
  19913191.149   -19821933.948 8 -15445611.35923
  22611465.439    -3314095.461 5
  21961756.7984    6294401.10745   4904712.56561
  20401885.8294  -19856810.92547 -15411257.63663
 91  4 22 22 49 44.9970000  0  5G15G 2G13G19G 6
  23142297.829    -1530441.450 5  -1097036.04621
  19912136.595   -19827475.231 8 -15449929.22824
  22599294.235    -3378057.242 5
  21967578.2354    6324991.75946   4928549.42161
  20396268.6494  -19886325.84947 -15434256.24163
 91  4 22 22 49 59.9970000  0  5G15G 2G13G19G 6
  23137413.220    -1556094.696 5  -1117025.50821
  19911093.173   -19832962.765 8 -15454205.21524
  22587131.142    -3441974.226 5
  21973408.806     6355644.833 6   4952434.85521
  20390660.353   -19915796.569 7 -15457220.39623
 91  4 22 22 50 14.9970000  0  5G15G 2G13G19G 6
  23132553.4544   -1581646.15445  -1136935.63261
  19910058.618   -19838397.034 8 -15458439.69724
  22574975.0014   -3505846.40645
  21979254.274     6386359.489 5   4976368.28221
  20385061.0794  -19945223.24547 -15480150.24463
 91  4 22 22 50 29.9970000  0  5G15G 2G13G19G 6
  23127710.6964   -1607094.31445  -1156765.28461
  19909034.485   -19843776.832 8 -15462631.73424
  22562831.2204   -3569672.35445        -0.11171
  21985110.6344    6417136.91945   5000350.63361
  20379468.9784  -19974604.64447 -15503044.80763
 91  4 22 22 50 44.9970000  0  5G15G 2G13G19G 6
  23122886.7124   -1632445.33445  -1176519.21961
  19908020.103   -19849108.648 8 -15466786.38224
  22550692.3064   -3633458.32445    -49703.16161
  21990980.7514    6447970.46746   5024376.69261
  20373886.5174  -20003946.89647 -15525908.85764
 91  4 22 22 50 59.9970000  0  5G15G 2G13G19G 6
  23118086.4854   -1657688.43845  -1196189.07861
  19907017.173   -19854382.365 8 -15470895.76224
  22538563.993    -3697193.372 5    -99366.51821
  21996857.970     6478870.501 5   5048454.57421
  20368312.0564  -20033239.48647 -15548734.21764
 91  4 22 22 51 14.9970000  0  5G15G 2G13G19G 6
  23113298.6424   -1682829.61545  -1215779.50861
  19906022.939   -19859604.175 8 -15474964.68724
  22526443.189    -3760883.450 5   -148994.80521
  22002751.8064    6509830.74546   5072579.39061
  20362745.868   -20062488.479 7 -15571525.60024
 91  4 22 22 51 29.9970000  0  5G15G 2G13G19G 6
  23108533.915    -1707867.656 5  -1235289.57821
  19905039.251   -19864773.207 8 -15478992.48824
  22514332.384    -3824526.950 5   -198586.78521
  22008655.3604    6540852.28945   5096751.89961
  20357189.0564  -20091692.55947 -15594281.99164
 91  4 22 22 51 44.9970000  0  5G15G 2G13G19G 6
  23103790.3144   -1732803.07845  -1254719.68261
  19904065.673   -19869890.290 8 -15482979.81224
  22502230.704    -3888124.532 5   -248143.02221
  22014570.5644    6571934.07346   5120971.44961
  20351638.0714  -20120852.35447 -15617003.87763
 91  4 22 22 51 59.9970000  0  5G15G 2G13G19G 6
  23099065.0094   -1757636.29345  -1274070.13061
  19903100.571   -19874956.494 8 -15486927.49124
  22490135.3994   -3951676.62945   -297663.84961
  22020493.704     6603075.407 5   5145237.31921
  20346098.5404  -20149968.52247 -15639691.76663
 91  4 22 22 52 14.9970000  0  5G15G 2G13G19G 6
  23094357.0244   -1782362.34245  -1293337.08261
  19902148.196   -19879966.968 8 -15490831.74224
  22478050.2434   -4015177.98445   -347145.11361
  22026436.415     6634280.874 6   5169553.20821
  20340567.7984  -20179036.01547 -15662341.72863
 91  4 22 22 52 29.9970000  0  5G15G 2G13G19G 6
  23089669.556    -1806984.113 5  -1312522.79921
  19901204.2434  -19884924.82848 -15494695.00064
  22465975.8994   -4078631.34845   -396588.98161
  22032383.079     6665547.390 5   5193916.70121
  20335045.1184  -20208057.60147 -15684955.91864
 91  4 22 22 52 44.9970000  0  5G15G 2G13G19G 6
  23085003.9464   -1831499.84245  -1331625.87661
  19900270.5954  -19889828.82748 -15498516.28464
  22453910.3294   -4142035.20745   -445994.24461
  22038347.1814    6696876.33746   5218328.72861
  20329531.7354  -20237031.68647 -15707533.08664
 91  4 22 22 52 59.9970000  0  5G15G 2G13G19G 6
  23080359.9464   -1855909.04945  -1350645.93561
  19899348.2514  -19894678.54648 -15502295.27564
  22441855.2984   -4205388.57045   -495360.18561
  22044317.290     6728268.020 5   5242789.75521
  20324027.3064  -20265957.81947 -15730072.89664
 91  4 22 22 53 14.9970000  0  5G15G 2G13G19G 6
  23075738.165    -1880207.607 5  -1369579.76821
  19898436.2514  -19899470.52048 -15506029.26964
  22429809.2434   -4268687.46945   -544683.71261
  22050308.470     6759726.001 6   5267302.37821
  20318531.8924  -20294832.00347 -15752572.22164
 91  4 22 22 53 29.9970000  0  5G15G 2G13G19G 6
  23071136.212    -1904398.706 5  -1388429.87521
  19897534.610   -19904208.418 8 -15509721.12624
  22417774.314    -4331934.845 5   -593967.06321
  22056298.962     6791246.798 5   5291863.94321
  20313048.1494  -20323657.58947 -15775033.68264
 91  4 22 22 53 44.9970000  0  5G15G 2G13G19G 6
  23066555.017    -1928479.623 5  -1407194.11721
  19896644.0564  -19908889.81748 -15513368.95964
  22405748.2284   -4395128.04145   -643208.21361
  22062317.0564    6822832.43445   5316476.08161
  20307571.0714  -20352431.87347 -15797455.16464
 91  4 22 22 53 59.9970000  0  5G15G 2G13G19G 6
  23061988.9464   -1952449.30345  -1425871.68761
  19895764.2594  -19913513.97548 -15516972.18964
  22393732.4234   -4458265.95745   -692406.29061
  22068334.4784    6854483.87445   5341139.44761
  20302105.4624  -20381153.92247 -15819835.94964
 91  4 22 22 54 14.9970000  0  5G15G 2G13G19G 6
  23057453.8604   -1976305.69445  -1444460.99061
  19894894.899   -19918079.161 8 -15520529.46324
  22381731.087    -4521345.963 5   -741559.24721
  22074375.1424    6886203.02445   5365855.58661
  20296650.2744  -20409821.57447 -15842174.34863
 91  4 22 22 54 29.9970000  0  5G15G 2G13G19G 6
  23052933.814    -2000054.747 5  -1462966.64221
  19894037.0174  -19922591.53348 -15524045.58764
  22369736.642    -4584374.164 5   -790671.83821
  22080418.923     6917983.528 5   5390619.59521
  20291204.6894  -20438440.72347 -15864474.95263
 91  4 22 22 54 44.9970000  0  5G15G 2G13G19G 6
  23048435.431    -2023697.698 5  -1481389.61921
  19893187.2514  -19927052.80448 -15527521.89164
  22357751.0014   -4647351.73745   -839744.99561
  22086480.5404    6949823.70545   5415429.97161
  20285766.1894  -20467012.83647 -15886738.91064
 91  4 22 22 54 59.9970000  0  5G15G 2G13G19G 6
  23043955.853    -2047228.293 5  -1499725.04421
  19892349.9074  -19931456.95248 -15530953.68564
  22345776.3214   -4710272.25645   -888773.68761
  22092549.5484    6981729.55545   5440291.66161
  20280340.3534  -20495531.56147 -15908961.26164
 91  4 22 22 55 14.9970000  0  5G15G 2G13G19G 6
  23039494.0014   -2070657.41145  -1517981.40661
  19891520.399   -19935815.521 8 -15534349.95924
  22333812.259    -4773146.866 5   -937766.61021
  22098631.9784    7013689.53345   5465195.47061
  20274921.4784  -20524008.27247 -15931150.87364
 91  4 22 22 55 29.9970000  0  5G15G 2G13G19G 6
  23035059.110    -2093980.610 5  -1536155.22221
  19890700.095   -19940123.999 8 -15537707.20424
  22321858.3534   -4835971.06445   -986720.25061
  22104724.610     7045708.016 5   5490144.81421
  20269511.3844  -20552438.15647 -15953303.99564
 91  4 22 22 55 44.9970000  0  5G15G 2G13G19G 6
  23030642.9544   -2117188.59245  -1554239.27361
  19889891.9624  -19944373.48848 -15541018.47864
  22309913.173    -4898735.278 5  -1035627.17921
  22110833.618     7077793.992 5   5515146.83221
  20264110.6894  -20580811.87647 -15975413.35864
 91  4 22 22 55 59.9970000  0  5G15G 2G13G19G 6
  23026243.610    -2140287.786 5  -1572238.55821
  19889093.1574  -19948571.06148 -15544289.31264
  22297980.6104   -4961445.96145  -1084492.37261
  22116947.2124    7109940.32245   5540195.84461
  20258722.1894  -20609136.28947 -15997484.28764
 91  4 22 22 56 14.9970000  0  5G15G 2G13G19G 6
  23021873.759    -2163273.973 5  -1590149.77721
  19888304.5404  -19952712.72748 -15547516.57364
  22286057.118    -5024098.528 5  -1133312.27521
  22123078.3844    7142151.25945   5565295.16361
  20253342.0644  -20637406.97547 -16019513.36264
 91  4 22 22 56 29.9970000  0  5G15G 2G13G19G 6
  23017519.446    -2186150.301 5  -1607975.40021
  19887525.8214  -19956802.11048 -15550703.09764
  22274146.329    -5086696.144 5  -1182089.35421
  22129218.720     7174423.142 5   5590442.05321
  20247972.2824  -20665627.28147 -16041503.18564
 91  4 22 22 56 44.9970000  0  5G15G 2G13G19G 6
  23013186.501    -2208914.240 5  -1625713.45821
  19886759.0094  -19960836.77348 -15553846.98164
  22262245.5244   -5149235.96145  -1230821.43161
  22135372.189     7206758.337 5   5615638.19421
  20242611.485   -20693794.726 7 -16063451.81924
 91  4 22 22 56 59.9970000  0  5G15G 2G13G19G 6
  23008873.9934   -2231565.94445  -1643364.04661
  19886001.1034  -19964817.36348 -15556948.72864
  22250353.9314   -5211718.14145  -1279508.57361
  22141539.095     7239156.177 5   5640883.19221
  20237261.8924  -20721909.40147 -16085359.32964
 91  4 22 22 57 14.9970000  0  5G15G 2G13G19G 6
  23004589.907    -2254101.984 5  -1660924.52421
  19885254.2284  -19968740.57848 -15560005.76664
  22238477.556    -5274139.268 5  -1328148.17421
  22147717.0094    7271619.93845   5666179.59461
  20231922.1894  -20749967.84247 -16107223.02463
 91  4 22 22 57 29.9970000  0  5G15G 2G13G19G 6
  23000317.2354   -2276529.90145  -1678400.74561
  19884518.0324  -19972614.14948 -15563024.12364
  22226606.3064   -5336506.48045  -1376745.76061
  22153904.767     7304141.920 5   5691521.29221
  20226591.7204  -20777977.42847 -16129048.64064
 91  4 22 22 57 44.9970000  0  5G15G 2G13G19G 6
  22996072.1344   -2298843.94045  -1695788.21661
  19883790.2124  -19976433.03848 -15565999.87264
  22214750.798    -5398814.128 5  -1425296.93321
  22160109.0644    7336727.19345   5716912.33461
  20221272.2984  -20805932.66847 -16150831.91664
 91  4 22 22 57 59.9970000  0  5G15G 2G13G19G 6
  22991848.212    -2321045.715 5  -1713088.23121
  19883074.2284  -19980199.12648 -15568934.47564
  22202905.267    -5461063.675 5  -1473802.81621
  22166317.9934    7369373.77445   5742351.17661
  20215963.767   -20833835.298 7 -16172574.19524
 91  4 22 22 58 14.9970000  0  5G15G 2G13G19G 6
  22987643.603    -2343136.493 5  -1730301.74321
  19882367.4314  -19983914.07248 -15571829.23364
  22191069.5954   -5523256.43845  -1522264.49161
  22172542.056     7402080.265 5   5767836.66521
  20210662.321   -20861686.677 7 -16194276.54324
 91  4 22 22 58 29.9970000  0  5G15G 2G13G19G 6
  22983459.1424   -2365114.35445  -1747427.26561
  19881669.9394  -19987575.99848 -15574682.67364
  22179245.501    -5585390.095 5  -1570680.08321
  22178776.079     7434848.288 5   5793370.13521
  20205373.274   -20889484.488 7 -16215937.14923
 91  4 22 22 58 44.9970000  0  5G15G 2G13G19G 6
  22979300.4314   -2386975.17445  -1764461.60561
  19880983.5094  -19991181.13748 -15577491.86464
  22167434.3064   -5647460.41345  -1619046.30261
  22185025.0794    7467681.54045   5818954.41061
  20200094.423   -20917224.968 7 -16237553.07423
 91  4 22 22 58 59.9970000  0  5G15G 2G13G19G 6
  22975160.282    -2408725.113 5  -1781409.55821
  19880308.0324  -19994736.17548 -15580262.01464
  22155633.3994   -5709473.67145  -1667368.07661
  22191287.118     7500573.399 5   5844584.33421
  20194825.1264  -20944914.43447 -16259129.26164
 91  4 22 22 59 14.9970000  0  5G15G 2G13G19G 6
  22971045.446    -2430363.750 5  -1798270.75321
  19879640.3064  -19998240.85448 -15582992.92564
  22143843.485    -5771429.069 6  -1715644.77621
  22197556.056     7533524.213 5   5870260.24821
  20189566.1424  -20972552.06247 -16280665.04664
 91  4 22 22 59 29.9970000  0  5G15G 2G13G19G 6
  22966948.954    -2451887.181 5  -1815042.20021
  19878984.8374  -20001691.69248 -15585681.87764
  22132064.5244   -5833322.89445  -1763873.50061
  22203837.384     7566537.296 5   5895984.63921
  20184317.712   -21000134.339 7 -16302157.70324
 91  4 22 22 59 44.9970000  0  5G15G 2G13G19G 6
  22962876.142    -2473298.824 5  -1831726.52421
  19878337.2674  -20005092.37848 -15588331.75464
  22120298.704    -5895158.447 5  -1812056.78421
  22210131.3844    7599608.87745   5921754.63261
  20179078.1654  -21027664.47447 -16323609.72963
 91  4 22 22 59 59.9970000  0  5G15G 2G13G19G 6
  22958824.3924   -2494596.18645  -1848321.81161
  19877699.5014  -20008440.67048 -15590940.80564
  22108542.595    -5956933.153 5  -1860192.70721
  22216435.173     7632741.256 5   5947571.98021
  20173849.2354  -21055140.11847 -16345019.29664
 91  4 22 23  0 14.9970000  0  5G15G 2G13G19G 6
  22954789.2904   -2515784.54045  -1864832.15561
  19877071.4234  -20011742.22948 -15593513.43864
  22096795.5714   -6018651.85745  -1908284.98261
  22222752.0564    7665928.77245   5973432.27361
  20168630.9934  -21082566.43447 -16366390.42364
 91  4 22 23  0 29.9970000  0  5G15G 2G13G19G 6
  22950780.5324   -2536857.11745  -1881252.27961
  19876453.7744  -20014990.89448 -15596044.85564
  22085063.767    -6080307.946 5  -1956328.43421
  22229078.259     7699177.879 5   5999340.59721
  20163421.743   -21109936.998 7 -16387718.11124
 91  4 22 23  0 44.9970000  0  5G15G 2G13G19G 6
  22946793.4314   -2557816.13546  -1897583.93261
  19875845.1734  -20018188.95948 -15598536.84864
  22073342.087    -6141903.466 5  -2004324.68821
  22235416.399     7732486.034 5   6025294.92121
  20158223.556   -21137253.848 7 -16409003.94323
 91  4 22 23  0 59.9970000  0  5G15G 2G13G19G 6
  22942824.8534   -2578664.05246  -1913829.00161
  19875244.9314  -20021339.20448 -15600991.57564
  22061631.735    -6203440.779 5  -2052275.60021
  22241765.8684    7765850.50345   6051293.09161
  20153036.1734  -21164519.46247 -16430249.84763
 91  4 22 23  1 14.9970000  0  5G15G 2G13G19G 6
  22938877.524    -2599401.135 6  -1929987.71921
  19874654.6264  -20024441.98648 -15603409.31864
  22049933.3844   -6264919.77345  -2100181.07161
  22248125.7514    7799270.86145   6077334.82061
  20147857.3604  -21191733.87547 -16451455.85263
 91  4 22 23  1 29.9970000  0  5G15G 2G13G19G 6
  22934957.5404   -2620022.84046  -1946056.51861
  19874073.1104  -20027493.21248 -15605786.88864
  22038245.3454   -6326335.80246  -2148037.45561
  22254494.2354    7832751.03945   6103423.22861
  20142688.7434  -21218892.69047 -16472618.54063
 91  4 22 23  1 44.9970000  0  5G15G 2G13G19G 6
  22931052.9394   -2640530.77346  -1962036.67461
  19873502.2744  -20030495.00248 -15608125.93364
  22026571.7124   -6387690.57945  -2195846.12661
  22260878.1894    7866289.14045   6129556.69661
  20137531.681   -21245997.774 7 -16493739.35823
 91  4 22 23  1 59.9970000  0  5G15G 2G13G19G 6
  22927169.626    -2660922.643 6  -1977926.40321
  19872942.5094  -20033445.11348 -15610424.71664
  22014907.2044   -6448981.36345  -2243604.94461
  22267273.204     7899887.245 5   6155736.99121
  20132383.329   -21273046.652 7 -16514816.38423
 91  4 22 23  2 14.9970000  0  5G15G 2G13G19G 6
  22923315.399    -2681199.264 6  -1993726.28421
  19872389.5954  -20036344.53248 -15612683.99664
  22003255.2744   -6510208.87645  -2291314.47161
  22273679.181     7933544.379 5   6181963.22421
  20127248.1344  -21300039.99947 -16535850.13263
 91  4 22 23  2 29.9970000  0  5G15G 2G13G19G 6
  22919477.040    -2701354.871 5  -2009431.90121
  19871848.6264  -20039188.01448 -15614899.69164
  21991616.907    -6571367.470 5  -2338970.27721
  22280094.0714    7967265.64245   6208239.44261
  20122121.5174  -21326972.09947 -16556836.15663
 91  4 22 23  2 44.9970000  0  5G15G 2G13G19G 6
  22915662.923    -2721392.098 5  -2025045.26221
  19871317.3144  -20041978.75248 -15617074.28564
  21979992.1034   -6632459.84745  -2386574.48561
  22286524.3994    8001048.02845   6234563.33661
  20117006.954   -21353845.941 7 -16577776.78324
 91  4 22 23  2 59.9970000  0  5G15G 2G13G19G 6
  22911873.4544   -2741312.54045  -2040567.63561
  19870796.337   -20044718.369 8 -15619209.03824
  21968379.0874   -6693487.05846  -2434127.91461
  22292963.009     8034889.927 5   6260933.54821
  20111904.5174  -21380662.72747 -16598672.95663
 91  4 22 23  3 14.9970000  0  5G15G 2G13G19G 6
  22908105.6344   -2761112.90445  -2055996.42561
  19870284.7434  -20047403.94448 -15621301.68264
  21956778.149    -6754445.874 6  -2481628.05121
  22299415.001     8068794.268 5   6287352.40421
  20106813.149   -21407419.217 7 -16619522.14523
 91  4 22 23  3 29.9970000  0  5G15G 2G13G19G 6
  22904358.306    -2780795.679 5  -2071333.60621
  19869783.3214  -20050038.27348 -15623354.39864
  21945191.0014   -6815338.55946  -2529076.65961
  22305877.829     8102758.104 5   6313817.61721
  20101731.556   -21434117.994 7 -16640326.36323
 91  4 22 23  3 44.9970000  0  5G15G 2G13G19G 6
  22900634.821    -2800360.388 5  -2086578.78221
  19869292.1104  -20052621.47548 -15625367.27564
  21933617.337    -6876164.710 6  -2576473.40121
  22312353.923     8136781.520 5   6340329.30121
  20096661.767   -21460758.760 7 -16661085.37723
 91  4 22 23  3 59.9970000  0  5G15G 2G13G19G 6
  22896931.915    -2819810.111 5  -2101734.36821
  19868810.5714  -20055156.72048 -15627342.78464
  21922052.634    -6936927.382 6  -2623820.70121
  22318837.939     8170861.155 5   6366884.77021
  20091603.6894  -21487344.54247 -16681801.54363
 91  4 22 23  4 14.9970000  0  5G15G 2G13G19G 6
  22893255.462    -2839145.589 5  -2116800.90721
  19868337.1894  -20057644.97648 -15629281.67764
  21910500.282    -6997627.160 6  -2671119.00721
  22325331.4854    8204995.92245   6393483.19161
  20086554.3374  -21513876.01747 -16702475.38964
 91  4 22 23  4 29.9970000  0  5G15G 2G13G19G 6
  22889596.681    -2858363.100 5  -2131775.55521
  19867872.6344  -20060082.53248 -15631181.06364
  21898963.642    -7058259.966 6  -2718365.10021
  22331838.3064    8239189.41845   6420127.38961
  20081516.946   -21540349.268 7 -16723103.87024
 91  4 22 23  4 44.9970000  0  5G15G 2G13G19G 6
  22885965.298    -2877460.247 5  -2146656.38421
  19867419.6034  -20062467.56248 -15633039.51664
  21887437.735    -7118823.556 6  -2765557.29421
  22338359.3454    8273443.49645   6446818.74861
  20076490.774   -21566762.118 7 -16743685.28624
 91  4 22 23  4 59.9970000  0  5G15G 2G13G19G 6
  22882353.892    -2896438.850 5  -2161444.85021
  19866974.2674  -20064802.10548 -15634858.62964
  21875925.743    -7179319.314 6  -2812696.60221
  22344887.4544    8307756.16345   6473555.82361
  20071476.290   -21593116.210 7 -16764220.91724
 91  4 22 23  5 14.9970000  0  5G15G 2G13G19G 6
  22878768.181    -2915291.677 5  -2176135.31221
  19866541.5644  -20067079.47548 -15636633.19664
  21864428.696    -7239740.008 6  -2859777.40121
  22351430.7594    8342134.05545   6500343.71961
  20066472.954   -21619404.609 7 -16784705.35824
 91  4 22 23  5 29.9970000  0  5G15G 2G13G19G 6
  22875202.7674   -2934025.93745  -2190733.37561
  19866117.1734  -20069306.86948 -15638368.81664
  21852943.1734   -7300092.63246  -2906805.19961
  22357981.431     8376569.973 5   6527176.77821
  20061482.6034  -21645634.24047 -16805144.00164
 91  4 22 23  5 44.9970000  0  5G15G 2G13G19G 6
  22871660.314    -2952644.885 6  -2205241.60621
  19865702.353   -20071487.783 8 -15640068.21524
  21841471.7514   -7360380.03946  -2953782.16161
  22364546.2744    8411060.36445   6554052.31261
  20056501.7744  -21671808.22347 -16825539.28163
 91  4 22 23  5 59.9970000  0  5G15G 2G13G19G 6
  22868139.2044   -2971148.28846  -2219659.78761
  19865296.2284  -20073622.45648 -15641731.59464
  21830011.235    -7420602.156 6  -3000708.21721
  22371117.259     8445605.164 5   6580970.26421
  20051531.509   -21697926.392 7 -16845891.07823
 91  4 22 23  6 14.9970000  0  5G15G 2G13G19G 6
  22864637.0794   -2989531.72445  -2233984.48261
  19864899.0174  -20075706.71948 -15643355.68764
  21818563.579    -7480754.512 6  -3047579.95621
  22377703.290     8480208.374 5   6607933.70521
  20046572.642   -21723984.368 7 -16866195.97023
 91  4 22 23  6 29.9970000  0  5G15G 2G13G19G 6
  22861163.751    -3007791.246 5  -2248212.62721
  19864512.8994  -20077736.98448 -15644937.70164
  21807131.009    -7540833.114 6  -3094394.22221
  22384299.735     8514873.609 5   6634945.44221
  20041625.548   -21749978.313 7 -16886450.97123
 91  4 22 23  6 44.9970000  0  5G15G 2G13G19G 6
  22857713.392    -3025927.774 5  -2262344.93821
  19864136.415   -20079714.390 8 -15646478.53024
  21795713.5484   -7600838.55946  -3141151.47561
  22390910.0874    8549599.48145   6662004.48661
  20036691.3604  -21775908.97647 -16906656.65464
 91  4 22 23  6 59.9970000  0  5G15G 2G13G19G 6
  22854282.7284   -3043944.32845  -2276383.76661
  19863770.087   -20081642.211 8 -15647980.71324
  21784307.0874   -7660773.60246  -3187853.86761
  22397528.2744    8584382.87845   6689108.38361
  20031768.1574  -21801779.41947 -16926815.40863
 91  4 22 23  7 14.9970000  0  5G15G 2G13G19G 6
  22850876.470    -3061844.272 5  -2290331.72121
  19863411.0324  -20083524.11048 -15649447.12064
  21772913.7434   -7720641.50846  -3234503.95361
  22404158.5174    8619220.04645   6716254.11161
  20026856.4234  -21827592.89247 -16946929.77764
 91  4 22 23  7 29.9970000  0  5G15G 2G13G19G 6
  22847491.6964   -3079624.53345  -2304186.43261
  19863063.8454  -20085357.03648 -15650875.36764
  21761535.8294   -7780439.00046  -3281099.15761
  22410798.0794    8654113.89545   6743444.00161
  20021955.0244  -21853346.14647 -16966997.21564
 91  4 22 23  7 44.9970000  0  5G15G 2G13G19G 6
  22844134.282    -3097282.913 5  -2317946.15121
  19862723.0874  -20087139.11348 -15652263.99064
  21750170.0174   -7840163.65446  -3327637.60561
  22417448.9704    8689066.23345   6770679.53861
  20017066.7984  -21879037.06947 -16987016.08964
 91  4 22 23  7 59.9970000  0  5G15G 2G13G19G 6
  22840796.8374   -3114819.71945  -2331611.15761
  19862394.462   -20088870.953 8 -15653613.46124
  21738815.9154   -7899815.68146  -3374119.47461
  22424111.814     8724076.557 5   6797960.21521
  20012190.0404  -21904665.83447 -17006986.52263
 91  4 22 23  8 14.9970000  0  5G15G 2G13G19G 6
  22837482.5564   -3132232.43345  -2345179.46261
  19862074.509   -20090550.565 8 -15654922.23624
  21727482.228    -7959392.746 6  -3420542.93621
  22430787.0174    8759146.77345   6825287.54861
  20007325.9624  -21930230.13547 -17026906.73163
 91  4 22 23  8 29.9970000  0  5G15G 2G13G19G 6
  22834191.790    -3149522.697 5  -2358652.35921
  19861764.8374  -20092179.88548 -15656191.82764
  21716155.970    -8018896.339 6  -3466909.14821
  22437470.564     8794274.988 5   6852660.08721
  20002472.6574  -21955731.55547 -17046777.93364
 91  4 22 23  8 44.9970000  0  5G15G 2G13G19G 6
  22830928.0244   -3166691.14545  -2372030.32761
  19861463.7594  -20093759.68148 -15657422.82564
  21704847.798    -8078326.865 6  -3513218.42221
  22444167.2044    8829460.44445   6880077.22161
  19997631.0564  -21981170.73747 -17066600.64663
 91  4 22 23  8 59.9970000  0  5G15G 2G13G19G 6
  22827682.1654   -3183741.49345  -2385316.27461
  19861171.7044  -20095294.30048 -15658618.62464
  21693549.4154   -8137687.75546  -3559473.41861
  22450870.7744    8864698.96445   6907535.72561
  19992801.5174  -22006551.41847 -17086377.77064
 91  4 22 23  9 14.9970000  0  5G15G 2G13G19G 6
  22824460.3844   -3200666.81245  -2398504.79361
  19860890.165   -20096776.604 8 -15659773.65424
  21682272.2124   -8196972.00846  -3605668.72561
  22457589.1104    8899997.34245   6935040.85561
  19987983.4394  -22031866.43047 -17106103.72664
 91  4 22 23  9 29.9970000  0  5G15G 2G13G19G 6
  22821264.9314   -3217470.01445  -2411598.15261
  19860617.1894  -20098209.77248 -15660890.39864
  21671001.6814   -8256182.43546  -3651806.49461
  22464316.829     8935352.264 5   6962590.04121
  19983178.3844  -22057118.63847 -17125780.73764
 91  4 22 23  9 44.9970000  0  5G15G 2G13G19G 6
  22818090.7514   -3234146.25745  -2424592.58361
  19860354.2904  -20099589.18348 -15661965.25364
  21659751.087    -8315313.927 6  -3697882.74221
  22471055.360     8970768.444 5   6990186.95321
  19978386.2354  -22082303.03647 -17145404.91364
 91  4 22 23  9 59.9970000  0  5G15G 2G13G19G 6
  22814939.3374   -3250696.80145  -2437489.07361
  19860101.665   -20100916.609 8 -15662999.60024
  21648512.0874   -8374367.87646  -3743898.60461
  22477805.1034    9006243.83845   7017830.02361
  19973606.6494  -22107421.23347 -17164977.50464
 91  4 22 23 10 14.9970000  0  5G15G 2G13G19G 6
  22811815.595    -3267121.517 5  -2450287.50521
  19859858.9544  -20102192.10048 -15663993.47864
  21637290.759    -8433343.598 6  -3789853.50121
  22484569.4154    9041778.66845   7045519.42961
  19968838.8924  -22132472.83447 -17184498.20163
 91  4 22 23 10 29.9970000  0  5G15G 2G13G19G 6
  22808709.8064   -3283432.08245  -2462997.00861
  19859623.6654  -20103427.63648 -15664956.22164
  21626079.087    -8492252.911 6  -3835756.63321
  22491339.5014    9077360.86245   7073245.69261
  19964082.392   -22157469.566 7 -17203976.15124
 91  4 22 23 10 44.9970000  0  5G15G 2G13G19G 6
  22805630.0404   -3299617.75745  -2475609.17861
  19859398.5954  -20104612.85148 -15665879.75364
  21614884.774    -8551084.958 6  -3881599.58521
  22498124.9154    9113000.71145   7101016.87761
  19959338.3144  -22182400.75147 -17223403.01964
 91  4 22 23 10 59.9970000  0  5G15G 2G13G19G 6
  22802574.5174   -3315680.30245  -2488125.41161
  19859181.3994  -20105749.54448 -15666765.47864
  21603703.321    -8609841.094 6  -3927383.39121
  22504916.259     9148696.387 5   7128831.60221
  19954605.470   -22207267.831 7 -17242779.93724
 91  4 22 23 11 14.9970000  0  5G15G 2G13G19G 6
  22799541.056    -3331619.364 6  -2500545.41221
  19858976.0714  -20106837.83348 -15667613.48764
  21592536.4704   -8668521.06746  -3973107.84561
  22511718.946     9184447.860 5   7156689.79921
  19949884.8604  -22232070.56847 -17262106.71664
 91  4 22 23 11 29.9970000  0  5G15G 2G13G19G 6
  22796532.6344   -3347428.42545  -2512864.14061
  19858777.4854  -20107871.28048 -15668418.76264
  21581385.2744   -8727118.25746  -4018767.78961
  22518535.798     9220261.249 5   7184596.19021
  19945179.2044  -22256802.34547 -17281378.20164
 91  4 22 23 11 44.9970000  0  5G15G 2G13G19G 6
  22793545.642    -3363112.785 5  -2525085.68221
  19858590.4624  -20108855.36448 -15669185.57664
  21570249.993    -8785637.389 6  -4064366.90221
  22525362.353     9256131.066 5   7212546.59521
  19940485.1184  -22281468.45447 -17300598.51964
 91  4 22 23 11 59.9970000  0  5G15G 2G13G19G 6
  22790587.892    -3378670.660 5  -2537208.66421
  19858413.5324  -20109788.31548 -15669912.54464
  21559130.0564   -8844076.63246  -4109903.79561
  22532195.095     9292059.058 5   7240542.33621
  19935804.9314  -22306066.78647 -17319766.02264
 91  4 22 23 12 14.9970000  0  5G15G 2G13G19G 6
  22787651.876    -3394101.409 5  -2549232.59521
  19858246.9854  -20110670.20348 -15670599.72464
  21548023.7984   -8902435.50246  -4155378.03061
  22539045.2434    9328045.22845   7268583.38961
  19931136.985   -22330596.885 7 -17338880.36324
 91  4 22 23 12 29.9970000  0  5G15G 2G13G19G 6
  22784738.0564   -3409410.79945  -2561161.96861
  19858085.4314  -20111506.68148 -15671251.52364
  21536932.0874   -8960719.05746  -4200793.59661
  22545902.610     9364083.821 5   7296665.29321
  19926480.337   -22355064.177 7 -17357945.76524
 91  4 22 23 12 44.9970000  0  5G15G 2G13G19G 6
  22781849.1814   -3424593.42345  -2572992.54161
  19857935.3534  -20112292.86148 -15671864.12564
  21525855.3924   -9018921.91946  -4246146.30861
  22552774.532     9400179.629 5   7324791.78721
  19921837.704   -22379463.484 7 -17376958.19124
 91  4 22 23 12 59.9970000  0  5G15G 2G13G19G 6
  22778982.3924   -3439648.02945  -2584723.37561
  19857796.5564  -20113027.89048 -15672436.86764
  21514796.306    -9077042.981 6  -4291435.25121
  22559655.8144    9436333.46445   7352963.50661
  19917208.204   -22403793.576 7 -17395916.68124
 91  4 22 23 13 14.9970000  0  5G15G 2G13G19G 6
  22776143.251    -3454577.858 5  -2596356.97721
  19857667.149   -20113715.013 8 -15672972.27724
  21503751.0644   -9135085.28046  -4336662.82761
  22566538.0794    9472542.03445   7381177.85061
  19912590.0954  -22428057.60647 -17414823.68364
 91  4 22 23 13 29.9970000  0  5G15G 2G13G19G 6
  22773326.892    -3469377.821 6  -2607889.37021
  19857546.9544  -20114349.37148 -15673466.57964
  21492721.048    -9193043.404 6  -4381824.83221
  22573442.8604    9508810.13844   7409438.56461
  19907987.149   -22452250.252 7 -17433675.07224
 91  4 22 23 13 44.9970000  0  5G15G 2G13G19G 6
  22770532.7434   -3484053.52445  -2619324.96061
  19857435.0244  -20114936.77848 -15673924.29264
  21481707.470    -9250922.668 6  -4426925.38121
  22580352.314     9545131.860 5   7437741.07021
  19903396.4314  -22476376.98747 -17452475.09964
 91  4 22 23 13 59.9970000  0  5G15G 2G13G19G 6
  22767765.1964   -3498600.03945  -2630659.88461
  19857333.1814  -20115472.63848 -15674341.84464
  21470709.2354   -9308718.18146  -4471960.65261
  22587276.5484    9581511.74545   7466088.97961
  19898818.837   -22500433.044 7 -17471220.06124
 91  4 22 23 14 14.9970000  0  5G15G 2G13G19G 6
  22765019.712    -3513020.126 5  -2641896.28921
  19857237.6814  -20115959.98148 -15674721.58764
  21459728.314    -9366432.496 6  -4516932.67321
  22594209.4234    9617946.81044   7494479.82561
  19894253.610   -22524421.061 7 -17489912.00224
 91  4 22 23 14 29.9970000  0  5G15G 2G13G19G 6
  22762300.8924   -3527312.72545  -2653033.35161
  19857156.0874  -20116397.91248 -15675062.82464
  21448760.165    -9424064.655 6  -4561840.67621
  22601155.782     9654437.759 4   7522914.16521
  19889701.696   -22548340.015 7 -17508550.12424
 91  4 22 23 14 44.9960000  0  5G15G 2G13G19G 6
  22759605.1764   -3541477.55045  -2664070.84261
  19857082.0904  -20116787.21848 -15675366.17264
  21437809.231    -9481611.118 6  -4606681.90821
  22608110.316     9690981.245 5   7551389.45921
  19885164.4264  -22572188.70647 -17527133.49464
 91  4 22 23 14 59.9960000  0  5G15G 2G13G19G 6
  22756932.590    -3555515.030 5  -2675009.11121
  19857015.9264  -20117126.81148 -15675630.78064
  21426873.1844   -9539077.89246  -4651461.02461
  22615073.1684    9727583.55545   7579910.61661
  19880639.9104  -22595968.82147 -17545663.42464
 91  4 22 23 15 14.9960000  0  5G15G 2G13G19G 6
  22754287.2854   -3569427.46945  -2685849.93761
  19856964.2464  -20117420.06548 -15675859.28564
  21415952.621    -9596464.264 6  -4696177.50321
  22622053.5984    9764238.54245   7608472.85061
  19876126.121   -22619681.944 7 -17564141.15724
 91  4 22 23 15 29.9960000  0  5G15G 2G13G19G 6
  22751662.5594   -3583212.68445  -2696591.62361
  19856914.2074  -20117665.02048 -15676050.15464
  21405048.668    -9653767.718 6  -4740829.39121
  22629035.1604    9800948.04945   7637077.58361
  19871625.9414  -22643325.91547 -17582565.00564
 91  4 22 23 15 44.9960000  0  5G15G 2G13G19G 6
  22749063.262    -3596866.885 5  -2707231.21221
  19856877.7314  -20117858.44748 -15676200.86964
  21394158.777    -9710984.576 6  -4785413.75621
  22636034.566     9837715.354 5   7665727.26721
  19867141.543   -22666897.093 7 -17600932.13224
 91  4 22 23 15 59.9960000  0  5G15G 2G13G19G 6
  22746489.957    -3610392.969 5  -2717770.96521
  19856849.9964  -20118003.09148
  21383287.8484   -9768117.23046  -4829932.54961
  22643038.090     9874537.585 5   7694419.76521
  19862669.715   -22690397.905 7 -17619244.42724
 91  4 22 23 16 14.9960000  0  5G15G 2G13G19G 6
  22743942.965    -3623788.832 5  -2728209.25021
  19856830.7624  -20118097.16348
  21372432.074    -9825163.597 6  -4874384.10121
  22650059.254     9911416.547 5   7723156.51221
  19858211.004   -22713826.145 7 -17637500.17524
 91  4 22 23 16 29.9960000  0  5G15G 2G13G19G 6
  22741419.316    -3637051.877 5  -2738544.04221
  19856824.4104  -20118138.26148
  21361593.1214   -9882120.93846  -4918766.25561
  22657087.3634    9948354.60644   7751939.29961
  19853767.598   -22737179.279 7 -17655697.40324
 91  4 22 23 16 44.9960000  0  5G15G 2G13G19G 6
  22738919.0824   -3650182.77445  -2748775.83961
  19856826.7774  -20118127.52948
  21350771.6914   -9938990.08946  -4963079.71961
  22664126.0434    9985350.51344   7780767.18161
  19849336.5044  -22760458.05647 -17673836.68164
 91  4 22 23 16 59.9960000  0  5G15G 2G13G19G 6
  22736444.9814   -3663182.78945  -2758905.68261
  19856838.0354  -20118066.09048
  21339965.395    -9995771.534 6  -5007324.84221
  22671177.926    10022402.996 5   7809639.14021
  19844920.793   -22783663.371 7 -17691918.71824
 91  4 22 23 17 14.9960000  0  5G15G 2G13G19G 6
  22733999.0044   -3676056.70345  -2768937.25161
  19856860.0824  -20117959.09748
  21329176.0824  -10052470.17146  -5051505.43861
  22678238.863    10059506.946 5   7838551.19321
  19840518.1064  -22806799.98047 -17709947.22264
 91  4 22 23 17 29.9960000  0  5G15G 2G13G19G 6
  22731572.2464   -3688802.46345  -2778868.94361
  19856889.8634  -20117804.73848
  21318402.543   -10109083.654 6  -5095619.66421
  22685311.199    10096664.341 4   7867504.84521
  19836127.7704  -22829865.78347 -17727920.54264
 91  4 22 23 17 44.9960000  0  5G15G 2G13G19G 6
  22729170.3324   -3701415.52945  -2788697.24161
  19856929.402   -20117598.502 8
  21307647.8484  -10165607.21146  -5139663.83361
  22692390.7544   10133879.36844   7896503.40061
  19831753.8164  -22852856.04947 -17745835.00864
 91  4 22 23 17 59.9960000  0  5G15G 2G13G19G 6
  22726791.0664   -3713897.23945  -2798423.18561
  19856974.871   -20117342.218 8 -15675798.53124
  21296908.285   -10222042.183 6  -5183638.97721
  22699486.5904   10171150.11545   7925545.45861
  19827392.402   -22875772.379 7 -17763691.86224
 91  4 22 23 18 14.9960000  0  5G15G 2G13G19G 6
  22724440.520    -3726252.634 5  -2808050.72121
  19857035.184   -20117040.889 8 -15675563.71824
  21286184.6994  -10278393.31346  -5227548.76161
  22706590.4024   10208471.46545   7954626.95361
  19823045.379   -22898619.398 7 -17781494.71224
 91  4 22 23 18 29.9960000  0  5G15G 2G13G19G 6
  22722114.7544   -3738480.06145  -2817578.50761
  19857099.2854  -20116693.00848 -15675292.63264
  21275477.254   -10334658.780 6  -5271391.83121
  22713697.090    10245844.894 5   7983748.98321
  19818712.035   -22921395.294 7 -17799242.14424
 91  4 22 23 18 44.9960000  0  5G15G 2G13G19G 6
  22719814.059    -3750572.701 5  -2827001.26421
  19857177.3094  -20116292.27248 -15674980.36464
  21264788.691   -10390831.566 6  -5315162.67421
  22720824.9184   10283276.83244   8012916.57461
  19814391.9104  -22944093.26747 -17816928.84864
 91  4 22 23 18 59.9960000  0  5G15G 2G13G19G 6
  22717540.2624   -3762533.41245  -2836321.23161
  19857263.1214  -20115841.60248 -15674629.18664
  21254114.840   -10446914.390 6  -5358863.40021
  22727953.1294   10320764.05744   8042127.22761
  19810087.6454  -22966716.11547 -17834557.00764
 91  4 22 23 19 14.9960000  0  5G15G 2G13G19G 6
  22715287.785    -3774365.256 5  -2845540.80721
  19857356.715   -20115344.170 8 -15674241.56624
  21243458.301   -10502910.272 6  -5402496.40221
  22735096.8954   10358303.08644   8071378.30361
  19805796.9654  -22989266.88447 -17852129.00764
 91  4 22 23 19 29.9960000  0  5G15G 2G13G19G 6
  22713063.4654   -3786074.50446  -2854664.83161
  19857457.199   -20114806.598 8 -15673822.66824
  21232818.371   -10558825.105 6  -5446066.24021
  22742251.8714   10395887.57444   8100664.81861
  19801517.3634  -23011751.61447 -17869649.54964
 91  4 22 23 19 44.9960000  0  5G15G 2G13G19G 6
  22710861.207    -3797646.909 6  -2863682.21521
  19857570.074   -20114214.748 8 -15673361.47424
  21222197.137   -10614644.582 6  -5489561.76721
  22749411.7704   10433531.63543   8129997.78261
  19797254.1294  -23034155.93747 -17887107.43264
 91  4 22 23 19 59.9960000  0  5G15G 2G13G19G 6
  22708681.457    -3809086.675 5  -2872596.26521
  19857694.9734  -20113573.03848 -15672861.43264
  21211591.0434  -10670372.51846  -5532985.97461
  22756585.0354   10471230.73342   8159373.55061
  19793005.2154  -23056484.13647 -17904505.99764
 91  4 22 23 20 14.9960000  0  5G15G 2G13G19G 6
  22706527.6214   -3820395.29345  -2881408.11761
  19857823.871   -20112883.277 8 -15672323.94024
  21201005.512   -10726010.355 6  -5576339.97221
  22763772.137    10508982.906 4   8188790.64321
  19788769.512   -23078737.548 7 -17921846.29624
 91  4 22 23 20 29.9960000  0  5G15G 2G13G19G 6
  22704401.1064   -3831572.98545  -2890117.94461
  19857964.324   -20112145.888 8 -15671749.33424
  21190433.309   -10781558.241 6  -5619623.87121
  22770965.074    10546787.655 5   8218248.75021
  19784549.520   -23100916.268 7 -17939128.39024
 91  4 22 23 20 44.9960000  0  5G15G 2G13G19G 6
  22702297.6134   -3842618.45645  -2898724.74361
  19858112.9964  -20111359.86848 -15671136.84164
  21179880.629   -10837014.833 6  -5662836.63321
  22778171.8874   10584645.97444   8247748.61861
  19780343.5984  -23123019.03647 -17956351.29664
 91  4 22 23 20 59.9960000  0  5G15G 2G13G19G 6
  22700221.895    -3853531.144 5  -2907228.09421
  19858273.0664  -20110524.58948 -15670485.96764
  21169344.7154  -10892379.36346  -5705977.67861
  22785381.8634   10622558.27843   8277290.56561
  19776152.0664  -23145045.04847 -17973514.39564
 91  4 22 23 21 14.9960000  0  5G15G 2G13G19G 6
  22698171.7154   -3864314.07545  -2915630.32061
  19858440.3014  -20109643.45348 -15669799.36364
  21158826.0664  -10947654.72746  -5749049.21861
  22792609.395    10660521.310 4   8306871.99921
  19771974.981   -23166997.340 7 -17990620.04724
 91  4 22 23 21 29.9960000  0  5G15G 2G13G19G 6
  22696145.7854   -3874964.02246  -2923928.92261
  19858619.3404  -20108712.88648 -15669074.23964
  21148324.6214  -11002837.01646  -5792048.24761
  22799847.1524   10698538.43145   8336495.61261
  19767812.3404  -23188872.08047 -18007665.27464
 91  4 22 23 21 44.9960000  0  5G15G 2G13G19G 6
  22694144.3634   -3885484.23845  -2932126.42761
  19858804.2854  -20107736.63348 -15668313.51864
  21137841.4964  -11057929.52646  -5834977.33061
  22807091.301    10736605.803 5   8366158.35121
  19763662.262   -23210672.662 7 -18024652.71523
 91  4 22 23 21 59.9960000  0  5G15G 2G13G19G 6
  22692166.1604   -3895874.30146  -2940222.51761
  19858997.316   -20106714.879 8 -15667517.33524
  21127374.613   -11112931.918 6  -5877836.16221
  22814344.402    10774723.252 4   8395860.11421
  19759529.145   -23232398.779 7 -18041582.13224
 91  4 22 23 22 14.9960000  0  5G15G 2G13G19G 6
  22690217.0044   -3906130.53246  -2948214.34261
  19859202.566   -20105643.738 8 -15666682.66124
  21116925.9264  -11167839.92146  -5920621.47461
  22821605.520    10812894.639 4   8425603.91521
  19755410.363   -23254046.400 7 -18058450.38324
 91  4 22 23 22 29.9960000  0  5G15G 2G13G19G 6
  22688288.1374   -3916254.32846  -2956102.93861
  19859415.0664  -20104524.89848 -15665810.83264
  21106495.0274  -11222654.99946  -5963334.37161
  22828874.8404   10851118.11844   8455388.32361
  19751304.668   -23275617.036 7 -18075258.64524
 91  4 22 23 22 44.9960000  0  5G15G 2G13G19G 6
  22686385.504    -3926243.840 5  -2963886.92721
  19859638.1604  -20103356.54948 -15664900.42764
  21096081.4654  -11277374.98046  -6005973.16461
  22836167.981    10889395.362 4   8485214.63521
  19747214.926   -23297108.465 7 -18092005.19123
 91  4 22 23 22 59.9960000  0  5G15G 2G13G19G 6
  22684505.856    -3936106.182 5  -2971571.82621
  19859866.9964  -20102145.93948 -15663957.09664
  21085684.6374  -11332006.75546  -6048543.22461
  22843456.5664   10927719.00745   8515077.10861
  19743139.207   -23318527.716 7 -18108695.49823
 91  4 22 23 23 14.9960000  0  5G15G 2G13G19G 6
  22682657.6064   -3945833.06845  -2979151.18561
  19860108.1764  -20100885.11648 -15662974.63164
  21075308.6134  -11386542.03846  -6091038.10661
  22850759.2774   10966096.86644   8544981.80561
  19739079.699   -23339866.622 7 -18125323.19023
 91  4 22 23 23 29.9960000  0  5G15G 2G13G19G 6
  22680831.746    -3955428.071 5  -2986627.75621
  19860356.4264  -20099577.67948 -15661955.85064
  21064948.6454  -11440983.79046  -6133460.10661
  22858072.707    11004525.477 4   8574926.02021
  19735032.660   -23361128.234 7 -18141890.66924
 91  4 22 23 23 44.9960000  0  5G15G 2G13G19G 6
  22679030.074    -3964887.361 5  -2993998.57821
  19860613.9494  -20098219.95248 -15660897.86564
  21054605.871   -11495328.065 6  -6175806.14621
  22865396.902    11043008.452 4   8604912.57621
  19731002.848   -23382308.730 7 -18158394.93024
 91  4 22 23 23 59.9960000  0  5G15G 2G13G19G 6
  22677253.6454   -3974216.13545  -3001267.69161
  19860882.7544  -20096817.24048 -15659804.84264
  21044281.965   -11549580.010 6  -6218080.25121
  22872732.4414   11081540.10045   8634937.10861
  19726986.004   -23403413.289 7 -18174840.01824
 91  4 22 23 24 14.9960000  0  5G15G 2G13G19G 6
  22675508.7464   -3983411.07846  -3008432.54461
  19861156.8484  -20095366.58048 -15658674.45864
  21033975.7934  -11603736.26746  -6260279.77561
  22880071.176    11120123.492 5   8665001.98421
  19722985.363   -23424438.528 7 -18191223.30324
 91  4 22 23 24 29.9960000  0  5G15G 2G13G19G 6
  22673783.9734   -3992471.90246  -3015492.84361
  19861442.9024  -20093867.76548 -15657506.54764
  21023689.496   -11657796.034 6  -6302404.12721
  22887421.910    11158758.720 4   8695107.23921
  19719000.215   -23445383.838 7 -18207544.30924
 91  4 22 23 24 44.9960000  0  5G15G 2G13G19G 6
  22672082.9654   -4001400.24645  -3022449.95061
  19861737.6764  -20092322.51848 -15656302.46264
  21013419.801   -11711760.771 6  -6344454.43421
  22894784.8244   11197443.95944   8725251.42661
  19715027.801   -23466250.757 7 -18223804.22624
 91  4 22 23 24 59.9960000  0  5G15G 2G13G19G 6
  22670410.1134   -4010193.94745  -3029302.12561
  19862040.0744  -20090729.07548 -15655060.81964
  21003169.582   -11765628.508 6  -6386429.14421
  22902154.606    11236180.891 4   8755435.89421
  19711073.371   -23487037.151 7 -18240001.39924
 91  4 22 23 25 14.9960000  0  5G15G 2G13G19G 6
  22668766.0354   -4018854.57346  -3036050.61461
  19862353.3404  -20089089.02148 -15653782.84964
  20992935.371   -11819400.396 6  -6428329.18121
  22909536.4884   11274967.87944   8785659.38461
  19707131.9814  -23507744.25847 -18256136.79963
 91  4 22 23 25 29.9960000  0  5G15G 2G13G19G 6
  22667139.418    -4027380.006 5  -3042693.76221
  19862673.6914  -20087400.46748 -15652467.09764
  20982722.9654  -11873074.01046  -6470152.64061
  22916930.918    11313806.452 4   8815923.07121
  19703208.7464  -23528370.09147 -18272208.86564
 91  4 22 23 25 44.9960000  0  5G15G 2G13G19G 6
  22665544.231    -4035768.363 5  -3049230.09021
  19863004.1604  -20085661.89748 -15651112.37164
  20972527.0204  -11926647.64646  -6511898.18961
  22924328.3244   11352698.38544   8846228.35461
  19699297.613   -23548912.606 7 -18288216.00624
 91  4 22 23 25 59.9960000  0  5G15G 2G13G19G 6
  22663972.4494   -4044026.71145  -3055665.11661
  19863342.4414  -20083880.62048 -15649724.36464
  20962350.801   -11980128.150 6  -6553571.16621
  22931740.8484   11391636.30944   8876569.45361
  19695404.449   -23569378.876 7 -18304163.72824
 91  4 22 23 26 14.9960000  0  5G15G 2G13G19G 6
  22662424.957    -4052150.069 5  -3061994.95521
  19863691.2074  -20082051.47048 -15648299.05164
  20952192.402   -12033510.001 6  -6595167.28421
  22939158.9104   11430625.17544   8906950.24561
  19691525.543   -23589763.560 7 -18320047.87824
 91  4 22 23 26 29.9960000  0  5G15G 2G13G19G 6
  22660906.090    -4060134.505 5  -3068216.56621
  19864050.1684  -20080170.73648 -15646833.54464
  20942054.348   -12086789.126 6  -6636683.33821
  22946584.598    11469668.630 4   8937373.57721
  19687661.168   -23610062.487 7 -18335865.21524
 91  4 22 23 26 44.9960000  0  5G15G 2G13G19G 6
  22659412.4964   -4067985.27645  -3074333.98561
  19864415.6994  -20078243.51948 -15645331.81664
  20931934.1994  -12139970.60046  -6678123.32261
  22954026.910    11508761.329 4   8967835.27521
  19683815.676   -23630280.634 7 -18351619.59324
 91  4 22 23 26 59.9960000  0  5G15G 2G13G19G 6
  22657945.598    -4075701.106 5  -3080346.27021
  19864792.0744  -20076268.99448 -15643793.22964
  20921831.645   -12193053.275 6  -6719486.29821
  22961476.816    11547904.145 3   8998336.02321
  19679983.348   -23650416.895 7 -18367310.17224
 91  4 22 23 27 14.9960000  0  5G15G 2G13G19G 6
  22656502.004    -4083280.517 5  -3086252.25521
  19865176.9814  -20074245.83248 -15642216.74464
  20911750.840   -12246035.059 6  -6760770.66621
  22968932.7774   11587098.31643   9028876.78061
  19676168.332   -23670469.668 7 -18382935.69823
 91  4 22 23 27 29.9960000  0  5G15G 2G13G19G 6
  22655083.6064   -4090724.76245  -3092052.88661
  19865570.1604  -20072175.46348 -15640603.46964
  20901686.316   -12298917.124 6  -6801977.34021
  22976399.9344   11626342.36243   9059456.40261
  19672367.176   -23690439.997 7 -18398496.97323
 91  4 22 23 27 44.9960000  0  5G15G 2G13G19G 6
  22653692.5124   -4098032.92445  -3097747.52061
  19865974.7854  -20070056.66548 -15638952.45964
  20891643.121   -12351698.066 6  -6843105.20621
  22983883.4104   11665637.27043   9090075.64161
  19668582.848   -23710326.439 7 -18413992.89223
 91  4 22 23 27 59.9960000  0  5G15G 2G13G19G 6
  22652328.3484   -4105204.28345  -3103335.52461
  19866385.8634  -20067889.38748 -15637263.67264
  20881617.4414  -12404377.34746  -6884153.87161
  22991369.090    11704983.043 4   9120734.55621
  19664813.676   -23730128.451 7 -18429423.00724
 91  4 22 23 28 14.9960000  0  5G15G 2G13G19G 6
  22650988.9344   -4112242.36645  -3108819.70361
  19866807.6764  -20065676.98248 -15635539.72064
  20871613.020   -12456958.154 6  -6925125.78721
  22998864.004    11744376.200 4   9151430.38721
  19661062.285   -23749849.326 7 -18444789.90524
 91  4 22 23 28 29.9960000  0  5G15G 2G13G19G 6
  22649674.863    -4119145.665 5  -3114198.84621
  19867236.3564  -20063418.38048 -15633779.77064
  20861626.098   -12509439.044 6  -6966019.84921
  23006371.0904   11783817.75244   9182163.92561
  19657325.231   -23769487.600 7 -18460092.43924
 91  4 22 23 28 44.9960000  0  5G15G 2G13G19G 6
  22648389.6294   -4125913.84646  -3119472.71061
  19867676.2624  -20061113.30848 -15631983.61564
  20851658.9264  -12561819.47546  -7006835.63661
  23013884.348    11823307.710 4   9212935.14321
  19653602.559   -23789042.908 7 -18475330.32524
 91  4 22 23 28 59.9960000  0  5G15G 2G13G19G 6
  22647126.520    -4132546.724 6  -3124641.14421
  19868123.4574  -20058761.34548 -15630150.91064
  20841708.981   -12614098.517 6  -7047572.41521
  23021411.231    11862846.597 4   9243744.51021
  19649897.387   -23808514.410 7 -18490502.89923
 91  4 22 23 29 14.9960000  0  5G15G 2G13G19G 6
  22645891.777    -4139044.818 6  -3129704.53021
  19868580.4964  -20056363.21048 -15628282.23264
  20831780.973   -12666276.568 6  -7088230.49021
  23028943.7704   11902433.36844   9274591.20261
  19646208.145   -23827902.635 7 -18505610.58823
 91  4 22 23 29 29.9960000  0  5G15G 2G13G19G 6
  22644680.902    -4145411.434 6  -3134665.48221
  19869044.5124  -20053922.60848 -15626380.46564
  20821868.738   -12718356.863 6  -7128812.41021
  23036480.3014   11942064.42644   9305472.40061
  19642533.738   -23847210.844 7 -18520655.92023
 91  4 22 23 29 44.9960000  0  5G15G 2G13G19G 6
  22643492.1214   -4151644.49546  -3139522.37361
  19869518.4024  -20051437.71548 -15624444.18464
  20811978.574   -12770337.398 6  -7169316.57721
  23044031.582    11981741.471 3   9336389.43521
  19638875.707   -23866436.894 7 -18535637.23823
 91  4 22 23 29 59.9960000  0  5G15G 2G13G19G 6
  22642335.566    -4157739.364 6  -3144271.58021
  19869998.9494  -20048903.71148 -15622469.63964
  20802105.3954  -12822213.02346  -7209738.99861
  23051592.207    12021469.232 3   9367345.98121
  19635233.629   -23885575.736 7 -18550550.60223
 91  4 22 23 30 14.9960000  0  5G15G 2G13G19G 6
  22641197.699    -4163701.233 6  -3148917.15221
  19870489.8094  -20046325.72648 -15620460.81264
  20792254.3714  -12873988.50546  -7250083.39761
  23059160.6294   12061242.46943   9398337.93461
  19631607.793   -23904632.189 7 -18565399.76323
 91  4 22 23 30 29.9960000  0  5G15G 2G13G19G 6
  22640091.254    -4169523.530 6  -3153453.97321
  19870989.6454  -20043697.78748 -15618413.05964
  20782421.199   -12925657.337 6  -7290344.68821
  23066736.754    12101067.052 3   9429369.92821
  19627997.957   -23923600.009 7 -18580179.86223
 91  4 22 23 30 44.9960000  0  5G15G 2G13G19G 6
  22639007.106    -4175207.211 5  -3157882.77721
  19871499.3874  -20041020.74848 -15616327.05164
  20772609.590   -12977220.142 7  -7330523.35121
  23074328.1134   12140941.99944   9460441.15061
  19624405.629   -23942479.890 7 -18594891.43523
 91  4 22 23 30 59.9960000  0  5G15G 2G13G19G 6
  22637952.8324   -4180755.75345  -3162206.28761
  19872017.4264  -20038298.26348 -15614205.62964
  20762816.8324  -13028680.42046  -7370622.15561
  23081924.027    12180863.383 4   9491548.56521
  19620828.707   -23961275.105 7 -18609537.03524
 91  4 22 23 31 14.9960000  0  5G15G 2G13G19G 6
  22636922.3324   -4186172.65645  -3166427.21661
  19872543.4654  -20035534.01148 -15612051.66064
  20753043.184   -13080041.380 7  -7410643.53521
  23089534.285    12220827.609 4   9522689.35421
  19617267.176   -23979989.094 7 -18624119.34624
 91  4 22 23 31 29.9960000  0  5G15G 2G13G19G 6
  22635917.473    -4191450.170 6  -3170539.52521
  19873079.1684  -20032720.26548 -15609859.12664
  20743289.215   -13131295.228 6  -7450581.47521
  23097146.176    12260842.117 4   9553869.34821
  19613723.270   -23998613.762 7 -18638632.05224
 91  4 22 23 31 44.9960000  0  5G15G 2G13G19G 6
  22634938.731    -4196592.884 6  -3174546.81421
  19873623.1294  -20029861.60248 -15607631.59564
  20733556.434   -13182446.082 7  -7490439.14921
  23104771.207    12300902.374 4   9585084.98421
  19610194.395   -24017153.504 7 -18653078.57824
 91  4 22 23 31 59.9960000  0  5G15G 2G13G19G 6
  22633987.0274   -4201603.41746  -3178451.09561
  19874175.3244  -20026960.95848 -15605371.34664
  20723841.0204  -13233496.26947  -7530218.39961
  23112402.4814   12341005.43344   9616333.96561
  19606681.895   -24035610.856 7 -18667460.90624
 91  4 22 23 32 14.9960000  0  5G15G 2G13G19G 6
  22633058.801    -4206480.388 5  -3182251.30721
  19874736.3094  -20024016.97648 -15603077.33364
  20714145.7854  -13284444.14347  -7569917.90061
  23120040.277    12381152.433 3   9647617.17721
  19603185.738   -24053984.080 7 -18681777.68024
 91  4 22 23 32 29.9960000  0  5G15G 2G13G19G 6
  22632157.574    -4211218.302 5  -3185943.16921
  19875304.8404  -20021024.26048 -15600745.34264
  20704471.418   -13335284.327 7  -7609533.49621
  23127690.309    12421348.542 4   9678938.65121
  19599707.223   -24072267.805 7 -18696024.71923
 91  4 22 23 32 44.9960000  0  5G15G 2G13G19G 6
  22631280.8634   -4215819.91245  -3189528.81661
  19875883.1064  -20017985.85348 -15598377.74564
  20694816.723   -13386019.333 7  -7649067.14121
  23135347.871    12461590.738 3   9710296.06621
  19596244.965   -24090464.625 7 -18710204.03824
 91  4 22 23 32 59.9960000  0  5G15G 2G13G19G 6
  22630429.824    -4220285.590 5  -3193008.54621
  19876470.4814  -20014901.96048 -15595974.70564
  20685182.387   -13436648.861 7  -7688518.59221
  23143007.1604   12501878.63643   9741689.09161
  19592798.832   -24108574.446 7 -18724315.57024
 91  4 22 23 33 14.9960000  0  5G15G 2G13G19G 6
  22629603.2384   -4224614.28145  -3196381.53161
  19877066.7934  -20011771.64048 -15593535.48564
  20675567.809   -13487171.906 7  -7727887.06121
  23150686.074    12542212.975 3   9773118.27621
  19589367.527   -24126596.147 7 -18738358.43724
 91  4 22 23 33 29.9960000  0  5G15G 2G13G19G 6
  22628808.0904   -4228805.31545  -3199647.23861
  19877670.0594  -20008594.50348 -15591059.78564
  20665974.1604  -13537587.74147  -7767172.01161
  23158368.6524   12582594.04343   9804583.89661
  19585955.973   -24144528.999 7 -18752332.07024
 91  4 22 23 33 44.9960000  0  5G15G 2G13G19G 6
  22628037.9734   -4232861.12845  -3202807.59661
  19878282.2544  -20005373.10448 -15588549.60564
  20656400.512   -13587898.488 7  -7806375.06621
  23166061.8404   12623019.36543   9836083.95661
  19582559.863   -24162375.241 7 -18766238.21024
 91  4 22 23 33 59.9960000  0  5G15G 2G13G19G 6
  22627294.981    -4236777.881 5  -3205859.58421
  19878905.9884  -20002103.33848 -15586001.73064
  20646847.6524  -13638100.00447  -7845493.00361
  23173768.6064   12663492.79343   9867621.54861
  19579180.191   -24180130.588 7 -18780073.52824
 91  4 22 23 34 14.9960000  0  5G15G 2G13G19G 6
  22626571.684    -4240555.833 5  -3208803.42921
  19879536.6844  -19998785.78648 -15583416.61964
  20637315.199   -13688192.218 7  -7884525.77021
  23181480.129    12704013.804 3   9899196.20421
  19575820.402   -24197795.265 7 -18793838.19524
 91  4 22 23 34 29.9960000  0  5G15G 2G13G19G 6
  22625880.613    -4244191.949 5  -3211636.74521
  19880176.7384  -19995417.56748 -15580792.02664
  20627804.5824  -13738172.08647  -7923471.00061
  23189203.7774   12744584.92343   9930809.89761
  19572476.863   -24215366.120 7 -18807529.75724
 91  4 22 23 34 44.9960000  0  5G15G 2G13G19G 6
  22625212.426    -4247690.304 5  -3214362.72621
  19880827.3874  -19992002.90648 -15578131.24864
  20618313.449   -13788043.538 7  -7962331.74521
  23196930.395    12785201.929 3   9962459.34021
  19569149.926   -24232847.174 7 -18821151.34024
 91  4 22 23 34 59.9960000  0  5G15G 2G13G19G 6
  22624577.027    -4251053.812 5  -3216983.62021
  19881485.3714  -19988544.76648 -15575436.58564
  20608842.4264  -13837809.24347  -8001110.08761
  23204666.8954   12825861.54743   9994142.00761
  19565839.512   -24250241.137 7 -18834705.06724
 91  4 22 23 35 14.9960000  0  5G15G 2G13G19G 6
  22623963.1764   -4254281.33645  -3219498.55161
  19882152.1454  -19985041.96948 -15572707.12864
  20599393.8014  -13887467.64747  -8039804.82461
  23212414.410    12866565.073 4  10025858.87921
  19562545.8094  -24267546.54447 -18848189.78464
 91  4 22 23 35 29.9960000  0  5G15G 2G13G19G 6
  22623370.5204   -4257377.56146  -3221911.16861
  19882826.3244  -19981499.30048 -15569946.60664
  20589964.3564  -13937023.29247  -8078419.50061
  23220164.082    12907307.668 3  10057606.18521
  19559268.832   -24284767.829 7 -18861608.94824
 91  4 22 23 35 44.9960000  0  5G15G 2G13G19G 6
  22622808.4814   -4260335.55946  -3224216.06361
  19883508.6374  -19977909.98848 -15567149.73464
  20580553.5354  -13986469.06047  -8116948.53461
  23227929.2384   12948095.98343  10089389.12461
  19556009.020   -24301897.865 7 -18874957.00924
 91  4 22 23 35 59.9960000  0  5G15G 2G13G19G 6
  22622273.7464   -4263155.10645  -3226413.08461
  19884200.8014  -19974273.97748 -15564316.47464
  20571165.785   -14035804.685 7  -8155391.77121
  23235698.074    12988929.747 3  10121207.47421
  19552767.035   -24318936.389 7 -18888233.76524
 91  4 22 23 36 14.9960000  0  4G15G 2G13G 6
  22621762.6844   -4265839.19346  -3228504.55761
  19884900.1214  -19970594.18548 -15561449.09664
  20561798.1454  -14085032.69547  -8193751.13761
  19549541.910   -24335886.113 7 -18901441.32423
 91  4 22 23 36 29.9960000  0  4G15G 2G13G 6
  22621278.090    -4268389.780 6  -3230491.99521
  19885609.3324  -19966872.54648 -15558549.11464
  20552450.449   -14134154.504 7  -8232027.75421
  19546333.129   -24352748.705 7 -18914580.99423
 91  4 22 23 36 44.9960000  0  4G15G 2G13G 6
  22620816.6374   -4270799.16345  -3232369.40761
  19886326.5594  -19963101.69048 -15555610.78264
  20543123.0354  -14183162.57947  -8270215.74661
  19543142.832   -24369516.414 7 -18927646.73123
 91  4 22 23 36 59.9960000  0  4G15G 2G13G 6
  22620386.965    -4273071.360 5  -3234139.92821
  19887052.6764  -19959285.61848 -15552637.22464
  20533819.1294  -14232060.62447  -8308317.99461
  19539969.3014  -24386193.07147 -18940641.51863
 91  4 22 23 37 14.9960000  0  4G15G 2G13G 6
  22619981.488    -4275207.080 6  -3235804.09821
  19887787.1064  -19955425.14948 -15549629.06264
  20524534.3954  -14280849.20247  -8346334.95161
  19536811.981   -24402779.243 7 -18953565.79523
 91  4 22 23 37 29.9960000  0  4G15G 2G13G 6
  22619601.590    -4277202.920 6  -3237359.28121
  19888531.3244  -19951516.91748 -15546583.68364
  20515271.3714  -14329524.57947  -8384263.70561
  19533672.457   -24419271.198 7 -18966416.65623
 91  4 22 23 37 44.9960000  0  4G15G 2G13G 6
  22619243.7774   -4279058.47245  -3238805.13761
  19889283.9654  -19947560.58048 -15543500.82564
  20506030.3484  -14378086.03147  -8422103.67061
  19530553.887   -24435668.257 7 -18979193.56323
 91  4 22 23 37 59.9960000  0  4G15G 2G13G 6
  22618919.004    -4280775.405 6  -3240142.99021
  19890045.0204  -19943557.74348 -15540381.72564
  20496810.715   -14426534.792 7  -8459855.84521
  19527452.027   -24451971.818 7 -18991897.62624
 91  4 22 23 38 14.9960000  0  4G15G 2G13G 6
  22618619.4104   -4282357.36145  -3241375.65561
  19890815.2464  -19939512.04748 -15537229.23564
  20487612.9104  -14474874.52247  -8497523.04661
  19524366.074   -24468185.342 7 -19004531.52124
 91  4 22 23 38 29.9960000  0  4G15G 2G13G 6
  22618341.1994   -4283800.84645  -3242500.41461
  19891595.0744  -19935420.10348 -15534040.70064
  20478434.207   -14523101.683 6  -8535102.54621
  19521297.738   -24484305.155 7 -19017092.39723
 91  4 22 23 38 44.9960000  0  4G15G 2G13G 6
  22618095.965    -4285105.028 5  -3243516.64421
  19892382.5594  -19931281.27548 -15530815.63764
  20469278.3094  -14571215.18847  -8572593.46361
  19518247.926   -24500330.392 7 -19029579.57924
 91  4 22 23 38 59.9960000  0  4G15G 2G13G 6
  22617871.715    -4286269.525 5  -3244424.01721
  19893179.3874  -19927095.15948 -15527553.72664
  20460143.7154  -14619214.21346  -8609995.19061
  19515217.152   -24516260.429 7 -19041992.57624
 91  4 22 23 39 14.9960000  0  4G15G 2G13G 6
  22617679.668    -4287293.847 5  -3245222.17521
  19893984.6844  -19922861.84148 -15524255.03464
  20451032.9884  -14667098.43147  -8647307.45161
  19512203.488   -24532094.860 7 -19054331.07323
 91  4 22 23 39 29.9960000  0  4G15G 2G13G 6
  22617507.9024   -4288182.50345  -3245914.62561
  19894799.4414  -19918585.26248 -15520922.63064
  20441942.0354  -14714871.84746  -8684533.37861
  19509207.684   -24547837.466 7 -19066598.02323
 91  4 22 23 39 44.9960000  0  4G15G 2G13G 6
  22617364.832    -4288932.666 5  -3246499.13921
  19895621.3094  -19914262.74548 -15517554.43464
  20432870.9184  -14762531.32446  -8721670.52661
  19506230.176   -24563485.450 7 -19078791.25023
 91  4 22 23 39 59.9960000  0  4G15G 2G13G 6
  22617249.9264   -4289549.99245  -3246980.16461
  19896450.8484  -19909899.92848 -15514154.83064
  20423823.6684  -14810082.34747  -8758723.14761
  19503269.168   -24579044.184 7 -19090914.92123
 91  4 22 23 40 14.9960000  0  4G15G 2G13G 6
  22617159.0984   -4290026.44745  -3247351.41961
  19897290.0904  -19905488.67548 -15510717.48364
  20414797.387   -14857516.393 7  -8795684.64021
  19500327.199   -24594505.284 7 -19102962.51524
 91  4 22 23 40 29.9960000  0  4G15G 2G13G 6
  22617091.293    -4290369.863 5  -3247619.00321
  19898137.1684  -19901037.05648 -15507248.68764
  20405790.457   -14904841.403 7  -8832561.15321
  19497401.973   -24609876.372 7 -19114939.96123
 91  4 22 23 40 44.9960000  0  4G15G 2G13G 6
  22617054.035    -4290576.588 5
  19898992.5594  -19896541.54948 -15503745.69064
  20396807.238   -14952053.274 7  -8869349.51321
  19494496.496   -24625153.611 7 -19126844.29023
 91  4 22 23 40 59.9960000  0  4G15G 2G13G 6
  22617039.1214   -4290646.92245
  19899856.4964  -19892002.67848 -15500208.90764
  20387845.168   -14999152.158 7  -8906049.82421
  19491606.363   -24640337.194 7 -19138675.63024
 91  4 22 23 41 14.9960000  0  4G15G 2G13G 6
  22617055.0354   -4290576.63645
  19900729.9654  -19887416.08548 -15496634.93464
  20378904.1764  -15046133.53147  -8942658.57261
  19488735.824   -24655422.707 7 -19150430.56123
 91  4 22 23 41 29.9960000  0  4G15G 2G13G 6
  22617095.7854   -4290361.72545
  19901611.9414  -19882777.59448 -15493020.52564
  20369987.270   -15092992.953 7  -8979172.29521
  19485883.707   -24670405.747 7 -19162105.63923
 91  4 22 23 41 44.9960000  0  4G15G 2G13G 6
  22617162.371    -4290009.213 5
  19902502.9184  -19878094.75048 -15489371.54964
  20361091.715   -15139737.625 7  -9015596.61621
  19483052.402   -24685293.580 7 -19173706.53123
 91  4 22 23 41 59.9960000  0  4G15G 2G13G 6
  22617256.879    -4289516.549 6  -3246953.96721
  19903402.7934  -19873364.82148 -15485685.88964
  20352218.645   -15186364.595 7  -9051929.20421
  19480237.520   -24700083.031 7 -19185230.76424
 91  4 22 23 42 14.9960000  0  4G15G 2G13G 6
  22617374.590    -4288887.431 5  -3246463.72421
  19904312.0824  -19868591.61048 -15481966.50764
  20343365.981   -15232877.238 6  -9088172.71821
  19477440.168   -24714777.739 7 -19196681.16823
 91  4 22 23 42 29.9960000  0  4G15G 2G13G 6
  22617523.8634   -4288117.40345  -3245863.68561
  19905228.7314  -19863770.46748 -15478209.77864
  20334539.074   -15279270.969 7  -9124323.56721
  19474664.535   -24729372.773 7 -19208053.90423
 91  4 22 23 42 44.9960000  0  4G15G 2G13G 6
  22617696.3484   -4287204.17646  -3245152.06161
  19906156.3874  -19858899.42848 -15474414.16164
  20325733.613   -15325543.432 7  -9160379.92721
  19471905.863   -24743866.072 7 -19219347.37023
 91  4 22 23 42 59.9960000  0  4G15G 2G13G 6
  22617901.504    -4286145.649 6  -3244327.21721
  19907091.6914  -19853976.11848 -15470577.81264
  20316950.746   -15371692.218 7  -9196339.90821
  19469167.660   -24758254.945 7 -19230559.46323
 91  4 22 23 43 14.9960000  0  4G15G 2G13G 6
  22618122.1764   -4284951.07645  -3243396.35561
  19908038.8164  -19849009.77048 -15466707.93364
  20308192.699   -15417726.205 7  -9232210.44821
  19466446.988   -24772548.335 7 -19241697.15623
 91  4 22 23 43 29.9960000  0  4G15G 2G13G 6
  22618374.7314   -4283621.22445  -3242360.09861
  19908990.2234  -19844001.23648 -15462805.17564
  20299452.613   -15463645.795 7  -9267991.83721
  19463746.9104  -24786746.81847 -19252760.89663
 91  4 22 23 43 44.9960000  0  4G15G 2G13G 6
  22618657.566    -4282155.029 5  -3241217.57721
  19909952.1844  -19838949.76148 -15458868.96264
  20290737.4104  -15509449.70047  -9303683.09161
  19461060.465   -24800849.435 7 -19263749.93723
 91  4 22 23 43 59.9960000  0  4G15G 2G13G 6
  22618958.637    -4280548.923 5  -3239966.06221
  19910922.3874  -19833851.70248 -15454896.45464
  20282043.356   -15555134.218 7  -9339281.31421
  19458398.238   -24814852.161 7 -19274661.13523
 91  4 22 23 44 14.9960000  0  4G15G 2G13G 6
  22619294.0204   -4278806.19645  -3238608.07061
  19911901.1214  -19828710.05748 -15450889.97764
  20273372.051   -15600702.375 7  -9374788.85921
  19455750.231   -24828757.861 7 -19285496.73423
 91  4 22 23 44 29.9960000  0  4G15G 2G13G 6
  22619654.731    -4276920.089 5  -3237138.35221
  19912889.1844  -19823518.32148 -15446844.47564
  20264723.754   -15646147.293 7  -9410200.39121
  19453124.004   -24842559.766 7 -19296251.44923
 91  4 22 23 44 44.9960000  0  4G15G 2G13G 6
  22620038.8404   -4274892.18345  -3235558.17361
  19913885.3404  -19818278.05048 -15442761.15964
  20256100.1454  -15691470.31547  -9445516.92361
  19450518.387   -24856259.197 7 -19306926.31323
 91  4 22 23 44 59.9960000  0  4G15G 2G13G 6
  22620449.059    -4272730.597 5  -3233873.79521
  19914889.5664  -19812997.28348 -15438646.27464
  20247495.785   -15736678.845 7  -9480744.24721
  19447929.770   -24869863.900 7 -19317527.36823
 91  4 22 23 45 14.9960000  0  4G15G 2G13G 6
  22620887.934    -4270433.191 5  -3232083.60121
  19915904.0824  -19807674.21248 -15434498.42164
  20238914.4494  -15781771.07947  -9515880.95061
  19445358.4734  -24883371.80847 -19328053.00263
 91  4 22 23 45 29.9960000  0  4G15G 2G13G 6
  22621350.6064   -4267996.14445  -3230184.59861
  19916926.2234  -19802304.74348 -15430314.42964
  20230358.410   -15826742.861 7  -9550923.79521
  19442807.285   -24896778.761 7 -19338499.96623
 91  4 22 23 45 44.9960000  0  4G15G 2G13G 6
  22621836.543    -4265426.375 5  -3228182.16121
  19917954.176   -19796895.919 8 -15426099.77524
  20221821.332   -15871600.914 7  -9585878.02721
  19440273.973   -24910091.354 7 -19348873.40623
 91  4 22 23 45 59.9960000  0  4G15G 2G13G 6
  22622351.7704   -4262715.48645  -3226069.78361
  19918993.3244  -19791439.40248 -15421847.95264
  20213308.8954  -15916336.51047  -9620736.83061
  19437760.5824  -24923301.03147 -19359166.65163
 91  4 22 23 46 14.9960000  0  4G15G 2G13G 6
  22622899.0664   -4259863.79545  -3223847.66661
  19920039.0824  -19785935.21648 -15417558.97764
  20204819.1214  -15960949.45147  -9655500.07061
  19435266.348   -24936407.786 7 -19369379.69123
 91  4 22 23 46 29.9960000  0  4G15G 2G13G 6
  22623465.887    -4256875.338 5  -3221518.98721
  19921096.2704  -19780387.56748 -15413236.14764
  20196351.0824  -16005443.56047  -9690170.70661
  19432790.402   -24949415.368 7 -19379515.45224
 91  4 22 23 46 44.9960000  0  4G15G 2G13G 6
  22624059.270    -4253747.513 5  -3219081.71521
  19922161.1064  -19774794.00848 -15408877.53664
  20187908.332   -16049815.915 7  -9724746.46821
  19430335.582   -24962320.895 7 -19389571.69724
 91  4 22 23 46 59.9960000  0  4G15G 2G13G 6
  22624686.676    -4250483.214 5  -3216538.07721
  19923232.8714  -19769157.27448 -15404485.28464
  20179485.2774  -16094069.15847  -9759229.41861
  19427899.012   -24975127.057 7 -19399550.51023
 91  4 22 23 47 14.9960000  0  4G15G 2G13G 6
  22625327.3874   -4247078.60745  -3213885.13761
  19924314.9814  -19763473.55248 -15400056.41764
  20171088.6764  -16138199.60247  -9793616.67761
  19425481.145   -24987829.834 7 -19409448.76523
 91  4 22 23 47 29.9960000  0  4G15G 2G13G 6
  22626006.9414   -4243538.22445  -3211126.38561
  19925404.3404  -19757747.28848 -15395594.40364
  20162712.754   -16182211.456 7  -9827911.52521
  19423082.285   -25000433.455 7 -19419269.75623
 91  4 22 23 47 44.9960000  0  4G15G 2G13G 6
  22626705.840    -4239859.433 5  -3208259.80221
  19926502.2384  -19751976.01848 -15391097.31964
  20154361.6454  -16226101.83347  -9862111.72961
  19420702.941   -25012935.110 7 -19429011.29023
 91  4 22 23 47 59.9960000  0  4G15G 2G13G 6
  22627427.1914   -4236040.32945  -3205283.85161
  19927610.1914  -19746157.72248 -15386563.58664
  20146032.8794  -16269868.13247  -9896215.23661
  19418343.746   -25025332.599 7 -19438671.65823
 91  4 22 23 48 14.9960000  0  4G15G 2G13G 6
  22628184.0044   -4232077.29545  -3202195.76561
  19928726.5514  -19740288.77948 -15381990.38564
  20137728.5744  -16313506.89247  -9930219.37661
  19416005.2774  -25037622.13447 -19448247.90963
 91  4 22 23 48 29.9960000  0  4G15G 2G13G 6
  22628969.793    -4227974.072 5  -3198998.43421
  19929852.3954  -19734372.85748 -15377380.58464
  20129448.543   -16357021.385 7  -9964126.67021
  19413687.121   -25049807.102 7 -19457742.68023
 91  4 22 23 48 44.9960000  0  4G15G 2G13G 6
  22629778.5744   -4223727.67545  -3195689.52961
  19930987.2544  -19728407.16848 -15372732.00264
  20121192.5354  -16400408.65747  -9997934.83961
  19411388.8404  -25061884.36047 -19467153.52063
 91  4 22 23 48 59.9960000  0  4G15G 2G13G 6
  22630612.543    -4219342.835 5  -3192272.73121
  19932132.1214  -19722396.17148 -15368048.10864
  20112959.1684  -16443673.09247 -10031647.28661
  19409109.316   -25073858.320 7 -19476483.86823
 91  4 22 23 49 14.9960000  0  4G15G 2G13G 6
  22631472.7704   -4214817.09045  -3188746.18461
  19933284.1134  -19716337.43648 -15363327.01864
  20104749.6524  -16486811.82347 -10065261.79261
  19406852.481   -25085726.348 7 -19485731.67023
 91  4 22 23 49 29.9960000  0  4G15G 2G13G 6
  22632359.340    -4210156.003 5  -3185114.15621
  19934445.2624  -19710236.53948 -15358573.06964
  20096562.1134  -16529830.10547 -10098782.43861
  19404612.7154  -25097493.55147 -19494900.90663
 91  4 22 23 49 44.9960000  0  4G15G 2G13G 6
  22633272.152    -4205357.381 5  -3181374.95221
  19935615.6994  -19704091.25148 -15353784.53764
  20088400.6684  -16572725.67747 -10132207.46561
  19402392.793   -25109157.527 7 -19503989.70223
 91  4 22 23 49 59.9960000  0  4G15G 2G13G 6
  22634211.8094   -4200416.47745  -3177524.89361
  19936793.9654  -19697897.05348 -15348957.90564
  20080261.5204  -16615493.67547 -10165533.08161
  19400194.098   -25120713.516 7 -19512994.35523
 91  4 22 23 50 14.9960000  0  4G15G 2G13G 6
  22635172.152    -4195337.160 5  -3173566.97021
  19937981.1604  -19691657.59748 -15344095.99964
  20072148.2234  -16658137.51247 -10198761.95161
  19398013.387   -25132164.867 7 -19521917.47123
 91  4 22 23 50 29.9960000  0  4G15G 2G13G 6
  22636167.949    -4190116.372 5  -3169498.81721
  19939177.8244  -19685369.71548 -15339196.35264
  20064056.8794  -16700653.86047 -10231891.47661
  19395855.012   -25143508.227 7 -19530756.44023
 91  4 22 23 50 44.9960000  0  4G15G 2G13G 6
  22637192.231    -4184755.131 5  -3165321.20521
  19940382.4964  -19679034.45048 -15334259.77864
  20055989.426   -16743043.768 7 -10264922.48421
  19393717.6214  -25154744.50347 -19539511.96963
 91  4 22 23 50 59.9960000  0  4G15G 2G13G 6
  22638236.582    -4179256.143 5  -3161036.26621
  19941597.6454  -19672654.43448 -15329288.33664
  20047947.1604  -16785309.41047 -10297856.65861
  19391598.7774  -25165876.18247 -19548185.99763
 91  4 22 23 51 14.9960000  0  4G15G 2G13G 6
  22639311.379    -4173616.998 5  -3156642.10221
  19942819.5744  -19666227.52748 -15324280.35864
  20039928.0124  -16827448.40347 -10330692.14861
  19389502.7234  -25176900.84047 -19556776.62663
 91  4 22 23 51 29.9960000  0  4G15G 2G13G 6
  22640406.8484   -4167840.00545  -3152140.55061
  19944051.6684  -19659755.71048 -15319237.38264
  20031933.3794  -16869462.43247 -10363430.26561
  19387423.4494  -25187820.15847 -19565285.17763
 91  4 22 23 51 44.9960000  0  4G15G 2G13G 6
  22641533.6914   -4161919.84045  -3147527.42661
  19945294.0904  -19653233.45848 -15314155.11764
  20023963.2704  -16911346.02847 -10396066.73761
  19385365.9734  -25198628.39647 -19573707.17363
 91  4 22 23 51 59.9960000  0  4G15G 2G13G 6
  22642692.535    -4155855.083 5  -3142801.61521
  19946544.3794  -19646659.68148 -15309032.70164
  20016016.293   -16953097.507 7 -10428600.27621
  19383330.832   -25209324.003 7 -19582041.40123
 91  4 22 23 52 14.9960000  0  4G15G 2G13G 6
  22643868.9654   -4149659.96445  -3137974.21661
  19947801.8164  -19640048.53248 -15303881.15564
  20008095.4964  -16994731.17947 -10461042.00761
  19381314.559   -25219921.197 7 -19590298.93823
 91  4 22 23 52 29.9960000  0  4G15G 2G13G 6
  22645071.926    -4143330.436 5  -3133042.10621
  19949067.6684  -19633395.79148 -15298697.19764
  20000195.1684  -17036242.31447 -10493388.25362
  19379318.785   -25230415.499 7 -19598476.30323
 91  4 22 23 52 44.9960000  0  4G15G 2G13G 6
  22646304.496    -4136864.437 5  -3128003.64821
  19950342.5354  -19626699.13348 -15293479.01964
  19992319.988   -17077628.428 7 -10525637.08421
  19377341.8954  -25240804.25747 -19606571.42863
 91  4 22 23 52 59.9960000  0  4G15G 2G13G 6
  22647563.027    -4130256.397 5
  19951626.3404  -19619952.99648
  19984470.1764  -17118883.94547 -10557784.14962
  19375386.0904  -25251081.91847 -19614579.98963
 91  4 22 23 53 14.9960000  0  4G15G 2G13G 6
  22648848.6604   -4123510.95246
  19952918.3484  -19613162.23348
  19976642.168   -17160013.270 7 -10589832.89222
  19373450.637   -25261252.901 7 -19622505.41523
 91  4 22 23 53 29.9960000  0  4G15G 2G13G 6
  22650158.7314   -4116625.02045
  19954218.9964  -19606323.74948
  19968841.512   -17201013.210 7 -10621780.80721
  19371536.1844  -25271313.87947 -19630345.14463
 91  4 22 23 53 44.9960000  0  4G15G 2G13G 6
  22651490.9814   -4109597.99745  -3106757.00261
  19955530.1764  -19599436.81848 -15272235.66064
  19961063.5204  -17241882.86747 -10653627.21362
  19369643.4264  -25281264.04947 -19638098.51363
 91  4 22 23 53 59.9960000  0  4G15G 2G13G 6
  22652851.613    -4102434.251 5  -3101174.86021
  19956848.8794  -19592505.71048 -15266834.79864
  19953310.207   -17282626.409 7 -10685375.34721
  19367768.8874  -25291107.30147 -19645768.57463
 91  4 22 23 54 14.9960000  0  4G15G 2G13G 6
  22654242.895    -4095131.444 5  -3095484.34021
  19958177.2774  -19585527.92548 -15261397.55864
  19945581.6374  -17323241.00647 -10717023.00161
  19365915.5124  -25300840.97347 -19653353.24963
 91  4 22 23 54 29.9960000  0  4G15G 2G13G 6
  22655665.7774   -4087691.06345  -3089686.63061
  19959514.1374  -19578505.03948 -15255925.17664
  19937875.746   -17363728.192 7 -10748571.37521
  19364083.6134  -25310466.58147 -19660853.71363
 91  4 22 23 54 44.9960000  0  4G15G 2G13G 6
  22657101.434    -4080116.662 5  -3083784.47221
  19960858.7934  -19571440.59448 -15250420.41464
  19930195.301   -17404090.932 7 -10780022.78621
  19362272.4024  -25319987.21447 -19668272.37663
 91  4 22 23 54 59.9960000  0  4G15G 2G13G 6
  22658567.3324   -4072404.29545  -3077774.82361
  19962210.2704  -19564330.50948 -15244880.08464
  19922539.223   -17444325.087 7 -10811373.99221
  19360483.2854  -25329398.54847 -19675605.87363
 91  4 22 23 55 14.9960000  0  4G15G 2G13G 6
  22660064.691    -4064555.029 5  -3071658.48521
  19963572.1294  -19557175.92148 -15239305.08564
  19914906.504   -17484431.759 7 -10842625.86722
  19358711.4734  -25338701.69847 -19682855.07263
 91  4 22 23 55 29.9960000  0  4G15G 2G13G 6
  22661582.4814   -4056567.53345  -3065434.47261
  19964942.7234  -19549975.31148 -15233694.21764
  19907300.285   -17524409.110 7 -10873776.96921
  19356963.0664  -25347894.86047 -19690018.56963
 91  4 22 23 55 44.9960000  0  4G15G 2G13G 6
  22663130.590    -4048442.941 5  -3059103.59821
  19966320.8094  -19542729.73548 -15228048.31364
  19899717.441   -17564258.049 7 -10904828.01122
  19355234.6604  -25356978.88447 -19697097.02563
 91  4 22 23 55 59.9960000  0  4G15G 2G13G 6
  22664703.293    -4040179.411 5  -3052664.46521
  19967709.0434  -19535437.10948 -15222365.74964
  19892157.949   -17603976.370 7 -10935777.27522
  19353526.2544  -25365951.62947 -19704088.77363
 91  4 22 23 56 14.9960000  0  4G15G 2G13G 6
  22666297.426    -4031778.530 5  -3046118.32521
  19969104.7774  -19528098.98848 -15216647.73864
  19884626.402   -17643565.298 7 -10966625.70922
  19351840.0354  -25374814.35647 -19710994.79063
 91  4 22 23 56 29.9960000  0  4G15G 2G13G 6
  22667926.2074   -4023241.49245  -3039466.07061
  19970509.8954  -19520716.42848 -15210895.09364
  19877115.449   -17683025.777 7 -10997374.05622
  19350173.9814  -25383567.83747 -19717815.68363
 91  4 22 23 56 44.9960000  0  4G15G 2G13G 6
  22669578.8404   -4014568.25745  -3032707.67861
  19971923.4414  -19513289.59748 -15205107.95664
  19869631.1134  -17722357.76847 -11028022.29062
  19348528.9654  -25392211.99847 -19724551.39163
 91  4 22 23 56 59.9960000  0  4G15G 2G13G 6
  22671257.7704   -4005757.07845  -3025841.79561
  19973345.1914  -19505816.66948 -15199284.89864
  19862172.309   -17761559.239 7 -11058568.80222
  19346904.7854  -25400744.72747 -19731200.26563
 91  4 22 23 57 14.9960000  0  4G15G 2G13G 6
  22672956.371    -3996813.450 5  -3018872.71221
  19974775.1524  -19498303.02448 -15193430.11164
  19854734.535   -17800635.516 7 -11089017.78222
  19345302.7074  -25409171.31547 -19737766.43563
 91  4 22 23 57 29.9960000  0  4G15G 2G13G 6
  22674684.3874   -3987730.98245  -3011795.46361
  19976213.1994  -19490742.12148 -15187538.49764
  19847324.973   -17839579.843 7 -11119363.92822
  19343720.5204  -25417485.00247 -19744244.62963
 91  4 22 23 57 44.9960000  0  4G15G 2G13G 6
  22676441.6764   -3978507.04745  -3004607.96261
  19977662.2704  -19483131.18948 -15181607.90764
  19839938.543   -17878389.362 7 -11149605.03522
  19342160.1914  -25425682.87547 -19750632.58163
 91  4 22 23 57 59.9960000  0  4G15G 2G13G 6
  22678221.9734   -3969146.98645  -2997314.39961
  19979119.5514  -19475475.64048 -15175642.54564
  19832577.738   -17917069.149 7 -11179745.05922
  19340620.4964  -25433770.07747 -19756934.29463
 91  4 22 23 58 14.9960000  0  4G15G 2G13G 6
  22680025.918    -3959652.096 5  -2989915.75621
  19980585.2234  -19467776.55448 -15169643.26064
  19825242.2774  -17955620.14847 -11209784.70862
  19339103.2074  -25441747.56547 -19763150.51563
 91  4 22 23 58 29.9960000  0  4G15G 2G13G 6
  22681856.1764   -3950022.05945  -2982411.80061
  19982057.6844  -19460033.71048 -15163609.88164
  19817929.957   -17994041.883 7 -11239723.64722
  19337605.6214  -25449614.80247 -19769280.82463
 91  4 22 23 58 44.9960000  0  4G15G 2G13G 6
  22683716.6844   -3940252.95445  -2974799.50161
  19983539.7154  -19452242.95148 -15157539.16964
  19810645.152   -18032330.251 7 -11269558.66622
  19336129.8164  -25457367.44247 -19775321.83863
 91  4 22 23 58 59.9960000  0  4G15G 2G13G 6
  22685603.5744   -3930343.58245  -2967077.88861
  19985031.8094  -19444403.08948 -15151430.19164
  19803384.856   -18070483.825 7 -11299288.63922
  19334676.6374  -25465004.17347 -19781272.52963
 91  4 22 23 59 14.9960000  0  4G15G 2G13G 6
  22687512.051    -3920302.972 5  -2959254.02121
  19986532.0124  -19436522.79748 -15145289.71064
  19796146.020   -18108510.917 7 -11328920.07422
  19333244.527   -25472533.564 7 -19787139.58023
 91  4 22 23 59 29.9960000  0  4G15G 2G13G 6
  22689454.2624   -3910126.40045  -2951324.21661
  19988038.5904  -19428597.50648 -15139114.16564
  19788935.543   -18146406.736 7 -11358449.20322
  19331833.434   -25479950.550 7 -19792919.03223
 91  4 22 23 59 44.9960000  0  4G15G 2G13G 6
  22691409.527    -3899812.827 5  -2943287.63621
  19989555.7074  -19420625.95348 -15132902.57364
  19781751.504   -18184170.063 7 -11387875.09722
  19330443.1684  -25487253.93147 -19798609.97263
 91  4 22 23 59 59.9960000  0  4G15G 2G13G 6
  22693400.824    -3889360.346 5  -2935142.84221
  19991082.2704  -19412606.45848 -15126653.62064
  19774588.676   -18221798.865 7 -11417196.17222
  19329075.5984  -25494441.70047 -19804210.82663
 91  4 23  0  0 14.9960000  0  4G15G 2G13G 6
  22695418.340    -3878766.816 5  -2926888.11121
  19992619.4574  -19404536.38648 -15120365.25764
  19767456.223   -18259290.470 7 -11446410.32922
  19327730.0204  -25501511.05747 -19809719.40963
 91  4 23  0  0 29.9960000  0  4G15G 2G13G 6
  22697457.9414   -3868036.78945  -2918527.04061
  19994163.5594  -19396420.41248 -15114041.13164
  19760346.316   -18296649.379 7 -11475521.08622
  19326406.7854  -25508466.44947 -19815139.18863
 91  4 23  0  0 44.9960000  0  4G15G 2G13G 6
  22699530.5124   -3857169.21845  -2910058.78861
  19995716.887   -19388256.924 8 -15107679.98224
  19753262.574   -18333873.891 7 -11504527.13322
  19325105.9654  -25515306.21347 -19820468.87263
 91  4 23  0  0 59.9960000  0  4G15G 2G13G 6
  22701622.191    -3846168.603 5  -2901486.86421
  19997276.6764  -19380050.64948 -15101285.49364
  19746203.816   -18370968.204 7 -11533431.71122
  19323825.160   -25522034.734 7 -19825711.86323
 91  4 23  0  1 14.9960000  0  4G15G 2G13G 6
  22703742.762    -3835030.521 5  -2892807.81921
  19998847.8714  -19371797.20048 -15094854.23964
  19739170.496   -18407927.957 7 -11562231.44722
  19322566.2314  -25528647.43547 -19830864.60963
 91  4 23  0  1 29.9960000  0  4G15G 2G13G 6
  22705888.066    -3823755.235 5  -2884021.87021
  20000428.0664  -19363496.65648 -15088386.28364
  19732160.918   -18444753.190 7 -11590926.35522
  19321330.441   -25535144.149 7 -19835926.96923
 91  4 23  0  1 44.9960000  0  4G15G 2G13G 6
  22708056.699    -3812345.201 5  -2875130.91821
  20002015.9814  -19355151.51248 -15081883.58064
  19725180.512   -18481446.420 7 -11619518.40622
  19320114.4964  -25541527.42847 -19840900.94163
 91  4 23  0  1 59.9960000  0  4G15G 2G13G 6
  22710253.840    -3800800.110 5  -2866134.73621
  20003612.4964  -19346761.31848 -15075345.77464
  19718221.371   -18518006.732 7 -11648006.89222
  19318922.7464  -25547796.39747 -19845785.84963
 91  4 23  0  2 14.9960000  0  4G15G 2G13G 6
  22712478.137    -3789118.178 5  -2857031.91621
  20005218.4414  -19338323.96248 -15068771.21764
  19711291.035   -18554432.072 7 -11676390.19122
  19317750.6524  -25553949.01147 -19850580.07863
 91  4 23  0  2 29.9960000  0  4G15G 2G13G 6
  22714728.7934   -3777300.62445  -2847823.40961
  20006832.3564  -19329840.67248 -15062160.86864
  19704385.4024  -18590723.42347 -11704669.09862
  19316602.4494  -25559986.19347 -19855284.36963
 91  4 23  0  2 44.9960000  0  4G15G 2G13G 6
  22716999.309    -3765348.619 5  -2838510.15121
  20008456.4264  -19321312.67248 -15055515.68264
  19697503.809   -18626881.817 7 -11732844.39622
  19315475.3094  -25565908.73347 -19859899.32663
 91  4 23  0  2 59.9960000  0  4G15G 2G13G 6
  22719299.098    -3753260.998 5  -2829091.20421
  20010087.5514  -19312738.63748 -15048834.62063
  19690648.754   -18662905.820 7 -11760914.96922
  19314370.496   -25571715.359 7 -19864423.95923
 91  4 23  0  3 14.9960000  0  4G15G 2G13G 6
  22721628.4024   -3741038.06845  -2819566.84261
  20011726.5274  -19304118.80548 -15042117.87764
  19683819.598   -18698795.663 7 -11788881.00422
  19313287.2774  -25577406.11547 -19868858.30363
 91  4 23  0  3 29.9960000  0  4G15G 2G13G 6
  22723976.2854   -3728678.40145  -2809935.92661
  20013377.301   -19295451.223 8 -15035363.93024
  19677014.387   -18734549.108 7 -11816740.75922
  19312227.4654  -25582978.83747 -19873200.68063
 91  4 23  0  3 44.9960000  0  4G15G 2G13G 6
  22726353.9734   -3716188.80945  -2800203.78261
  20015033.2464  -19286742.74748 -15028578.11564
  19670237.207   -18770173.014 7 -11844499.57422
  19311187.3634  -25588440.34347 -19877456.38663
 91  4 23  0  3 59.9960000  0  4G15G 2G13G 6
  22728757.2234   -3703564.16445  -2790366.38761
  20016699.1684  -19277988.10948 -15021756.32464
  19663483.715   -18805661.756 7 -11872153.06422
  19310170.4574  -25593785.00647 -19881621.05163
 91  4 23  0  4 14.9960000  0  4G15G 2G13G 6
  22731187.418    -3690800.327 5  -2780420.52221
  20018376.2704  -19269183.08948 -15014895.26564
  19656755.754   -18841011.067 7 -11899697.91022
  19309176.5594  -25599008.49647 -19885691.29463
 91  4 23  0  4 29.9960000  0  4G15G 2G13G 6
  22733641.832    -3677902.302 5  -2770370.10521
  20020059.8404  -19260332.56248 -15007998.75864
  19650055.5514  -18876225.57847 -11927137.71262
  19308204.059   -25604115.643 7 -19889670.87623
 91  4 23  0  4 44.9960000  0  4G15G 2G13G 6
  22736124.535    -3664868.372 5  -2760213.78621
  20021753.1524  -19251434.70748 -15001065.37264
  19643380.699   -18911303.514 7 -11954471.09622
  19307254.5044  -25609104.23947 -19893558.08763
 91  4 23  0  4 59.9960000  0  4G15G 2G13G 6
  22738628.0354   -3651699.50445  -2749952.32361
  20023455.1764  -19242490.31248 -14994095.72264
  19636729.777   -18946245.634 7 -11981698.65022
  19306328.3324  -25613974.97647 -19897353.46263
 91  4 23  0  5 14.9960000  0  4G15G 2G13G 6
  22741155.2704   -3638395.82145  -2739585.81361
  20025165.7544  -19233499.30248 -14987089.75664
  19630107.4654  -18981051.57747 -12008820.09662
  19305424.0514  -25618727.66047 -19901056.83963
 91  4 23  0  5 29.9960000  0  4G15G 2G13G 6
  22743713.902    -3624957.883 5  -2729114.68621
  20026885.7464  -19224462.24048 -14980047.88764
  19623510.410   -19015721.707 7 -12035835.71521
  19304542.3634  -25623362.53847 -19904668.42763
 91  4 23  0  5 44.9960000  0  4G15G 2G13G 6
  22746295.9264   -3611387.90945  -2718540.67261
  20028613.6684  -19215381.02448 -14972971.61164
  19616937.5434  -19050257.96547 -12062747.02462
  19303682.1764  -25627881.50347 -19908189.69163
 91  4 23  0  5 59.9960000  0  4G15G 2G13G 6
  22748904.6134   -3597681.11045  -2707860.04061
  20030350.9654  -19206250.81848 -14965857.16764
  19610393.3484  -19084655.23347 -12089550.01762
  19302845.3794  -25632279.52447 -19911616.71863
 91  4 23  0  6 14.9960000  0  4G15G 2G13G 6
  22751538.5744   -3583841.23245  -2697075.70161
  20032097.4814  -19197075.24948 -14958707.37764
  19603872.6764  -19118917.10747 -12116247.51862
  19302031.5124  -25636559.99847 -19914952.14863
 91  4 23  0  6 29.9960000  0  4G15G 2G13G 6
  22754198.7774   -3569868.06145  -2686187.50761
  20033852.4344  -19187854.13248 -14951522.10264
  19597378.3484  -19153043.26847 -12142839.26562
  19301238.9494  -25640722.60547 -19918195.73963
 91  4 23  0  6 44.9960000  0  4G15G 2G13G 6
  22756880.410    -3555760.485 5  -2675194.60421
  20035615.1604  -19178586.23048 -14944300.36364
  19590911.090   -19187032.329 7 -12169324.18122
  19300469.7544  -25644765.89447 -19921346.34763
 91  4 23  0  6 59.9960000  0  4G15G 2G13G 6
  22759593.340    -3541519.937 5  -2664098.06221
  20037387.6214  -19169272.75348 -14937043.11263
  19584467.9814  -19220885.33847 -12195703.07762
  19299723.3094  -25648690.93947 -19924404.82663
 91  4 23  0  7 14.9960000  0  4G15G 2G13G 6
  22762330.840    -3527142.362 5  -2652894.73921
  20039169.4964  -19159909.52348 -14929747.09164
  19578052.2384  -19254597.85947 -12221972.50962
  19298998.5514  -25652493.33447 -19927367.73263
 91  4 23  0  7 29.9960000  0  4G15G 2G13G 6
  22765088.324    -3512631.434 5  -2641587.52121
  20040960.6914  -19150500.13748 -14922415.10764
  19571663.684   -19288173.578 7 -12248135.33822
  19298298.6684  -25656176.49347 -19930237.72363
 91  4 23  0  7 44.9960000  0  4G15G 2G13G 6
  22767878.043    -3497988.283 5  -2630177.25021
  20042758.9654  -19141045.64648 -14915047.97864
  19565300.8564  -19321613.35947 -12274192.24662
  19297619.0824  -25659741.32147 -19933015.51163
 91  4 23  0  7 59.9960000  0  4G15G 2G13G 6
  22770689.5274   -3483216.45945  -2618666.73261
  20044566.1524  -19131548.99848 -14907647.99864
  19558961.6764  -19354920.20947 -12300145.57062
  19296962.0824  -25663190.75347 -19935703.37763
 91  4 23  0  8 14.9960000  0  4G15G 2G13G 6
  22773526.285    -3468317.435 5  -2607057.08321
  20046380.6214  -19122011.66848 -14900216.31564
  19552648.7704  -19388095.48247 -12325996.36262
  19296328.4814  -25666526.18447 -19938302.41363
 91  4 23  0  8 29.9960000  0  4G15G 2G13G 6
  22776383.426    -3453286.901 5  -2595344.97421
  20048204.4734  -19112429.23248 -14892749.48563
  19546361.4414  -19421134.61347 -12351741.07962
  19295716.7074  -25669742.83147 -19940808.88963
 91  4 23  0  8 44.9960000  0  4G15G 2G13G 6
  22779269.684    -3438115.891 5  -2583523.40021
  20050038.0274  -19102792.45548 -14885240.31264
  19540102.2154  -19454028.26647 -12377372.42762
  19295127.8244  -25672831.34547 -19943215.52463
 91  4 23  0  8 59.9960000  0  4G15G 2G13G 6
  22782178.066    -3422819.546 5  -2571604.16821
  20051880.6294  -19093116.35448 -14877700.49763
  19533866.9264  -19486791.28247 -12402901.98862
  19294562.0434  -25675806.51747 -19945533.83963
 91  4 23  0  9 14.9960000  0  4G15G 2G13G 6
  22785118.6134   -3407391.63445  -2559582.40361
  20053730.0904  -19083394.89448 -14870125.34063
  19527659.6134  -19519417.53647 -12428324.98262
  19294018.7624  -25678662.26347 -19947759.09963
 91  4 23  0  9 29.9960000  0  4G15G 2G13G 6
  22788079.6454   -3391835.26045  -2547460.54161
  20055588.098   -19073631.144 8 -14862517.23523
  19521475.1914  -19551909.91947 -12453643.66062
  19293497.6684  -25681401.40747 -19949893.49963
 91  4 23  0  9 44.9960000  0  4G15G 2G13G 6
  22791063.7774   -3376148.46645  -2535237.05961
  20057454.5354  -19063822.60648 -14854874.22963
  19515318.4414  -19584265.86747 -12478856.01962
  19292998.6374  -25684021.38947 -19951935.04663
 91  4 23  0  9 59.9960000  0  4G15G 2G13G 6
  22794073.6294   -3360335.68245  -2522915.40861
  20059328.6374  -19053973.64948 -14847199.71963
  19509187.1214  -19616489.59847 -12503965.35762
  19292522.6844  -25686526.27747 -19953886.91063
 91  4 23  0 10 14.9960000  0  4G15G 2G13G 6
  22797104.5204   -3344394.35945  -2510493.57461
  20061210.5124  -19044081.57248 -14839491.61463
  19503080.0434  -19648578.39947 -12528969.55762
  19292067.8794  -25688913.26847 -19955746.90463
 91  4 23  0 10 29.9960000  0  4G15G 2G13G 6
  22800163.0594   -3328320.24645  -2497968.29761
  20063103.4104  -19034141.77848 -14831746.32963
  19496999.9104  -19680527.75647 -12553865.09962
  19291637.3794  -25691177.77547 -19957511.45763
 91  4 23  0 10 44.9960000  0  4G15G 2G13G 6
  22803247.9024   -3312111.74945  -2485338.29161
  20065003.106   -19024152.644 8 -14823962.60323
  19490947.1374  -19712335.74947 -12578650.48562
  19291229.9884  -25693317.87447 -19959179.07063
 91  4 23  0 10 59.9960000  0  4G15G 2G13G 6
  22806357.051    -3295774.249 5  -2472607.75021
  20066911.9024  -19014119.12648 -14816144.28863
  19484920.4414  -19744007.06947 -12603329.37462
  19290845.3874  -25695338.47747 -19960753.57063
 91  4 23  0 11 14.9960000  0  4G15G 2G13G 6
  22809489.356    -3279308.944 5  -2459777.64021
  20068830.2774  -19004042.45148 -14808292.34263
  19478919.7464  -19775543.00247 -12627902.76562
  19290483.1524  -25697240.63347 -19962235.76963
 91  4 23  0 11 29.9960000  0  4G15G 2G13G 6
  22812650.1294   -3262711.43845  -2446844.51361
  20070756.8324  -18993918.02948 -14800403.19363
  19472944.0824  -19806938.97047 -12652367.09662
  19290145.7934  -25699019.67447 -19963622.04163
 91  4 23  0 11 44.9960000  0  4G15G 2G13G 6
  22815831.1134   -3245982.99545  -2433809.35661
  20072693.402   -18983747.112 8 -14792477.81423
  19466996.3404  -19838196.15047 -12676723.28362
  19289830.0044  -25700676.58347 -19964913.13763
 91  4 23  0 11 59.9960000  0  4G15G 2G13G 6
  22819039.840    -3229127.002 5  -2420674.79921
  20074635.785   -18973532.752 8 -14784518.58823
  19461073.6914  -19869317.54147 -12700973.66062
  19289536.3324  -25702214.23447 -19966111.30863
 91  4 23  0 12 14.9960000  0  4G15G 2G13G 6
  22822272.4814   -3212136.16345  -2407435.20261
  20076588.356   -18963267.663 8 -14776519.83023
  19455179.723   -19900295.806 7 -12725112.50922
  19289268.7774  -25703625.37947 -19967210.90563
 91  4 23  0 12 29.9960000  0  4G15G 2G13G 6
  22825529.8564   -3195015.74245  -2394094.59661
  20078551.527   -18952956.618 8 -14768485.26123
  19449310.5824  -19931135.52947 -12749143.40462
  19289023.2464  -25704914.52247 -19968215.43063
 91  4 23  0 12 44.9960000  0  4G15G 2G13G 6
  22828816.6524   -3177764.14845  -2380651.80261
  20080522.254   -18942597.885 8 -14760413.53323
  19443468.2314  -19961834.78247 -12773064.84362
  19288801.2854  -25706079.98447 -19969123.58563
 91  4 23  0 12 59.9960000  0  4G15G 2G13G 6
  22832120.551    -3160382.887 5  -2367107.95121
  20082502.1844  -18932193.23348 -14752306.02363
  19437652.4654  -19992395.50947 -12796878.33362
  19288602.3404  -25707123.02547 -19969936.34463
 91  4 23  0 13 14.9960000  0  4G15G 2G13G 6
  22835453.1524   -3142876.83545  -2353466.85261
  20084490.520   -18921746.968 8 -14744166.08923
  19431863.7384  -20022821.84347 -12820587.10462
  19288424.3714  -25708048.17347 -19970657.24063
 91  4 23  0 13 29.9960000  0  4G15G 2G13G 6
  22838806.1064   -3125243.87745  -2339726.88461
  20086485.9024  -18911256.80948 -14735991.95263
  19426099.606   -20053111.277 7 -12844189.20622
  19288273.1844  -25708852.77547 -19971284.20263
 91  4 23  0 13 44.9960000  0  4G15G 2G13G 6
  22842187.660    -3107481.431 5  -2325886.00221
  20088491.3244  -18900720.15448 -14727781.58563
  19420362.1604  -20083261.04847 -12867682.47762
  19288144.5594  -25709534.15147 -19971815.15063
 91  4 23  0 13 59.9960000  0  4G15G 2G13G 6
  22845594.6294   -3089588.28445  -2311943.28661
  20090506.3324  -18890135.49348 -14719533.80163
  19414651.371   -20113269.786 7 -12891065.85022
  19288040.4964  -25710090.64547 -19972248.78363
 91  4 23  0 14 14.9960000  0  4G15G 2G13G 6
  22849023.1064   -3071564.43245  -2297898.70761
  20092529.543   -18879502.552 8 -14711248.40923
  19408967.5354  -20143137.03847 -12914338.97862
  19287955.8484  -25710521.90747 -19972584.83763
 91  4 23  0 14 29.9960000  0  3G 2G13G 6
  20094561.637   -18868825.545 8 -14702928.67623
  19403310.3564  -20172866.93247 -12937505.06762
  19287899.5984  -25710832.11547 -19972826.55763
 91  4 23  0 14 44.9960000  0  3G 2G13G 6
  20096601.7704  -18858102.66248 -14694573.20163
  19397678.8954  -20202457.67347 -12960562.73162
  19287863.7074  -25711019.17647
 91  4 23  0 14 59.9960000  0  3G 2G13G 6
  20098651.9574  -18847331.41448 -14686180.02863
  19392075.8714  -20231906.82047 -12983510.05962
  19287851.6914  -25711080.74547
 91  4 23  0 15 14.9960000  0  3G 2G13G 6
  20100709.7544  -18836512.98647 -14677750.09263
  19386497.356   -20261215.461 7 -13006347.90822
  19287863.0044  -25711017.63547
 91  4 23  0 15 29.9960000  0  3G 2G13G 6
  20102776.356   -18825652.543 7 -14669287.42623
  19380946.7234  -20290388.71747 -13029080.26262
  19287898.496   -25710834.840 7
 91  4 23  0 15 44.9960000  0  3G 2G13G 6
  20104852.1064  -18814747.46547 -14660789.97263
  19375422.0274  -20319423.92747 -13051705.04162
  19287954.3874  -25710529.94247
 91  4 23  0 15 59.9960000  0  3G 2G13G 6
  20106937.481   -18803792.534 7 -14652253.67923
  19369922.996   -20348315.915 7 -13074218.22622
  19288037.7774  -25710097.45047 -19972254.10163
 91  4 23  0 16 14.9960000  0  3G 2G13G 6
  20109031.215   -18792790.330 7 -14643680.54423
  19364452.6764  -20377066.84947 -13096621.49762
  19288143.1914  -25709539.66347 -19971819.47063
 91  4 23  0 16 29.9960000  0  3G 2G13G 6
  20111132.645   -18781743.095 7 -14635072.32223
  19359007.9574  -20405679.16047 -13118916.74862
  19288271.5744  -25708858.77847 -19971288.91163
 91  4 23  0 16 44.9960000  0  3G 2G13G 6
  20113242.629   -18770650.544 7 -14626428.79123
  19353589.551   -20434152.590 7 -13141103.78322
  19288426.4964  -25708054.36447 -19970662.09963
 91  4 23  0 16 59.9960000  0  3G 2G13G 6
  20115363.910   -18759509.556 7 -14617747.51923
  19348197.926   -20462483.674 7 -13163179.89822
  19288602.3714  -25707123.16647 -19969936.49663
 91  4 23  0 17 14.9960000  0  3G 2G13G 6
  20117493.254   -18748315.553 7 -14609024.93623
  19342835.457   -20490667.787 7 -13185141.49122
  19288806.5124  -25706060.57847 -19969108.51063
 91  4 23  0 17 29.9960000  0  3G 2G13G 6
  20119633.6994  -18737071.46347 -14600263.31764
  19337499.012   -20518707.991 7 -13206990.94222
  19289032.2774  -25704869.39947 -19968180.32663
 91  4 23  0 17 44.9960000  0  3G 2G13G 6
  20121782.2774  -18725775.96347 -14591461.63963
  19332190.309   -20546602.988 7 -13228727.25122
  19289284.0514  -25703548.26347 -19967150.87363
 91  4 23  0 17 59.9960000  0  3G 2G13G 6
  20123941.6134  -18714433.11547 -14582623.06163
  19326909.363   -20574356.644 7 -13250353.42322
  19289558.7934  -25702100.97047 -19966023.12263
 91  4 23  0 18 14.9960000  0  3G 2G13G 6
  20126108.941   -18703042.269 7 -14573747.09323
  19321655.793   -20601968.201 7 -13271868.86822
  19289858.8874  -25700526.97147 -19964796.63663
 91  4 23  0 18 29.9960000  0  3G 2G13G 6
  20128285.5904  -18691601.52347 -14564832.23763
  19316427.434   -20629435.846 7 -13293272.17822
  19290182.3564  -25698824.13447 -19963469.75863
 91  4 23  0 18 44.9960000  0  3G 2G13G 6
  20130473.5664  -18680109.67247 -14555877.56063
  19311228.426   -20656758.253 7 -13314562.31222
  19290530.4734  -25696990.99747 -19962041.34663
 91  4 23  0 18 59.9960000  0  3G 2G13G 6
  20132669.4654  -18668572.10148 -14546887.25463
  19306055.543   -20683940.944 7 -13335743.58022
  19290902.9344  -25695032.96047 -19960515.61163
 91  4 23  0 19 14.9960000  0  3G 2G13G 6
  20134872.9494  -18656987.51747 -14537860.31563
  19300910.020   -20710982.571 7 -13356814.92322
  19291300.2234  -25692948.79747 -19958891.59463
 91  4 23  0 19 29.9960000  0  3G 2G13G 6
  20137084.981   -18645354.497 7 -14528795.63623
  19295791.816   -20737881.721 7 -13377775.24722
  19291722.8164  -25690736.78447 -19957167.95663
 91  4 23  0 19 44.9960000  0  3G 2G13G 6
  20139309.1844  -18633674.71747 -14519694.52063
  19290698.637   -20764640.016 7 -13398625.81622
  19292166.9264  -25688398.47847 -19955345.90563
